<?xml version="1.0" encoding="UTF-8" standalone="no" ?>
<gpx xmlns="http://www.topografix.com/GPX/1/1" xmlns:xsi="http://www.w3.org/2001/XMLSchema-instance" xsi:schemaLocation="http://www.topografix.com/GPX/1/1 http://www.topografix.com/GPX/1/1/gpx.xsd" version="1.1" creator="VisuGPX - https://www.visugpx.com">
  <metadata>
    <name>83-Me-Ampus</name>
    <desc><![CDATA[83-Me-Ampus : ND de Spéluque
2022-03-02]]></desc>
  </metadata>
  <trk>
    <name><![CDATA[2022-03-02-Me-Ampus]]></name>
    <extensions>
      <line xmlns="http://www.topografix.com/GPX/gpx_style/0/2">
        <width>4</width>
      </line>
    </extensions>
    <trkseg>
      <trkpt lat="43.60587" lon="6.3827">
        <ele>598.3</ele>
        <time>2022-03-02T13:16:03.000Z</time>
      </trkpt>
      <trkpt lat="43.60587" lon="6.3827">
        <ele>598.2</ele>
        <time>2022-03-02T13:16:04.000Z</time>
      </trkpt>
      <trkpt lat="43.60583" lon="6.38271">
        <ele>598.1</ele>
        <time>2022-03-02T13:16:51.000Z</time>
      </trkpt>
      <trkpt lat="43.60578" lon="6.38269">
        <ele>597.2</ele>
        <time>2022-03-02T13:18:26.000Z</time>
      </trkpt>
      <trkpt lat="43.60578" lon="6.38276">
        <ele>596.9</ele>
        <time>2022-03-02T13:19:15.000Z</time>
      </trkpt>
      <trkpt lat="43.60577" lon="6.38282">
        <ele>597</ele>
        <time>2022-03-02T13:19:27.000Z</time>
      </trkpt>
      <trkpt lat="43.60581" lon="6.38278">
        <ele>596.9</ele>
        <time>2022-03-02T13:19:36.000Z</time>
      </trkpt>
      <trkpt lat="43.60581" lon="6.38271">
        <ele>597.1</ele>
        <time>2022-03-02T13:19:55.000Z</time>
      </trkpt>
      <trkpt lat="43.60584" lon="6.38267">
        <ele>598</ele>
        <time>2022-03-02T13:21:10.000Z</time>
      </trkpt>
      <trkpt lat="43.60589" lon="6.38263">
        <ele>597.9</ele>
        <time>2022-03-02T13:21:21.000Z</time>
      </trkpt>
      <trkpt lat="43.60592" lon="6.38259">
        <ele>597.9</ele>
        <time>2022-03-02T13:21:24.000Z</time>
      </trkpt>
      <trkpt lat="43.60596" lon="6.38255">
        <ele>597.9</ele>
        <time>2022-03-02T13:21:27.000Z</time>
      </trkpt>
      <trkpt lat="43.60597" lon="6.38261">
        <ele>598.8</ele>
        <time>2022-03-02T13:21:43.000Z</time>
      </trkpt>
      <trkpt lat="43.60602" lon="6.38258">
        <ele>599.7</ele>
        <time>2022-03-02T13:21:49.000Z</time>
      </trkpt>
      <trkpt lat="43.60607" lon="6.38257">
        <ele>600.7</ele>
        <time>2022-03-02T13:21:57.000Z</time>
      </trkpt>
      <trkpt lat="43.60612" lon="6.38258">
        <ele>602.2</ele>
        <time>2022-03-02T13:22:12.000Z</time>
      </trkpt>
      <trkpt lat="43.60616" lon="6.38254">
        <ele>602.6</ele>
        <time>2022-03-02T13:22:16.000Z</time>
      </trkpt>
      <trkpt lat="43.60621" lon="6.38254">
        <ele>603.1</ele>
        <time>2022-03-02T13:22:21.000Z</time>
      </trkpt>
      <trkpt lat="43.60626" lon="6.38254">
        <ele>603.6</ele>
        <time>2022-03-02T13:22:26.000Z</time>
      </trkpt>
      <trkpt lat="43.60632" lon="6.38253">
        <ele>603.9</ele>
        <time>2022-03-02T13:22:31.000Z</time>
      </trkpt>
      <trkpt lat="43.60637" lon="6.38251">
        <ele>604.1</ele>
        <time>2022-03-02T13:22:35.000Z</time>
      </trkpt>
      <trkpt lat="43.60642" lon="6.38253">
        <ele>604.6</ele>
        <time>2022-03-02T13:22:40.000Z</time>
      </trkpt>
      <trkpt lat="43.60646" lon="6.38252">
        <ele>605</ele>
        <time>2022-03-02T13:22:45.000Z</time>
      </trkpt>
      <trkpt lat="43.60651" lon="6.38256">
        <ele>605.4</ele>
        <time>2022-03-02T13:22:51.000Z</time>
      </trkpt>
      <trkpt lat="43.60655" lon="6.38259">
        <ele>605.9</ele>
        <time>2022-03-02T13:22:56.000Z</time>
      </trkpt>
      <trkpt lat="43.60657" lon="6.38264">
        <ele>606.2</ele>
        <time>2022-03-02T13:22:59.000Z</time>
      </trkpt>
      <trkpt lat="43.60662" lon="6.38269">
        <ele>606.7</ele>
        <time>2022-03-02T13:23:04.000Z</time>
      </trkpt>
      <trkpt lat="43.60666" lon="6.38272">
        <ele>607.5</ele>
        <time>2022-03-02T13:23:09.000Z</time>
      </trkpt>
      <trkpt lat="43.60669" lon="6.38277">
        <ele>608.2</ele>
        <time>2022-03-02T13:23:14.000Z</time>
      </trkpt>
      <trkpt lat="43.60673" lon="6.38282">
        <ele>608.6</ele>
        <time>2022-03-02T13:23:19.000Z</time>
      </trkpt>
      <trkpt lat="43.60677" lon="6.38285">
        <ele>609</ele>
        <time>2022-03-02T13:23:24.000Z</time>
      </trkpt>
      <trkpt lat="43.60682" lon="6.38288">
        <ele>609.7</ele>
        <time>2022-03-02T13:23:29.000Z</time>
      </trkpt>
      <trkpt lat="43.60686" lon="6.38291">
        <ele>610.3</ele>
        <time>2022-03-02T13:23:35.000Z</time>
      </trkpt>
      <trkpt lat="43.60688" lon="6.38298">
        <ele>610.8</ele>
        <time>2022-03-02T13:23:40.000Z</time>
      </trkpt>
      <trkpt lat="43.60693" lon="6.38301">
        <ele>611.4</ele>
        <time>2022-03-02T13:23:46.000Z</time>
      </trkpt>
      <trkpt lat="43.60699" lon="6.38302">
        <ele>612.2</ele>
        <time>2022-03-02T13:23:52.000Z</time>
      </trkpt>
      <trkpt lat="43.60703" lon="6.38305">
        <ele>612.7</ele>
        <time>2022-03-02T13:23:58.000Z</time>
      </trkpt>
      <trkpt lat="43.60706" lon="6.3831">
        <ele>612.8</ele>
        <time>2022-03-02T13:24:02.000Z</time>
      </trkpt>
      <trkpt lat="43.60708" lon="6.38316">
        <ele>612.8</ele>
        <time>2022-03-02T13:24:06.000Z</time>
      </trkpt>
      <trkpt lat="43.6071" lon="6.38323">
        <ele>612.7</ele>
        <time>2022-03-02T13:24:10.000Z</time>
      </trkpt>
      <trkpt lat="43.60713" lon="6.38329">
        <ele>612.8</ele>
        <time>2022-03-02T13:24:14.000Z</time>
      </trkpt>
      <trkpt lat="43.60716" lon="6.38334">
        <ele>612.8</ele>
        <time>2022-03-02T13:24:19.000Z</time>
      </trkpt>
      <trkpt lat="43.60719" lon="6.3834">
        <ele>612.4</ele>
        <time>2022-03-02T13:24:24.000Z</time>
      </trkpt>
      <trkpt lat="43.60719" lon="6.38347">
        <ele>612.1</ele>
        <time>2022-03-02T13:24:30.000Z</time>
      </trkpt>
      <trkpt lat="43.60721" lon="6.38353">
        <ele>611.6</ele>
        <time>2022-03-02T13:24:40.000Z</time>
      </trkpt>
      <trkpt lat="43.60721" lon="6.38359">
        <ele>611</ele>
        <time>2022-03-02T13:24:45.000Z</time>
      </trkpt>
      <trkpt lat="43.60725" lon="6.38362">
        <ele>610.6</ele>
        <time>2022-03-02T13:24:49.000Z</time>
      </trkpt>
      <trkpt lat="43.60731" lon="6.38366">
        <ele>610.2</ele>
        <time>2022-03-02T13:24:53.000Z</time>
      </trkpt>
      <trkpt lat="43.60734" lon="6.38371">
        <ele>609.4</ele>
        <time>2022-03-02T13:24:58.000Z</time>
      </trkpt>
      <trkpt lat="43.6074" lon="6.3837">
        <ele>608.8</ele>
        <time>2022-03-02T13:25:02.000Z</time>
      </trkpt>
      <trkpt lat="43.60745" lon="6.38367">
        <ele>608.2</ele>
        <time>2022-03-02T13:25:05.000Z</time>
      </trkpt>
      <trkpt lat="43.60749" lon="6.38366">
        <ele>607.4</ele>
        <time>2022-03-02T13:25:09.000Z</time>
      </trkpt>
      <trkpt lat="43.60755" lon="6.38366">
        <ele>606.5</ele>
        <time>2022-03-02T13:25:14.000Z</time>
      </trkpt>
      <trkpt lat="43.6076" lon="6.38366">
        <ele>605.6</ele>
        <time>2022-03-02T13:25:19.000Z</time>
      </trkpt>
      <trkpt lat="43.60765" lon="6.38367">
        <ele>604.8</ele>
        <time>2022-03-02T13:25:25.000Z</time>
      </trkpt>
      <trkpt lat="43.60771" lon="6.38365">
        <ele>604.2</ele>
        <time>2022-03-02T13:25:29.000Z</time>
      </trkpt>
      <trkpt lat="43.60776" lon="6.38365">
        <ele>603.7</ele>
        <time>2022-03-02T13:25:33.000Z</time>
      </trkpt>
      <trkpt lat="43.60781" lon="6.38366">
        <ele>603</ele>
        <time>2022-03-02T13:25:38.000Z</time>
      </trkpt>
      <trkpt lat="43.60785" lon="6.38366">
        <ele>602.4</ele>
        <time>2022-03-02T13:25:42.000Z</time>
      </trkpt>
      <trkpt lat="43.60791" lon="6.38367">
        <ele>601.8</ele>
        <time>2022-03-02T13:25:47.000Z</time>
      </trkpt>
      <trkpt lat="43.60796" lon="6.38369">
        <ele>601.1</ele>
        <time>2022-03-02T13:25:52.000Z</time>
      </trkpt>
      <trkpt lat="43.60799" lon="6.38374">
        <ele>600.3</ele>
        <time>2022-03-02T13:25:58.000Z</time>
      </trkpt>
      <trkpt lat="43.60803" lon="6.38377">
        <ele>599.8</ele>
        <time>2022-03-02T13:26:03.000Z</time>
      </trkpt>
      <trkpt lat="43.60807" lon="6.38381">
        <ele>599.2</ele>
        <time>2022-03-02T13:26:08.000Z</time>
      </trkpt>
      <trkpt lat="43.60812" lon="6.38383">
        <ele>598.3</ele>
        <time>2022-03-02T13:26:14.000Z</time>
      </trkpt>
      <trkpt lat="43.60816" lon="6.38382">
        <ele>597.7</ele>
        <time>2022-03-02T13:26:18.000Z</time>
      </trkpt>
      <trkpt lat="43.60821" lon="6.38381">
        <ele>597.1</ele>
        <time>2022-03-02T13:26:22.000Z</time>
      </trkpt>
      <trkpt lat="43.60827" lon="6.38383">
        <ele>596.3</ele>
        <time>2022-03-02T13:26:28.000Z</time>
      </trkpt>
      <trkpt lat="43.60831" lon="6.38385">
        <ele>595.4</ele>
        <time>2022-03-02T13:26:34.000Z</time>
      </trkpt>
      <trkpt lat="43.60836" lon="6.38385">
        <ele>594.6</ele>
        <time>2022-03-02T13:26:41.000Z</time>
      </trkpt>
      <trkpt lat="43.6084" lon="6.3839">
        <ele>593.5</ele>
        <time>2022-03-02T13:26:48.000Z</time>
      </trkpt>
      <trkpt lat="43.60842" lon="6.38396">
        <ele>593</ele>
        <time>2022-03-02T13:26:52.000Z</time>
      </trkpt>
      <trkpt lat="43.60847" lon="6.38395">
        <ele>592.5</ele>
        <time>2022-03-02T13:26:55.000Z</time>
      </trkpt>
      <trkpt lat="43.60852" lon="6.38392">
        <ele>591.8</ele>
        <time>2022-03-02T13:26:59.000Z</time>
      </trkpt>
      <trkpt lat="43.60857" lon="6.38391">
        <ele>591.2</ele>
        <time>2022-03-02T13:27:03.000Z</time>
      </trkpt>
      <trkpt lat="43.60863" lon="6.3839">
        <ele>591</ele>
        <time>2022-03-02T13:27:08.000Z</time>
      </trkpt>
      <trkpt lat="43.60867" lon="6.3839">
        <ele>590.6</ele>
        <time>2022-03-02T13:27:12.000Z</time>
      </trkpt>
      <trkpt lat="43.60872" lon="6.3839">
        <ele>590.2</ele>
        <time>2022-03-02T13:27:16.000Z</time>
      </trkpt>
      <trkpt lat="43.60878" lon="6.3839">
        <ele>589.6</ele>
        <time>2022-03-02T13:27:19.000Z</time>
      </trkpt>
      <trkpt lat="43.60882" lon="6.3839">
        <ele>589.1</ele>
        <time>2022-03-02T13:27:22.000Z</time>
      </trkpt>
      <trkpt lat="43.60887" lon="6.38387">
        <ele>588.7</ele>
        <time>2022-03-02T13:27:25.000Z</time>
      </trkpt>
      <trkpt lat="43.60894" lon="6.38383">
        <ele>588.3</ele>
        <time>2022-03-02T13:27:28.000Z</time>
      </trkpt>
      <trkpt lat="43.609" lon="6.38378">
        <ele>588</ele>
        <time>2022-03-02T13:27:30.000Z</time>
      </trkpt>
      <trkpt lat="43.60905" lon="6.38375">
        <ele>587.7</ele>
        <time>2022-03-02T13:27:32.000Z</time>
      </trkpt>
      <trkpt lat="43.60909" lon="6.38372">
        <ele>587.4</ele>
        <time>2022-03-02T13:27:34.000Z</time>
      </trkpt>
      <trkpt lat="43.60914" lon="6.38373">
        <ele>586.9</ele>
        <time>2022-03-02T13:27:38.000Z</time>
      </trkpt>
      <trkpt lat="43.60919" lon="6.38372">
        <ele>586.4</ele>
        <time>2022-03-02T13:27:43.000Z</time>
      </trkpt>
      <trkpt lat="43.60924" lon="6.38372">
        <ele>586.2</ele>
        <time>2022-03-02T13:27:48.000Z</time>
      </trkpt>
      <trkpt lat="43.60928" lon="6.38373">
        <ele>586</ele>
        <time>2022-03-02T13:27:51.900Z</time>
      </trkpt>
      <trkpt lat="43.60933" lon="6.38373">
        <ele>585.1</ele>
        <time>2022-03-02T13:27:59.000Z</time>
      </trkpt>
      <trkpt lat="43.60937" lon="6.38377">
        <ele>584.8</ele>
        <time>2022-03-02T13:28:05.000Z</time>
      </trkpt>
      <trkpt lat="43.60942" lon="6.38375">
        <ele>584.4</ele>
        <time>2022-03-02T13:28:09.000Z</time>
      </trkpt>
      <trkpt lat="43.60947" lon="6.38375">
        <ele>584</ele>
        <time>2022-03-02T13:28:13.000Z</time>
      </trkpt>
      <trkpt lat="43.60952" lon="6.38373">
        <ele>583.6</ele>
        <time>2022-03-02T13:28:16.000Z</time>
      </trkpt>
      <trkpt lat="43.60956" lon="6.38371">
        <ele>583.4</ele>
        <time>2022-03-02T13:28:19.000Z</time>
      </trkpt>
      <trkpt lat="43.60962" lon="6.38368">
        <ele>583.1</ele>
        <time>2022-03-02T13:28:22.000Z</time>
      </trkpt>
      <trkpt lat="43.60968" lon="6.38363">
        <ele>582.6</ele>
        <time>2022-03-02T13:28:25.000Z</time>
      </trkpt>
      <trkpt lat="43.60974" lon="6.3836">
        <ele>582.3</ele>
        <time>2022-03-02T13:28:28.000Z</time>
      </trkpt>
      <trkpt lat="43.60979" lon="6.38359">
        <ele>582</ele>
        <time>2022-03-02T13:28:31.000Z</time>
      </trkpt>
      <trkpt lat="43.60985" lon="6.38357">
        <ele>581.9</ele>
        <time>2022-03-02T13:28:35.000Z</time>
      </trkpt>
      <trkpt lat="43.6099" lon="6.38355">
        <ele>581.6</ele>
        <time>2022-03-02T13:28:39.000Z</time>
      </trkpt>
      <trkpt lat="43.60994" lon="6.38353">
        <ele>581.3</ele>
        <time>2022-03-02T13:28:43.000Z</time>
      </trkpt>
      <trkpt lat="43.60999" lon="6.38356">
        <ele>580.6</ele>
        <time>2022-03-02T13:28:50.000Z</time>
      </trkpt>
      <trkpt lat="43.61003" lon="6.38359">
        <ele>580.1</ele>
        <time>2022-03-02T13:28:55.000Z</time>
      </trkpt>
      <trkpt lat="43.61007" lon="6.38362">
        <ele>579.4</ele>
        <time>2022-03-02T13:29:00.000Z</time>
      </trkpt>
      <trkpt lat="43.61011" lon="6.38366">
        <ele>578.7</ele>
        <time>2022-03-02T13:29:05.000Z</time>
      </trkpt>
      <trkpt lat="43.61016" lon="6.38368">
        <ele>577.9</ele>
        <time>2022-03-02T13:29:10.000Z</time>
      </trkpt>
      <trkpt lat="43.61021" lon="6.3837">
        <ele>577.1</ele>
        <time>2022-03-02T13:29:14.000Z</time>
      </trkpt>
      <trkpt lat="43.61026" lon="6.38372">
        <ele>576.1</ele>
        <time>2022-03-02T13:29:18.000Z</time>
      </trkpt>
      <trkpt lat="43.61031" lon="6.38373">
        <ele>575.4</ele>
        <time>2022-03-02T13:29:22.000Z</time>
      </trkpt>
      <trkpt lat="43.61036" lon="6.38373">
        <ele>574.9</ele>
        <time>2022-03-02T13:29:25.000Z</time>
      </trkpt>
      <trkpt lat="43.61042" lon="6.38371">
        <ele>574.3</ele>
        <time>2022-03-02T13:29:29.000Z</time>
      </trkpt>
      <trkpt lat="43.61046" lon="6.38369">
        <ele>573.8</ele>
        <time>2022-03-02T13:29:32.000Z</time>
      </trkpt>
      <trkpt lat="43.6105" lon="6.38366">
        <ele>573.3</ele>
        <time>2022-03-02T13:29:36.000Z</time>
      </trkpt>
      <trkpt lat="43.61055" lon="6.38364">
        <ele>572.9</ele>
        <time>2022-03-02T13:29:40.000Z</time>
      </trkpt>
      <trkpt lat="43.6106" lon="6.38364">
        <ele>572.3</ele>
        <time>2022-03-02T13:29:46.000Z</time>
      </trkpt>
      <trkpt lat="43.61065" lon="6.38362">
        <ele>571.9</ele>
        <time>2022-03-02T13:29:50.000Z</time>
      </trkpt>
      <trkpt lat="43.6107" lon="6.38358">
        <ele>571.6</ele>
        <time>2022-03-02T13:29:53.000Z</time>
      </trkpt>
      <trkpt lat="43.61074" lon="6.38354">
        <ele>571.5</ele>
        <time>2022-03-02T13:29:55.000Z</time>
      </trkpt>
      <trkpt lat="43.61078" lon="6.3835">
        <ele>571.3</ele>
        <time>2022-03-02T13:29:58.000Z</time>
      </trkpt>
      <trkpt lat="43.61083" lon="6.38347">
        <ele>571.1</ele>
        <time>2022-03-02T13:30:01.000Z</time>
      </trkpt>
      <trkpt lat="43.61087" lon="6.38343">
        <ele>571</ele>
        <time>2022-03-02T13:30:05.000Z</time>
      </trkpt>
      <trkpt lat="43.61091" lon="6.38339">
        <ele>570.8</ele>
        <time>2022-03-02T13:30:08.000Z</time>
      </trkpt>
      <trkpt lat="43.61094" lon="6.38336">
        <ele>570.8</ele>
        <time>2022-03-02T13:30:11.000Z</time>
      </trkpt>
      <trkpt lat="43.61099" lon="6.38331">
        <ele>570.7</ele>
        <time>2022-03-02T13:30:14.000Z</time>
      </trkpt>
      <trkpt lat="43.61103" lon="6.38328">
        <ele>570.6</ele>
        <time>2022-03-02T13:30:17.000Z</time>
      </trkpt>
      <trkpt lat="43.61109" lon="6.38326">
        <ele>570.4</ele>
        <time>2022-03-02T13:30:21.000Z</time>
      </trkpt>
      <trkpt lat="43.61113" lon="6.38326">
        <ele>570.3</ele>
        <time>2022-03-02T13:30:27.000Z</time>
      </trkpt>
      <trkpt lat="43.61119" lon="6.38327">
        <ele>570.4</ele>
        <time>2022-03-02T13:30:32.000Z</time>
      </trkpt>
      <trkpt lat="43.61124" lon="6.38329">
        <ele>570.5</ele>
        <time>2022-03-02T13:30:37.000Z</time>
      </trkpt>
      <trkpt lat="43.61129" lon="6.38329">
        <ele>570.4</ele>
        <time>2022-03-02T13:30:42.000Z</time>
      </trkpt>
      <trkpt lat="43.61135" lon="6.38331">
        <ele>570.3</ele>
        <time>2022-03-02T13:30:47.000Z</time>
      </trkpt>
      <trkpt lat="43.61139" lon="6.38335">
        <ele>570.2</ele>
        <time>2022-03-02T13:30:52.000Z</time>
      </trkpt>
      <trkpt lat="43.61143" lon="6.3834">
        <ele>569.8</ele>
        <time>2022-03-02T13:30:58.000Z</time>
      </trkpt>
      <trkpt lat="43.61145" lon="6.38347">
        <ele>569.7</ele>
        <time>2022-03-02T13:31:03.000Z</time>
      </trkpt>
      <trkpt lat="43.61147" lon="6.38354">
        <ele>569.6</ele>
        <time>2022-03-02T13:31:08.000Z</time>
      </trkpt>
      <trkpt lat="43.61149" lon="6.3836">
        <ele>569.4</ele>
        <time>2022-03-02T13:31:12.000Z</time>
      </trkpt>
      <trkpt lat="43.61152" lon="6.38366">
        <ele>569.1</ele>
        <time>2022-03-02T13:31:16.000Z</time>
      </trkpt>
      <trkpt lat="43.61156" lon="6.38373">
        <ele>568.9</ele>
        <time>2022-03-02T13:31:20.000Z</time>
      </trkpt>
      <trkpt lat="43.6116" lon="6.38379">
        <ele>568.7</ele>
        <time>2022-03-02T13:31:24.000Z</time>
      </trkpt>
      <trkpt lat="43.61163" lon="6.38384">
        <ele>568.5</ele>
        <time>2022-03-02T13:31:28.000Z</time>
      </trkpt>
      <trkpt lat="43.61165" lon="6.3839">
        <ele>568.4</ele>
        <time>2022-03-02T13:31:32.000Z</time>
      </trkpt>
      <trkpt lat="43.61168" lon="6.38396">
        <ele>568.3</ele>
        <time>2022-03-02T13:31:36.000Z</time>
      </trkpt>
      <trkpt lat="43.6117" lon="6.38402">
        <ele>568.2</ele>
        <time>2022-03-02T13:31:40.000Z</time>
      </trkpt>
      <trkpt lat="43.61172" lon="6.38408">
        <ele>568.2</ele>
        <time>2022-03-02T13:31:44.000Z</time>
      </trkpt>
      <trkpt lat="43.61173" lon="6.38414">
        <ele>568.1</ele>
        <time>2022-03-02T13:31:48.000Z</time>
      </trkpt>
      <trkpt lat="43.61175" lon="6.38421">
        <ele>568.1</ele>
        <time>2022-03-02T13:31:52.000Z</time>
      </trkpt>
      <trkpt lat="43.61176" lon="6.38428">
        <ele>568.1</ele>
        <time>2022-03-02T13:31:56.000Z</time>
      </trkpt>
      <trkpt lat="43.61177" lon="6.38434">
        <ele>568.1</ele>
        <time>2022-03-02T13:32:00.000Z</time>
      </trkpt>
      <trkpt lat="43.61178" lon="6.38441">
        <ele>568</ele>
        <time>2022-03-02T13:32:04.000Z</time>
      </trkpt>
      <trkpt lat="43.6118" lon="6.38448">
        <ele>568</ele>
        <time>2022-03-02T13:32:08.000Z</time>
      </trkpt>
      <trkpt lat="43.61181" lon="6.38454">
        <ele>568.1</ele>
        <time>2022-03-02T13:32:12.000Z</time>
      </trkpt>
      <trkpt lat="43.61182" lon="6.3846">
        <ele>568</ele>
        <time>2022-03-02T13:32:16.000Z</time>
      </trkpt>
      <trkpt lat="43.61184" lon="6.38466">
        <ele>567.8</ele>
        <time>2022-03-02T13:32:20.000Z</time>
      </trkpt>
      <trkpt lat="43.61184" lon="6.38473">
        <ele>567.9</ele>
        <time>2022-03-02T13:32:24.000Z</time>
      </trkpt>
      <trkpt lat="43.61184" lon="6.3848">
        <ele>567.8</ele>
        <time>2022-03-02T13:32:28.000Z</time>
      </trkpt>
      <trkpt lat="43.61184" lon="6.38488">
        <ele>567.5</ele>
        <time>2022-03-02T13:32:33.000Z</time>
      </trkpt>
      <trkpt lat="43.61184" lon="6.38495">
        <ele>567.3</ele>
        <time>2022-03-02T13:32:37.000Z</time>
      </trkpt>
      <trkpt lat="43.61186" lon="6.38501">
        <ele>567.2</ele>
        <time>2022-03-02T13:32:41.000Z</time>
      </trkpt>
      <trkpt lat="43.61189" lon="6.38508">
        <ele>567.2</ele>
        <time>2022-03-02T13:32:45.000Z</time>
      </trkpt>
      <trkpt lat="43.61192" lon="6.38513">
        <ele>567.4</ele>
        <time>2022-03-02T13:32:49.000Z</time>
      </trkpt>
      <trkpt lat="43.61196" lon="6.38519">
        <ele>567.8</ele>
        <time>2022-03-02T13:32:54.000Z</time>
      </trkpt>
      <trkpt lat="43.612" lon="6.38523">
        <ele>568.5</ele>
        <time>2022-03-02T13:32:59.000Z</time>
      </trkpt>
      <trkpt lat="43.61205" lon="6.38526">
        <ele>569.3</ele>
        <time>2022-03-02T13:33:04.000Z</time>
      </trkpt>
      <trkpt lat="43.6121" lon="6.38529">
        <ele>569.9</ele>
        <time>2022-03-02T13:33:09.000Z</time>
      </trkpt>
      <trkpt lat="43.61214" lon="6.38532">
        <ele>570.5</ele>
        <time>2022-03-02T13:33:13.000Z</time>
      </trkpt>
      <trkpt lat="43.61218" lon="6.38537">
        <ele>571.2</ele>
        <time>2022-03-02T13:33:18.000Z</time>
      </trkpt>
      <trkpt lat="43.61222" lon="6.38541">
        <ele>571.8</ele>
        <time>2022-03-02T13:33:23.000Z</time>
      </trkpt>
      <trkpt lat="43.61226" lon="6.38544">
        <ele>572.5</ele>
        <time>2022-03-02T13:33:28.000Z</time>
      </trkpt>
      <trkpt lat="43.61231" lon="6.38546">
        <ele>573.1</ele>
        <time>2022-03-02T13:33:33.000Z</time>
      </trkpt>
      <trkpt lat="43.61236" lon="6.38548">
        <ele>573.5</ele>
        <time>2022-03-02T13:33:37.000Z</time>
      </trkpt>
      <trkpt lat="43.61241" lon="6.38549">
        <ele>574.2</ele>
        <time>2022-03-02T13:33:41.000Z</time>
      </trkpt>
      <trkpt lat="43.61245" lon="6.3855">
        <ele>574.9</ele>
        <time>2022-03-02T13:33:45.000Z</time>
      </trkpt>
      <trkpt lat="43.61251" lon="6.3855">
        <ele>575.8</ele>
        <time>2022-03-02T13:33:50.000Z</time>
      </trkpt>
      <trkpt lat="43.61255" lon="6.38551">
        <ele>576.2</ele>
        <time>2022-03-02T13:33:54.000Z</time>
      </trkpt>
      <trkpt lat="43.61261" lon="6.38553">
        <ele>576.9</ele>
        <time>2022-03-02T13:33:59.000Z</time>
      </trkpt>
      <trkpt lat="43.61266" lon="6.38555">
        <ele>577.6</ele>
        <time>2022-03-02T13:34:04.000Z</time>
      </trkpt>
      <trkpt lat="43.6127" lon="6.38558">
        <ele>578.3</ele>
        <time>2022-03-02T13:34:09.000Z</time>
      </trkpt>
      <trkpt lat="43.61275" lon="6.38561">
        <ele>579</ele>
        <time>2022-03-02T13:34:14.000Z</time>
      </trkpt>
      <trkpt lat="43.6128" lon="6.38564">
        <ele>579.7</ele>
        <time>2022-03-02T13:34:19.000Z</time>
      </trkpt>
      <trkpt lat="43.61284" lon="6.38567">
        <ele>580.6</ele>
        <time>2022-03-02T13:34:24.000Z</time>
      </trkpt>
      <trkpt lat="43.61289" lon="6.3857">
        <ele>581.3</ele>
        <time>2022-03-02T13:34:29.000Z</time>
      </trkpt>
      <trkpt lat="43.61293" lon="6.38573">
        <ele>582.2</ele>
        <time>2022-03-02T13:34:35.000Z</time>
      </trkpt>
      <trkpt lat="43.61298" lon="6.38576">
        <ele>582.9</ele>
        <time>2022-03-02T13:34:40.000Z</time>
      </trkpt>
      <trkpt lat="43.61302" lon="6.38578">
        <ele>583.5</ele>
        <time>2022-03-02T13:34:45.000Z</time>
      </trkpt>
      <trkpt lat="43.61307" lon="6.38581">
        <ele>584.1</ele>
        <time>2022-03-02T13:34:50.000Z</time>
      </trkpt>
      <trkpt lat="43.61311" lon="6.38583">
        <ele>584.8</ele>
        <time>2022-03-02T13:34:55.000Z</time>
      </trkpt>
      <trkpt lat="43.61316" lon="6.38585">
        <ele>585.5</ele>
        <time>2022-03-02T13:35:00.000Z</time>
      </trkpt>
      <trkpt lat="43.61321" lon="6.38588">
        <ele>586.3</ele>
        <time>2022-03-02T13:35:05.000Z</time>
      </trkpt>
      <trkpt lat="43.61326" lon="6.3859">
        <ele>586.8</ele>
        <time>2022-03-02T13:35:10.000Z</time>
      </trkpt>
      <trkpt lat="43.61331" lon="6.38592">
        <ele>587.2</ele>
        <time>2022-03-02T13:35:15.000Z</time>
      </trkpt>
      <trkpt lat="43.61336" lon="6.38594">
        <ele>587.6</ele>
        <time>2022-03-02T13:35:20.000Z</time>
      </trkpt>
      <trkpt lat="43.61341" lon="6.38596">
        <ele>587.9</ele>
        <time>2022-03-02T13:35:27.000Z</time>
      </trkpt>
      <trkpt lat="43.61346" lon="6.38598">
        <ele>588.7</ele>
        <time>2022-03-02T13:35:32.000Z</time>
      </trkpt>
      <trkpt lat="43.6135" lon="6.386">
        <ele>590</ele>
        <time>2022-03-02T13:35:48.000Z</time>
      </trkpt>
      <trkpt lat="43.61354" lon="6.38603">
        <ele>590.4</ele>
        <time>2022-03-02T13:35:54.000Z</time>
      </trkpt>
      <trkpt lat="43.61359" lon="6.38606">
        <ele>591.2</ele>
        <time>2022-03-02T13:35:59.000Z</time>
      </trkpt>
      <trkpt lat="43.61364" lon="6.38609">
        <ele>591.4</ele>
        <time>2022-03-02T13:36:04.000Z</time>
      </trkpt>
      <trkpt lat="43.61368" lon="6.38611">
        <ele>591.8</ele>
        <time>2022-03-02T13:36:09.000Z</time>
      </trkpt>
      <trkpt lat="43.61373" lon="6.38614">
        <ele>592.2</ele>
        <time>2022-03-02T13:36:13.000Z</time>
      </trkpt>
      <trkpt lat="43.61378" lon="6.38617">
        <ele>592.2</ele>
        <time>2022-03-02T13:36:17.000Z</time>
      </trkpt>
      <trkpt lat="43.61382" lon="6.38619">
        <ele>592.7</ele>
        <time>2022-03-02T13:36:21.000Z</time>
      </trkpt>
      <trkpt lat="43.61387" lon="6.38622">
        <ele>593.1</ele>
        <time>2022-03-02T13:36:25.000Z</time>
      </trkpt>
      <trkpt lat="43.61391" lon="6.38625">
        <ele>593.3</ele>
        <time>2022-03-02T13:36:29.000Z</time>
      </trkpt>
      <trkpt lat="43.61395" lon="6.38627">
        <ele>593.5</ele>
        <time>2022-03-02T13:36:33.000Z</time>
      </trkpt>
      <trkpt lat="43.61401" lon="6.38629">
        <ele>594</ele>
        <time>2022-03-02T13:36:38.000Z</time>
      </trkpt>
      <trkpt lat="43.61405" lon="6.38631">
        <ele>594.4</ele>
        <time>2022-03-02T13:36:42.000Z</time>
      </trkpt>
      <trkpt lat="43.61409" lon="6.38634">
        <ele>594.8</ele>
        <time>2022-03-02T13:36:46.000Z</time>
      </trkpt>
      <trkpt lat="43.61414" lon="6.38636">
        <ele>595.2</ele>
        <time>2022-03-02T13:36:50.000Z</time>
      </trkpt>
      <trkpt lat="43.61418" lon="6.38638">
        <ele>595.5</ele>
        <time>2022-03-02T13:36:54.000Z</time>
      </trkpt>
      <trkpt lat="43.61423" lon="6.38641">
        <ele>595.8</ele>
        <time>2022-03-02T13:36:58.000Z</time>
      </trkpt>
      <trkpt lat="43.61428" lon="6.38642">
        <ele>596.1</ele>
        <time>2022-03-02T13:37:03.000Z</time>
      </trkpt>
      <trkpt lat="43.61433" lon="6.38644">
        <ele>596.7</ele>
        <time>2022-03-02T13:37:08.000Z</time>
      </trkpt>
      <trkpt lat="43.61438" lon="6.38645">
        <ele>597</ele>
        <time>2022-03-02T13:37:12.000Z</time>
      </trkpt>
      <trkpt lat="43.61443" lon="6.38646">
        <ele>597.3</ele>
        <time>2022-03-02T13:37:17.000Z</time>
      </trkpt>
      <trkpt lat="43.61448" lon="6.38648">
        <ele>597.8</ele>
        <time>2022-03-02T13:37:21.000Z</time>
      </trkpt>
      <trkpt lat="43.61452" lon="6.38649">
        <ele>598.3</ele>
        <time>2022-03-02T13:37:25.000Z</time>
      </trkpt>
      <trkpt lat="43.61457" lon="6.38651">
        <ele>598.9</ele>
        <time>2022-03-02T13:37:29.000Z</time>
      </trkpt>
      <trkpt lat="43.61461" lon="6.38653">
        <ele>599.5</ele>
        <time>2022-03-02T13:37:33.000Z</time>
      </trkpt>
      <trkpt lat="43.61466" lon="6.38654">
        <ele>599.8</ele>
        <time>2022-03-02T13:37:37.000Z</time>
      </trkpt>
      <trkpt lat="43.61471" lon="6.38655">
        <ele>600.3</ele>
        <time>2022-03-02T13:37:41.000Z</time>
      </trkpt>
      <trkpt lat="43.61476" lon="6.38656">
        <ele>600.9</ele>
        <time>2022-03-02T13:37:45.000Z</time>
      </trkpt>
      <trkpt lat="43.61481" lon="6.38656">
        <ele>601.3</ele>
        <time>2022-03-02T13:37:49.000Z</time>
      </trkpt>
      <trkpt lat="43.61486" lon="6.38657">
        <ele>601.6</ele>
        <time>2022-03-02T13:37:53.000Z</time>
      </trkpt>
      <trkpt lat="43.61491" lon="6.38658">
        <ele>602.2</ele>
        <time>2022-03-02T13:37:58.000Z</time>
      </trkpt>
      <trkpt lat="43.61496" lon="6.38659">
        <ele>602.7</ele>
        <time>2022-03-02T13:38:02.000Z</time>
      </trkpt>
      <trkpt lat="43.61501" lon="6.3866">
        <ele>603.1</ele>
        <time>2022-03-02T13:38:06.000Z</time>
      </trkpt>
      <trkpt lat="43.61505" lon="6.3866">
        <ele>603.6</ele>
        <time>2022-03-02T13:38:10.000Z</time>
      </trkpt>
      <trkpt lat="43.6151" lon="6.38661">
        <ele>604.2</ele>
        <time>2022-03-02T13:38:15.000Z</time>
      </trkpt>
      <trkpt lat="43.61516" lon="6.38662">
        <ele>605.5</ele>
        <time>2022-03-02T13:38:21.000Z</time>
      </trkpt>
      <trkpt lat="43.6152" lon="6.38661">
        <ele>606.3</ele>
        <time>2022-03-02T13:38:26.000Z</time>
      </trkpt>
      <trkpt lat="43.61526" lon="6.38662">
        <ele>607.1</ele>
        <time>2022-03-02T13:38:32.000Z</time>
      </trkpt>
      <trkpt lat="43.61531" lon="6.38662">
        <ele>607.8</ele>
        <time>2022-03-02T13:38:38.000Z</time>
      </trkpt>
      <trkpt lat="43.61536" lon="6.38662">
        <ele>608.4</ele>
        <time>2022-03-02T13:38:43.000Z</time>
      </trkpt>
      <trkpt lat="43.61541" lon="6.3866">
        <ele>609</ele>
        <time>2022-03-02T13:38:48.000Z</time>
      </trkpt>
      <trkpt lat="43.61545" lon="6.3866">
        <ele>609.9</ele>
        <time>2022-03-02T13:38:53.000Z</time>
      </trkpt>
      <trkpt lat="43.6155" lon="6.3866">
        <ele>610.9</ele>
        <time>2022-03-02T13:38:58.000Z</time>
      </trkpt>
      <trkpt lat="43.61555" lon="6.38661">
        <ele>612</ele>
        <time>2022-03-02T13:39:04.000Z</time>
      </trkpt>
      <trkpt lat="43.61559" lon="6.38665">
        <ele>613.4</ele>
        <time>2022-03-02T13:39:11.000Z</time>
      </trkpt>
      <trkpt lat="43.61564" lon="6.38666">
        <ele>614.4</ele>
        <time>2022-03-02T13:39:16.000Z</time>
      </trkpt>
      <trkpt lat="43.61569" lon="6.38665">
        <ele>614.9</ele>
        <time>2022-03-02T13:39:19.000Z</time>
      </trkpt>
      <trkpt lat="43.61574" lon="6.38665">
        <ele>615.8</ele>
        <time>2022-03-02T13:39:23.000Z</time>
      </trkpt>
      <trkpt lat="43.61579" lon="6.38665">
        <ele>616.9</ele>
        <time>2022-03-02T13:39:28.000Z</time>
      </trkpt>
      <trkpt lat="43.61584" lon="6.38665">
        <ele>617.8</ele>
        <time>2022-03-02T13:39:33.000Z</time>
      </trkpt>
      <trkpt lat="43.61588" lon="6.38669">
        <ele>619</ele>
        <time>2022-03-02T13:39:40.000Z</time>
      </trkpt>
      <trkpt lat="43.61592" lon="6.38672">
        <ele>620.1</ele>
        <time>2022-03-02T13:39:45.000Z</time>
      </trkpt>
      <trkpt lat="43.61597" lon="6.38674">
        <ele>621.1</ele>
        <time>2022-03-02T13:39:51.000Z</time>
      </trkpt>
      <trkpt lat="43.61601" lon="6.38674">
        <ele>622.1</ele>
        <time>2022-03-02T13:39:56.000Z</time>
      </trkpt>
      <trkpt lat="43.61606" lon="6.38673">
        <ele>623.1</ele>
        <time>2022-03-02T13:40:01.000Z</time>
      </trkpt>
      <trkpt lat="43.6161" lon="6.38672">
        <ele>624</ele>
        <time>2022-03-02T13:40:06.000Z</time>
      </trkpt>
      <trkpt lat="43.61615" lon="6.38673">
        <ele>624.8</ele>
        <time>2022-03-02T13:40:11.000Z</time>
      </trkpt>
      <trkpt lat="43.6162" lon="6.38676">
        <ele>625.6</ele>
        <time>2022-03-02T13:40:17.000Z</time>
      </trkpt>
      <trkpt lat="43.61624" lon="6.3868">
        <ele>626.5</ele>
        <time>2022-03-02T13:40:23.000Z</time>
      </trkpt>
      <trkpt lat="43.61628" lon="6.38685">
        <ele>627.4</ele>
        <time>2022-03-02T13:40:31.000Z</time>
      </trkpt>
      <trkpt lat="43.61633" lon="6.38689">
        <ele>627.9</ele>
        <time>2022-03-02T13:40:35.000Z</time>
      </trkpt>
      <trkpt lat="43.61638" lon="6.38693">
        <ele>628.8</ele>
        <time>2022-03-02T13:40:40.000Z</time>
      </trkpt>
      <trkpt lat="43.61642" lon="6.38699">
        <ele>629.1</ele>
        <time>2022-03-02T13:40:44.000Z</time>
      </trkpt>
      <trkpt lat="43.61647" lon="6.38703">
        <ele>629.7</ele>
        <time>2022-03-02T13:40:48.000Z</time>
      </trkpt>
      <trkpt lat="43.61651" lon="6.38708">
        <ele>630.4</ele>
        <time>2022-03-02T13:40:53.000Z</time>
      </trkpt>
      <trkpt lat="43.61655" lon="6.38713">
        <ele>631</ele>
        <time>2022-03-02T13:40:57.000Z</time>
      </trkpt>
      <trkpt lat="43.61659" lon="6.38717">
        <ele>631.3</ele>
        <time>2022-03-02T13:41:01.000Z</time>
      </trkpt>
      <trkpt lat="43.61663" lon="6.3872">
        <ele>631.6</ele>
        <time>2022-03-02T13:41:05.000Z</time>
      </trkpt>
      <trkpt lat="43.61667" lon="6.38722">
        <ele>632.1</ele>
        <time>2022-03-02T13:41:09.000Z</time>
      </trkpt>
      <trkpt lat="43.61672" lon="6.38723">
        <ele>632.6</ele>
        <time>2022-03-02T13:41:13.000Z</time>
      </trkpt>
      <trkpt lat="43.61677" lon="6.38725">
        <ele>633.3</ele>
        <time>2022-03-02T13:41:17.000Z</time>
      </trkpt>
      <trkpt lat="43.61682" lon="6.38727">
        <ele>633.9</ele>
        <time>2022-03-02T13:41:22.000Z</time>
      </trkpt>
      <trkpt lat="43.61687" lon="6.38729">
        <ele>634.7</ele>
        <time>2022-03-02T13:41:27.000Z</time>
      </trkpt>
      <trkpt lat="43.61692" lon="6.38732">
        <ele>635.7</ele>
        <time>2022-03-02T13:41:33.000Z</time>
      </trkpt>
      <trkpt lat="43.61696" lon="6.38733">
        <ele>636.6</ele>
        <time>2022-03-02T13:41:38.000Z</time>
      </trkpt>
      <trkpt lat="43.61701" lon="6.38733">
        <ele>637.1</ele>
        <time>2022-03-02T13:41:42.000Z</time>
      </trkpt>
      <trkpt lat="43.61706" lon="6.38733">
        <ele>638.3</ele>
        <time>2022-03-02T13:41:49.000Z</time>
      </trkpt>
      <trkpt lat="43.61709" lon="6.38738">
        <ele>639.1</ele>
        <time>2022-03-02T13:41:54.000Z</time>
      </trkpt>
      <trkpt lat="43.61712" lon="6.38744">
        <ele>639.7</ele>
        <time>2022-03-02T13:41:59.000Z</time>
      </trkpt>
      <trkpt lat="43.61716" lon="6.38749">
        <ele>640.2</ele>
        <time>2022-03-02T13:42:04.000Z</time>
      </trkpt>
      <trkpt lat="43.6172" lon="6.38746">
        <ele>640.9</ele>
        <time>2022-03-02T13:42:11.000Z</time>
      </trkpt>
      <trkpt lat="43.61721" lon="6.38739">
        <ele>642.3</ele>
        <time>2022-03-02T13:42:22.000Z</time>
      </trkpt>
      <trkpt lat="43.61722" lon="6.38732">
        <ele>643.5</ele>
        <time>2022-03-02T13:42:32.000Z</time>
      </trkpt>
      <trkpt lat="43.61723" lon="6.38726">
        <ele>644.3</ele>
        <time>2022-03-02T13:42:39.000Z</time>
      </trkpt>
      <trkpt lat="43.61725" lon="6.38719">
        <ele>645.3</ele>
        <time>2022-03-02T13:42:45.000Z</time>
      </trkpt>
      <trkpt lat="43.61728" lon="6.38713">
        <ele>646.1</ele>
        <time>2022-03-02T13:42:50.000Z</time>
      </trkpt>
      <trkpt lat="43.61728" lon="6.38706">
        <ele>648</ele>
        <time>2022-03-02T13:43:00.000Z</time>
      </trkpt>
      <trkpt lat="43.61729" lon="6.387">
        <ele>649.1</ele>
        <time>2022-03-02T13:43:06.000Z</time>
      </trkpt>
      <trkpt lat="43.6173" lon="6.38693">
        <ele>650.1</ele>
        <time>2022-03-02T13:43:13.000Z</time>
      </trkpt>
      <trkpt lat="43.6173" lon="6.38687">
        <ele>651</ele>
        <time>2022-03-02T13:43:18.000Z</time>
      </trkpt>
      <trkpt lat="43.61728" lon="6.38681">
        <ele>651.8</ele>
        <time>2022-03-02T13:43:23.000Z</time>
      </trkpt>
      <trkpt lat="43.61723" lon="6.38678">
        <ele>653.2</ele>
        <time>2022-03-02T13:43:30.000Z</time>
      </trkpt>
      <trkpt lat="43.61719" lon="6.38675">
        <ele>654.2</ele>
        <time>2022-03-02T13:43:36.000Z</time>
      </trkpt>
      <trkpt lat="43.61714" lon="6.38673">
        <ele>655</ele>
        <time>2022-03-02T13:43:41.000Z</time>
      </trkpt>
      <trkpt lat="43.6171" lon="6.38671">
        <ele>655.9</ele>
        <time>2022-03-02T13:43:46.000Z</time>
      </trkpt>
      <trkpt lat="43.61705" lon="6.38668">
        <ele>656.8</ele>
        <time>2022-03-02T13:43:53.000Z</time>
      </trkpt>
      <trkpt lat="43.61702" lon="6.38663">
        <ele>657.4</ele>
        <time>2022-03-02T13:43:59.000Z</time>
      </trkpt>
      <trkpt lat="43.61698" lon="6.38661">
        <ele>658.2</ele>
        <time>2022-03-02T13:44:06.000Z</time>
      </trkpt>
      <trkpt lat="43.61696" lon="6.38654">
        <ele>659.3</ele>
        <time>2022-03-02T13:44:17.000Z</time>
      </trkpt>
      <trkpt lat="43.61694" lon="6.38649">
        <ele>660.2</ele>
        <time>2022-03-02T13:44:35.000Z</time>
      </trkpt>
      <trkpt lat="43.61691" lon="6.38644">
        <ele>660.2</ele>
        <time>2022-03-02T13:45:28.000Z</time>
      </trkpt>
      <trkpt lat="43.61687" lon="6.38641">
        <ele>660.4</ele>
        <time>2022-03-02T13:46:24.000Z</time>
      </trkpt>
      <trkpt lat="43.61682" lon="6.38639">
        <ele>661</ele>
        <time>2022-03-02T13:48:13.000Z</time>
      </trkpt>
      <trkpt lat="43.6168" lon="6.38633">
        <ele>661.6</ele>
        <time>2022-03-02T13:48:22.000Z</time>
      </trkpt>
      <trkpt lat="43.61679" lon="6.38627">
        <ele>662</ele>
        <time>2022-03-02T13:48:30.000Z</time>
      </trkpt>
      <trkpt lat="43.61675" lon="6.38621">
        <ele>662.2</ele>
        <time>2022-03-02T13:48:38.000Z</time>
      </trkpt>
      <trkpt lat="43.61672" lon="6.38616">
        <ele>662.6</ele>
        <time>2022-03-02T13:48:45.000Z</time>
      </trkpt>
      <trkpt lat="43.61668" lon="6.38613">
        <ele>662.7</ele>
        <time>2022-03-02T13:48:49.000Z</time>
      </trkpt>
      <trkpt lat="43.61665" lon="6.38607">
        <ele>663</ele>
        <time>2022-03-02T13:48:54.000Z</time>
      </trkpt>
      <trkpt lat="43.61663" lon="6.38601">
        <ele>663.5</ele>
        <time>2022-03-02T13:49:00.000Z</time>
      </trkpt>
      <trkpt lat="43.61662" lon="6.38594">
        <ele>663.8</ele>
        <time>2022-03-02T13:49:06.000Z</time>
      </trkpt>
      <trkpt lat="43.61661" lon="6.38587">
        <ele>664.1</ele>
        <time>2022-03-02T13:49:11.000Z</time>
      </trkpt>
      <trkpt lat="43.61658" lon="6.38582">
        <ele>664.4</ele>
        <time>2022-03-02T13:49:16.000Z</time>
      </trkpt>
      <trkpt lat="43.61656" lon="6.38576">
        <ele>664.7</ele>
        <time>2022-03-02T13:49:22.000Z</time>
      </trkpt>
      <trkpt lat="43.61653" lon="6.3857">
        <ele>665</ele>
        <time>2022-03-02T13:49:27.000Z</time>
      </trkpt>
      <trkpt lat="43.6165" lon="6.38564">
        <ele>665.2</ele>
        <time>2022-03-02T13:49:32.000Z</time>
      </trkpt>
      <trkpt lat="43.61647" lon="6.38559">
        <ele>665.6</ele>
        <time>2022-03-02T13:49:37.000Z</time>
      </trkpt>
      <trkpt lat="43.61643" lon="6.38554">
        <ele>665.9</ele>
        <time>2022-03-02T13:49:41.000Z</time>
      </trkpt>
      <trkpt lat="43.61642" lon="6.38548">
        <ele>666.1</ele>
        <time>2022-03-02T13:49:45.000Z</time>
      </trkpt>
      <trkpt lat="43.6164" lon="6.38542">
        <ele>666.4</ele>
        <time>2022-03-02T13:49:50.000Z</time>
      </trkpt>
      <trkpt lat="43.61642" lon="6.38536">
        <ele>666.9</ele>
        <time>2022-03-02T13:49:56.000Z</time>
      </trkpt>
      <trkpt lat="43.61645" lon="6.38528">
        <ele>667.1</ele>
        <time>2022-03-02T13:50:01.000Z</time>
      </trkpt>
      <trkpt lat="43.61647" lon="6.38523">
        <ele>667.3</ele>
        <time>2022-03-02T13:50:04.000Z</time>
      </trkpt>
      <trkpt lat="43.61649" lon="6.38517">
        <ele>668</ele>
        <time>2022-03-02T13:50:09.000Z</time>
      </trkpt>
      <trkpt lat="43.61651" lon="6.3851">
        <ele>668.5</ele>
        <time>2022-03-02T13:50:15.000Z</time>
      </trkpt>
      <trkpt lat="43.6165" lon="6.38504">
        <ele>669.2</ele>
        <time>2022-03-02T13:50:21.000Z</time>
      </trkpt>
      <trkpt lat="43.6165" lon="6.38496">
        <ele>669.8</ele>
        <time>2022-03-02T13:50:28.000Z</time>
      </trkpt>
      <trkpt lat="43.6165" lon="6.38489">
        <ele>670.3</ele>
        <time>2022-03-02T13:50:34.000Z</time>
      </trkpt>
      <trkpt lat="43.61648" lon="6.38482">
        <ele>670.5</ele>
        <time>2022-03-02T13:50:40.000Z</time>
      </trkpt>
      <trkpt lat="43.61646" lon="6.38476">
        <ele>670.7</ele>
        <time>2022-03-02T13:50:45.000Z</time>
      </trkpt>
      <trkpt lat="43.61642" lon="6.38471">
        <ele>670.9</ele>
        <time>2022-03-02T13:50:51.000Z</time>
      </trkpt>
      <trkpt lat="43.61639" lon="6.38465">
        <ele>670.8</ele>
        <time>2022-03-02T13:50:57.000Z</time>
      </trkpt>
      <trkpt lat="43.61636" lon="6.38459">
        <ele>670.9</ele>
        <time>2022-03-02T13:51:03.000Z</time>
      </trkpt>
      <trkpt lat="43.61633" lon="6.38454">
        <ele>670.8</ele>
        <time>2022-03-02T13:51:08.000Z</time>
      </trkpt>
      <trkpt lat="43.61632" lon="6.38446">
        <ele>670.8</ele>
        <time>2022-03-02T13:51:13.000Z</time>
      </trkpt>
      <trkpt lat="43.61633" lon="6.3844">
        <ele>670.8</ele>
        <time>2022-03-02T13:51:17.000Z</time>
      </trkpt>
      <trkpt lat="43.61631" lon="6.38433">
        <ele>670.9</ele>
        <time>2022-03-02T13:51:22.000Z</time>
      </trkpt>
      <trkpt lat="43.6163" lon="6.38426">
        <ele>670.9</ele>
        <time>2022-03-02T13:51:27.000Z</time>
      </trkpt>
      <trkpt lat="43.61628" lon="6.3842">
        <ele>670.9</ele>
        <time>2022-03-02T13:51:32.000Z</time>
      </trkpt>
      <trkpt lat="43.61628" lon="6.38413">
        <ele>671</ele>
        <time>2022-03-02T13:51:36.000Z</time>
      </trkpt>
      <trkpt lat="43.61626" lon="6.38406">
        <ele>671.1</ele>
        <time>2022-03-02T13:51:42.000Z</time>
      </trkpt>
      <trkpt lat="43.61622" lon="6.38403">
        <ele>671.2</ele>
        <time>2022-03-02T13:51:46.000Z</time>
      </trkpt>
      <trkpt lat="43.61617" lon="6.38401">
        <ele>671.1</ele>
        <time>2022-03-02T13:51:50.000Z</time>
      </trkpt>
      <trkpt lat="43.61613" lon="6.38395">
        <ele>671</ele>
        <time>2022-03-02T13:51:55.000Z</time>
      </trkpt>
      <trkpt lat="43.6161" lon="6.38389">
        <ele>670.9</ele>
        <time>2022-03-02T13:51:59.000Z</time>
      </trkpt>
      <trkpt lat="43.61606" lon="6.38385">
        <ele>670.9</ele>
        <time>2022-03-02T13:52:03.000Z</time>
      </trkpt>
      <trkpt lat="43.61604" lon="6.38379">
        <ele>670.9</ele>
        <time>2022-03-02T13:52:07.000Z</time>
      </trkpt>
      <trkpt lat="43.61603" lon="6.38372">
        <ele>670.8</ele>
        <time>2022-03-02T13:52:11.000Z</time>
      </trkpt>
      <trkpt lat="43.61602" lon="6.38365">
        <ele>670.9</ele>
        <time>2022-03-02T13:52:16.000Z</time>
      </trkpt>
      <trkpt lat="43.61601" lon="6.38359">
        <ele>670.8</ele>
        <time>2022-03-02T13:52:20.000Z</time>
      </trkpt>
      <trkpt lat="43.616" lon="6.38352">
        <ele>670.6</ele>
        <time>2022-03-02T13:52:25.000Z</time>
      </trkpt>
      <trkpt lat="43.61596" lon="6.38347">
        <ele>670.6</ele>
        <time>2022-03-02T13:52:29.000Z</time>
      </trkpt>
      <trkpt lat="43.61594" lon="6.38342">
        <ele>670.6</ele>
        <time>2022-03-02T13:52:33.000Z</time>
      </trkpt>
      <trkpt lat="43.61591" lon="6.38337">
        <ele>670.4</ele>
        <time>2022-03-02T13:52:38.000Z</time>
      </trkpt>
      <trkpt lat="43.61587" lon="6.38332">
        <ele>670.2</ele>
        <time>2022-03-02T13:52:43.000Z</time>
      </trkpt>
      <trkpt lat="43.61583" lon="6.38326">
        <ele>670.1</ele>
        <time>2022-03-02T13:52:48.000Z</time>
      </trkpt>
      <trkpt lat="43.61579" lon="6.38322">
        <ele>669.9</ele>
        <time>2022-03-02T13:52:53.000Z</time>
      </trkpt>
      <trkpt lat="43.61576" lon="6.38318">
        <ele>670.1</ele>
        <time>2022-03-02T13:53:02.000Z</time>
      </trkpt>
      <trkpt lat="43.61571" lon="6.38317">
        <ele>670</ele>
        <time>2022-03-02T13:53:09.000Z</time>
      </trkpt>
      <trkpt lat="43.61566" lon="6.38315">
        <ele>669.9</ele>
        <time>2022-03-02T13:53:15.000Z</time>
      </trkpt>
      <trkpt lat="43.61561" lon="6.38312">
        <ele>669.7</ele>
        <time>2022-03-02T13:53:21.000Z</time>
      </trkpt>
      <trkpt lat="43.61557" lon="6.38311">
        <ele>669.4</ele>
        <time>2022-03-02T13:53:25.000Z</time>
      </trkpt>
      <trkpt lat="43.61552" lon="6.3831">
        <ele>669.4</ele>
        <time>2022-03-02T13:53:29.000Z</time>
      </trkpt>
      <trkpt lat="43.61548" lon="6.38305">
        <ele>669.2</ele>
        <time>2022-03-02T13:53:36.000Z</time>
      </trkpt>
      <trkpt lat="43.61544" lon="6.383">
        <ele>669</ele>
        <time>2022-03-02T13:53:42.000Z</time>
      </trkpt>
      <trkpt lat="43.6154" lon="6.38297">
        <ele>668.8</ele>
        <time>2022-03-02T13:53:47.000Z</time>
      </trkpt>
      <trkpt lat="43.61536" lon="6.38293">
        <ele>668.3</ele>
        <time>2022-03-02T13:53:53.000Z</time>
      </trkpt>
      <trkpt lat="43.61533" lon="6.38289">
        <ele>668.1</ele>
        <time>2022-03-02T13:53:57.000Z</time>
      </trkpt>
      <trkpt lat="43.61528" lon="6.38285">
        <ele>667.9</ele>
        <time>2022-03-02T13:54:02.000Z</time>
      </trkpt>
      <trkpt lat="43.61524" lon="6.38281">
        <ele>667.8</ele>
        <time>2022-03-02T13:54:06.000Z</time>
      </trkpt>
      <trkpt lat="43.61519" lon="6.38277">
        <ele>667.7</ele>
        <time>2022-03-02T13:54:11.000Z</time>
      </trkpt>
      <trkpt lat="43.61515" lon="6.38274">
        <ele>667.6</ele>
        <time>2022-03-02T13:54:16.000Z</time>
      </trkpt>
      <trkpt lat="43.61511" lon="6.38271">
        <ele>667.6</ele>
        <time>2022-03-02T13:54:21.000Z</time>
      </trkpt>
      <trkpt lat="43.61506" lon="6.38269">
        <ele>667.3</ele>
        <time>2022-03-02T13:54:27.000Z</time>
      </trkpt>
      <trkpt lat="43.61501" lon="6.38267">
        <ele>666.9</ele>
        <time>2022-03-02T13:54:31.000Z</time>
      </trkpt>
      <trkpt lat="43.61498" lon="6.38262">
        <ele>666.6</ele>
        <time>2022-03-02T13:54:36.000Z</time>
      </trkpt>
      <trkpt lat="43.61495" lon="6.38255">
        <ele>666.4</ele>
        <time>2022-03-02T13:54:41.000Z</time>
      </trkpt>
      <trkpt lat="43.61492" lon="6.3825">
        <ele>666.2</ele>
        <time>2022-03-02T13:54:46.000Z</time>
      </trkpt>
      <trkpt lat="43.61487" lon="6.38246">
        <ele>666.3</ele>
        <time>2022-03-02T13:54:52.000Z</time>
      </trkpt>
      <trkpt lat="43.61483" lon="6.38244">
        <ele>666</ele>
        <time>2022-03-02T13:54:57.000Z</time>
      </trkpt>
      <trkpt lat="43.61478" lon="6.38242">
        <ele>665.8</ele>
        <time>2022-03-02T13:55:03.000Z</time>
      </trkpt>
      <trkpt lat="43.61473" lon="6.38242">
        <ele>665.7</ele>
        <time>2022-03-02T13:55:09.000Z</time>
      </trkpt>
      <trkpt lat="43.61468" lon="6.38243">
        <ele>665.6</ele>
        <time>2022-03-02T13:55:13.000Z</time>
      </trkpt>
      <trkpt lat="43.61463" lon="6.38243">
        <ele>665.5</ele>
        <time>2022-03-02T13:55:18.000Z</time>
      </trkpt>
      <trkpt lat="43.61458" lon="6.38244">
        <ele>665.2</ele>
        <time>2022-03-02T13:55:24.000Z</time>
      </trkpt>
      <trkpt lat="43.61453" lon="6.38243">
        <ele>665</ele>
        <time>2022-03-02T13:55:32.000Z</time>
      </trkpt>
      <trkpt lat="43.61448" lon="6.38245">
        <ele>665</ele>
        <time>2022-03-02T13:55:39.000Z</time>
      </trkpt>
      <trkpt lat="43.61444" lon="6.38247">
        <ele>664.6</ele>
        <time>2022-03-02T13:55:46.000Z</time>
      </trkpt>
      <trkpt lat="43.6144" lon="6.38253">
        <ele>664.4</ele>
        <time>2022-03-02T13:55:52.000Z</time>
      </trkpt>
      <trkpt lat="43.61436" lon="6.38256">
        <ele>664.5</ele>
        <time>2022-03-02T13:55:58.000Z</time>
      </trkpt>
      <trkpt lat="43.61432" lon="6.3826">
        <ele>664.4</ele>
        <time>2022-03-02T13:56:06.000Z</time>
      </trkpt>
      <trkpt lat="43.61428" lon="6.38263">
        <ele>664</ele>
        <time>2022-03-02T13:56:12.000Z</time>
      </trkpt>
      <trkpt lat="43.61424" lon="6.38268">
        <ele>663.6</ele>
        <time>2022-03-02T13:56:18.000Z</time>
      </trkpt>
      <trkpt lat="43.61421" lon="6.38273">
        <ele>663.1</ele>
        <time>2022-03-02T13:56:24.000Z</time>
      </trkpt>
      <trkpt lat="43.61417" lon="6.38277">
        <ele>662.6</ele>
        <time>2022-03-02T13:56:29.000Z</time>
      </trkpt>
      <trkpt lat="43.61414" lon="6.38282">
        <ele>662.3</ele>
        <time>2022-03-02T13:56:35.000Z</time>
      </trkpt>
      <trkpt lat="43.6141" lon="6.38287">
        <ele>662</ele>
        <time>2022-03-02T13:56:41.000Z</time>
      </trkpt>
      <trkpt lat="43.61407" lon="6.38292">
        <ele>661.7</ele>
        <time>2022-03-02T13:56:46.000Z</time>
      </trkpt>
      <trkpt lat="43.61405" lon="6.38298">
        <ele>661</ele>
        <time>2022-03-02T13:56:54.000Z</time>
      </trkpt>
      <trkpt lat="43.61408" lon="6.38303">
        <ele>660.6</ele>
        <time>2022-03-02T13:57:05.000Z</time>
      </trkpt>
      <trkpt lat="43.61405" lon="6.38298">
        <ele>660.9</ele>
        <time>2022-03-02T14:00:15.000Z</time>
      </trkpt>
      <trkpt lat="43.61408" lon="6.38292">
        <ele>660.7</ele>
        <time>2022-03-02T14:00:26.000Z</time>
      </trkpt>
      <trkpt lat="43.61411" lon="6.38288">
        <ele>660.7</ele>
        <time>2022-03-02T14:00:34.000Z</time>
      </trkpt>
      <trkpt lat="43.61414" lon="6.38283">
        <ele>661.3</ele>
        <time>2022-03-02T14:00:41.000Z</time>
      </trkpt>
      <trkpt lat="43.61416" lon="6.38278">
        <ele>662.1</ele>
        <time>2022-03-02T14:00:50.000Z</time>
      </trkpt>
      <trkpt lat="43.6142" lon="6.38273">
        <ele>662.8</ele>
        <time>2022-03-02T14:00:58.000Z</time>
      </trkpt>
      <trkpt lat="43.61423" lon="6.38268">
        <ele>663.1</ele>
        <time>2022-03-02T14:01:05.000Z</time>
      </trkpt>
      <trkpt lat="43.61427" lon="6.38265">
        <ele>663.4</ele>
        <time>2022-03-02T14:01:11.000Z</time>
      </trkpt>
      <trkpt lat="43.61429" lon="6.38259">
        <ele>663.9</ele>
        <time>2022-03-02T14:01:17.000Z</time>
      </trkpt>
      <trkpt lat="43.61433" lon="6.38254">
        <ele>664.1</ele>
        <time>2022-03-02T14:01:22.000Z</time>
      </trkpt>
      <trkpt lat="43.61436" lon="6.38249">
        <ele>664.3</ele>
        <time>2022-03-02T14:01:27.000Z</time>
      </trkpt>
      <trkpt lat="43.6144" lon="6.38247">
        <ele>664.5</ele>
        <time>2022-03-02T14:01:34.000Z</time>
      </trkpt>
      <trkpt lat="43.61445" lon="6.38246">
        <ele>664.7</ele>
        <time>2022-03-02T14:01:40.000Z</time>
      </trkpt>
      <trkpt lat="43.6145" lon="6.38245">
        <ele>665</ele>
        <time>2022-03-02T14:01:48.000Z</time>
      </trkpt>
      <trkpt lat="43.61455" lon="6.38243">
        <ele>665.2</ele>
        <time>2022-03-02T14:01:52.000Z</time>
      </trkpt>
      <trkpt lat="43.61459" lon="6.38241">
        <ele>665.4</ele>
        <time>2022-03-02T14:01:57.000Z</time>
      </trkpt>
      <trkpt lat="43.61464" lon="6.38239">
        <ele>665.5</ele>
        <time>2022-03-02T14:02:01.000Z</time>
      </trkpt>
      <trkpt lat="43.61469" lon="6.38239">
        <ele>665.9</ele>
        <time>2022-03-02T14:02:08.000Z</time>
      </trkpt>
      <trkpt lat="43.61473" lon="6.38241">
        <ele>666.3</ele>
        <time>2022-03-02T14:02:14.000Z</time>
      </trkpt>
      <trkpt lat="43.61477" lon="6.38244">
        <ele>666.4</ele>
        <time>2022-03-02T14:02:19.000Z</time>
      </trkpt>
      <trkpt lat="43.61481" lon="6.38247">
        <ele>666.4</ele>
        <time>2022-03-02T14:02:24.000Z</time>
      </trkpt>
      <trkpt lat="43.61485" lon="6.38251">
        <ele>666.5</ele>
        <time>2022-03-02T14:02:30.000Z</time>
      </trkpt>
      <trkpt lat="43.61489" lon="6.38255">
        <ele>666.5</ele>
        <time>2022-03-02T14:02:35.000Z</time>
      </trkpt>
      <trkpt lat="43.61493" lon="6.38259">
        <ele>666.5</ele>
        <time>2022-03-02T14:02:40.000Z</time>
      </trkpt>
      <trkpt lat="43.61498" lon="6.38262">
        <ele>666.9</ele>
        <time>2022-03-02T14:02:46.000Z</time>
      </trkpt>
      <trkpt lat="43.61503" lon="6.38265">
        <ele>667.1</ele>
        <time>2022-03-02T14:02:50.000Z</time>
      </trkpt>
      <trkpt lat="43.61507" lon="6.38267">
        <ele>667.3</ele>
        <time>2022-03-02T14:02:55.000Z</time>
      </trkpt>
      <trkpt lat="43.61512" lon="6.3827">
        <ele>667.4</ele>
        <time>2022-03-02T14:03:00.000Z</time>
      </trkpt>
      <trkpt lat="43.61516" lon="6.38274">
        <ele>667.5</ele>
        <time>2022-03-02T14:03:05.000Z</time>
      </trkpt>
      <trkpt lat="43.6152" lon="6.38279">
        <ele>667.9</ele>
        <time>2022-03-02T14:03:13.000Z</time>
      </trkpt>
      <trkpt lat="43.61524" lon="6.38283">
        <ele>668.1</ele>
        <time>2022-03-02T14:03:17.000Z</time>
      </trkpt>
      <trkpt lat="43.61527" lon="6.38287">
        <ele>668.4</ele>
        <time>2022-03-02T14:03:23.000Z</time>
      </trkpt>
      <trkpt lat="43.61531" lon="6.38292">
        <ele>668.5</ele>
        <time>2022-03-02T14:03:28.000Z</time>
      </trkpt>
      <trkpt lat="43.61535" lon="6.38296">
        <ele>668.6</ele>
        <time>2022-03-02T14:03:33.000Z</time>
      </trkpt>
      <trkpt lat="43.6154" lon="6.38299">
        <ele>668.8</ele>
        <time>2022-03-02T14:03:38.000Z</time>
      </trkpt>
      <trkpt lat="43.61545" lon="6.38302">
        <ele>669</ele>
        <time>2022-03-02T14:03:43.000Z</time>
      </trkpt>
      <trkpt lat="43.6155" lon="6.38304">
        <ele>669.2</ele>
        <time>2022-03-02T14:03:49.000Z</time>
      </trkpt>
      <trkpt lat="43.61554" lon="6.38306">
        <ele>669.4</ele>
        <time>2022-03-02T14:03:54.000Z</time>
      </trkpt>
      <trkpt lat="43.6156" lon="6.38309">
        <ele>669.5</ele>
        <time>2022-03-02T14:03:59.000Z</time>
      </trkpt>
      <trkpt lat="43.61564" lon="6.38309">
        <ele>669.6</ele>
        <time>2022-03-02T14:04:03.000Z</time>
      </trkpt>
      <trkpt lat="43.61569" lon="6.38311">
        <ele>669.7</ele>
        <time>2022-03-02T14:04:07.000Z</time>
      </trkpt>
      <trkpt lat="43.61573" lon="6.38315">
        <ele>669.9</ele>
        <time>2022-03-02T14:04:13.000Z</time>
      </trkpt>
      <trkpt lat="43.61576" lon="6.3832">
        <ele>670</ele>
        <time>2022-03-02T14:04:18.000Z</time>
      </trkpt>
      <trkpt lat="43.61579" lon="6.38325">
        <ele>670.1</ele>
        <time>2022-03-02T14:04:23.000Z</time>
      </trkpt>
      <trkpt lat="43.61583" lon="6.38329">
        <ele>670.4</ele>
        <time>2022-03-02T14:04:28.000Z</time>
      </trkpt>
      <trkpt lat="43.61585" lon="6.38336">
        <ele>670.7</ele>
        <time>2022-03-02T14:04:34.000Z</time>
      </trkpt>
      <trkpt lat="43.61587" lon="6.38342">
        <ele>670.9</ele>
        <time>2022-03-02T14:04:39.000Z</time>
      </trkpt>
      <trkpt lat="43.61589" lon="6.3835">
        <ele>671</ele>
        <time>2022-03-02T14:04:44.000Z</time>
      </trkpt>
      <trkpt lat="43.61591" lon="6.38356">
        <ele>671.1</ele>
        <time>2022-03-02T14:04:48.000Z</time>
      </trkpt>
      <trkpt lat="43.61593" lon="6.38362">
        <ele>671.2</ele>
        <time>2022-03-02T14:04:52.000Z</time>
      </trkpt>
      <trkpt lat="43.61595" lon="6.38367">
        <ele>671.4</ele>
        <time>2022-03-02T14:04:56.000Z</time>
      </trkpt>
      <trkpt lat="43.61598" lon="6.38373">
        <ele>671.6</ele>
        <time>2022-03-02T14:05:00.000Z</time>
      </trkpt>
      <trkpt lat="43.616" lon="6.3838">
        <ele>671.8</ele>
        <time>2022-03-02T14:05:05.000Z</time>
      </trkpt>
      <trkpt lat="43.61604" lon="6.38385">
        <ele>671.9</ele>
        <time>2022-03-02T14:05:10.000Z</time>
      </trkpt>
      <trkpt lat="43.61608" lon="6.38388">
        <ele>672</ele>
        <time>2022-03-02T14:05:14.000Z</time>
      </trkpt>
      <trkpt lat="43.61613" lon="6.38392">
        <ele>672</ele>
        <time>2022-03-02T14:05:19.000Z</time>
      </trkpt>
      <trkpt lat="43.61617" lon="6.38395">
        <ele>672.1</ele>
        <time>2022-03-02T14:05:23.000Z</time>
      </trkpt>
      <trkpt lat="43.6162" lon="6.38399">
        <ele>672.1</ele>
        <time>2022-03-02T14:05:29.000Z</time>
      </trkpt>
      <trkpt lat="43.61624" lon="6.38404">
        <ele>672.2</ele>
        <time>2022-03-02T14:05:34.000Z</time>
      </trkpt>
      <trkpt lat="43.61628" lon="6.38407">
        <ele>672</ele>
        <time>2022-03-02T14:05:38.000Z</time>
      </trkpt>
      <trkpt lat="43.6163" lon="6.38414">
        <ele>672</ele>
        <time>2022-03-02T14:05:42.000Z</time>
      </trkpt>
      <trkpt lat="43.61635" lon="6.38417">
        <ele>672</ele>
        <time>2022-03-02T14:05:47.000Z</time>
      </trkpt>
      <trkpt lat="43.61639" lon="6.38419">
        <ele>672.3</ele>
        <time>2022-03-02T14:05:53.000Z</time>
      </trkpt>
      <trkpt lat="43.61644" lon="6.3842">
        <ele>672.7</ele>
        <time>2022-03-02T14:05:59.000Z</time>
      </trkpt>
      <trkpt lat="43.61648" lon="6.38417">
        <ele>673.1</ele>
        <time>2022-03-02T14:06:07.000Z</time>
      </trkpt>
      <trkpt lat="43.61653" lon="6.38413">
        <ele>673.3</ele>
        <time>2022-03-02T14:06:12.000Z</time>
      </trkpt>
      <trkpt lat="43.61657" lon="6.38409">
        <ele>673.6</ele>
        <time>2022-03-02T14:06:18.000Z</time>
      </trkpt>
      <trkpt lat="43.61662" lon="6.38408">
        <ele>674</ele>
        <time>2022-03-02T14:06:22.000Z</time>
      </trkpt>
      <trkpt lat="43.61666" lon="6.38406">
        <ele>674.3</ele>
        <time>2022-03-02T14:06:26.000Z</time>
      </trkpt>
      <trkpt lat="43.61671" lon="6.38404">
        <ele>674.8</ele>
        <time>2022-03-02T14:06:34.000Z</time>
      </trkpt>
      <trkpt lat="43.61676" lon="6.38403">
        <ele>675.1</ele>
        <time>2022-03-02T14:06:39.000Z</time>
      </trkpt>
      <trkpt lat="43.61681" lon="6.38402">
        <ele>675.3</ele>
        <time>2022-03-02T14:06:46.000Z</time>
      </trkpt>
      <trkpt lat="43.61686" lon="6.38404">
        <ele>675.8</ele>
        <time>2022-03-02T14:06:52.000Z</time>
      </trkpt>
      <trkpt lat="43.61691" lon="6.38405">
        <ele>676.2</ele>
        <time>2022-03-02T14:06:57.000Z</time>
      </trkpt>
      <trkpt lat="43.61696" lon="6.38407">
        <ele>676.7</ele>
        <time>2022-03-02T14:07:03.000Z</time>
      </trkpt>
      <trkpt lat="43.617" lon="6.38407">
        <ele>677</ele>
        <time>2022-03-02T14:07:08.000Z</time>
      </trkpt>
      <trkpt lat="43.61705" lon="6.38411">
        <ele>677.3</ele>
        <time>2022-03-02T14:07:14.000Z</time>
      </trkpt>
      <trkpt lat="43.6171" lon="6.38413">
        <ele>677.4</ele>
        <time>2022-03-02T14:07:19.000Z</time>
      </trkpt>
      <trkpt lat="43.61714" lon="6.38416">
        <ele>677.5</ele>
        <time>2022-03-02T14:07:24.000Z</time>
      </trkpt>
      <trkpt lat="43.6172" lon="6.38418">
        <ele>677.6</ele>
        <time>2022-03-02T14:07:30.000Z</time>
      </trkpt>
      <trkpt lat="43.61724" lon="6.38421">
        <ele>677.7</ele>
        <time>2022-03-02T14:07:35.000Z</time>
      </trkpt>
      <trkpt lat="43.61728" lon="6.38425">
        <ele>678</ele>
        <time>2022-03-02T14:07:40.000Z</time>
      </trkpt>
      <trkpt lat="43.61733" lon="6.38429">
        <ele>678.2</ele>
        <time>2022-03-02T14:07:44.000Z</time>
      </trkpt>
      <trkpt lat="43.61737" lon="6.38432">
        <ele>678.2</ele>
        <time>2022-03-02T14:07:49.000Z</time>
      </trkpt>
      <trkpt lat="43.6174" lon="6.38436">
        <ele>678.2</ele>
        <time>2022-03-02T14:07:55.000Z</time>
      </trkpt>
      <trkpt lat="43.61744" lon="6.38441">
        <ele>678.4</ele>
        <time>2022-03-02T14:08:01.000Z</time>
      </trkpt>
      <trkpt lat="43.61747" lon="6.38446">
        <ele>678.7</ele>
        <time>2022-03-02T14:08:07.000Z</time>
      </trkpt>
      <trkpt lat="43.61752" lon="6.3845">
        <ele>678.9</ele>
        <time>2022-03-02T14:08:12.000Z</time>
      </trkpt>
      <trkpt lat="43.61755" lon="6.38455">
        <ele>679.2</ele>
        <time>2022-03-02T14:08:18.000Z</time>
      </trkpt>
      <trkpt lat="43.61759" lon="6.38459">
        <ele>679.4</ele>
        <time>2022-03-02T14:08:24.000Z</time>
      </trkpt>
      <trkpt lat="43.61764" lon="6.38463">
        <ele>679.6</ele>
        <time>2022-03-02T14:08:29.000Z</time>
      </trkpt>
      <trkpt lat="43.61766" lon="6.38469">
        <ele>679.8</ele>
        <time>2022-03-02T14:08:35.000Z</time>
      </trkpt>
      <trkpt lat="43.61771" lon="6.38473">
        <ele>680.2</ele>
        <time>2022-03-02T14:08:40.000Z</time>
      </trkpt>
      <trkpt lat="43.61775" lon="6.38476">
        <ele>680.4</ele>
        <time>2022-03-02T14:08:45.000Z</time>
      </trkpt>
      <trkpt lat="43.6178" lon="6.38479">
        <ele>680.6</ele>
        <time>2022-03-02T14:08:49.000Z</time>
      </trkpt>
      <trkpt lat="43.61785" lon="6.38481">
        <ele>680.8</ele>
        <time>2022-03-02T14:08:54.000Z</time>
      </trkpt>
      <trkpt lat="43.61789" lon="6.38482">
        <ele>680.9</ele>
        <time>2022-03-02T14:08:58.000Z</time>
      </trkpt>
      <trkpt lat="43.61794" lon="6.38484">
        <ele>680.9</ele>
        <time>2022-03-02T14:09:02.000Z</time>
      </trkpt>
      <trkpt lat="43.61798" lon="6.38487">
        <ele>681</ele>
        <time>2022-03-02T14:09:07.000Z</time>
      </trkpt>
      <trkpt lat="43.61803" lon="6.38491">
        <ele>681.1</ele>
        <time>2022-03-02T14:09:12.000Z</time>
      </trkpt>
      <trkpt lat="43.61806" lon="6.38495">
        <ele>681.4</ele>
        <time>2022-03-02T14:09:17.000Z</time>
      </trkpt>
      <trkpt lat="43.6181" lon="6.385">
        <ele>681.7</ele>
        <time>2022-03-02T14:09:23.000Z</time>
      </trkpt>
      <trkpt lat="43.61815" lon="6.38503">
        <ele>682</ele>
        <time>2022-03-02T14:09:29.000Z</time>
      </trkpt>
      <trkpt lat="43.61819" lon="6.38506">
        <ele>682.2</ele>
        <time>2022-03-02T14:09:35.000Z</time>
      </trkpt>
      <trkpt lat="43.61823" lon="6.3851">
        <ele>682.4</ele>
        <time>2022-03-02T14:09:41.000Z</time>
      </trkpt>
      <trkpt lat="43.61827" lon="6.38513">
        <ele>682.8</ele>
        <time>2022-03-02T14:09:48.000Z</time>
      </trkpt>
      <trkpt lat="43.61832" lon="6.38516">
        <ele>683.1</ele>
        <time>2022-03-02T14:09:53.000Z</time>
      </trkpt>
      <trkpt lat="43.61836" lon="6.3852">
        <ele>683.5</ele>
        <time>2022-03-02T14:09:57.000Z</time>
      </trkpt>
      <trkpt lat="43.6184" lon="6.38523">
        <ele>683.9</ele>
        <time>2022-03-02T14:10:02.000Z</time>
      </trkpt>
      <trkpt lat="43.61845" lon="6.38525">
        <ele>684.2</ele>
        <time>2022-03-02T14:10:07.000Z</time>
      </trkpt>
      <trkpt lat="43.6185" lon="6.38528">
        <ele>684.4</ele>
        <time>2022-03-02T14:10:12.000Z</time>
      </trkpt>
      <trkpt lat="43.61854" lon="6.38531">
        <ele>684.5</ele>
        <time>2022-03-02T14:10:16.000Z</time>
      </trkpt>
      <trkpt lat="43.61859" lon="6.38532">
        <ele>684.8</ele>
        <time>2022-03-02T14:10:21.000Z</time>
      </trkpt>
      <trkpt lat="43.61864" lon="6.38531">
        <ele>685</ele>
        <time>2022-03-02T14:10:26.000Z</time>
      </trkpt>
      <trkpt lat="43.61869" lon="6.3853">
        <ele>685.2</ele>
        <time>2022-03-02T14:10:31.000Z</time>
      </trkpt>
      <trkpt lat="43.61873" lon="6.38528">
        <ele>685.5</ele>
        <time>2022-03-02T14:10:37.000Z</time>
      </trkpt>
      <trkpt lat="43.61877" lon="6.38526">
        <ele>685.9</ele>
        <time>2022-03-02T14:10:42.000Z</time>
      </trkpt>
      <trkpt lat="43.61882" lon="6.38524">
        <ele>686.4</ele>
        <time>2022-03-02T14:10:48.000Z</time>
      </trkpt>
      <trkpt lat="43.61887" lon="6.38522">
        <ele>686.7</ele>
        <time>2022-03-02T14:10:53.000Z</time>
      </trkpt>
      <trkpt lat="43.61892" lon="6.38521">
        <ele>687.1</ele>
        <time>2022-03-02T14:11:00.000Z</time>
      </trkpt>
      <trkpt lat="43.61896" lon="6.38519">
        <ele>688</ele>
        <time>2022-03-02T14:11:08.000Z</time>
      </trkpt>
      <trkpt lat="43.61901" lon="6.38516">
        <ele>688.5</ele>
        <time>2022-03-02T14:11:14.000Z</time>
      </trkpt>
      <trkpt lat="43.61905" lon="6.38514">
        <ele>689</ele>
        <time>2022-03-02T14:11:21.000Z</time>
      </trkpt>
      <trkpt lat="43.61909" lon="6.3851">
        <ele>689.4</ele>
        <time>2022-03-02T14:11:25.000Z</time>
      </trkpt>
      <trkpt lat="43.61913" lon="6.38507">
        <ele>689.9</ele>
        <time>2022-03-02T14:11:29.000Z</time>
      </trkpt>
      <trkpt lat="43.61918" lon="6.38504">
        <ele>690.3</ele>
        <time>2022-03-02T14:11:33.000Z</time>
      </trkpt>
      <trkpt lat="43.61922" lon="6.385">
        <ele>690.6</ele>
        <time>2022-03-02T14:11:37.000Z</time>
      </trkpt>
      <trkpt lat="43.61926" lon="6.38498">
        <ele>691</ele>
        <time>2022-03-02T14:11:42.000Z</time>
      </trkpt>
      <trkpt lat="43.6193" lon="6.38494">
        <ele>691.4</ele>
        <time>2022-03-02T14:11:46.000Z</time>
      </trkpt>
      <trkpt lat="43.61935" lon="6.3849">
        <ele>691.8</ele>
        <time>2022-03-02T14:11:51.000Z</time>
      </trkpt>
      <trkpt lat="43.61939" lon="6.38487">
        <ele>692.4</ele>
        <time>2022-03-02T14:11:57.000Z</time>
      </trkpt>
      <trkpt lat="43.61944" lon="6.38484">
        <ele>692.8</ele>
        <time>2022-03-02T14:12:01.000Z</time>
      </trkpt>
      <trkpt lat="43.61948" lon="6.38482">
        <ele>693.1</ele>
        <time>2022-03-02T14:12:05.000Z</time>
      </trkpt>
      <trkpt lat="43.61953" lon="6.38481">
        <ele>693.4</ele>
        <time>2022-03-02T14:12:09.000Z</time>
      </trkpt>
      <trkpt lat="43.61958" lon="6.3848">
        <ele>693.8</ele>
        <time>2022-03-02T14:12:13.000Z</time>
      </trkpt>
      <trkpt lat="43.61963" lon="6.38479">
        <ele>694</ele>
        <time>2022-03-02T14:12:17.000Z</time>
      </trkpt>
      <trkpt lat="43.61968" lon="6.38477">
        <ele>694.3</ele>
        <time>2022-03-02T14:12:22.000Z</time>
      </trkpt>
      <trkpt lat="43.61973" lon="6.38477">
        <ele>694.6</ele>
        <time>2022-03-02T14:12:26.000Z</time>
      </trkpt>
      <trkpt lat="43.61978" lon="6.38477">
        <ele>694.9</ele>
        <time>2022-03-02T14:12:31.000Z</time>
      </trkpt>
      <trkpt lat="43.61983" lon="6.38477">
        <ele>695.1</ele>
        <time>2022-03-02T14:12:35.000Z</time>
      </trkpt>
      <trkpt lat="43.61988" lon="6.38476">
        <ele>695.3</ele>
        <time>2022-03-02T14:12:40.000Z</time>
      </trkpt>
      <trkpt lat="43.61993" lon="6.38475">
        <ele>695.5</ele>
        <time>2022-03-02T14:12:45.000Z</time>
      </trkpt>
      <trkpt lat="43.61998" lon="6.38473">
        <ele>696.1</ele>
        <time>2022-03-02T14:12:50.000Z</time>
      </trkpt>
      <trkpt lat="43.62002" lon="6.38471">
        <ele>696.4</ele>
        <time>2022-03-02T14:12:55.000Z</time>
      </trkpt>
      <trkpt lat="43.62006" lon="6.38468">
        <ele>696.8</ele>
        <time>2022-03-02T14:13:00.000Z</time>
      </trkpt>
      <trkpt lat="43.62011" lon="6.38466">
        <ele>697</ele>
        <time>2022-03-02T14:13:04.000Z</time>
      </trkpt>
      <trkpt lat="43.62015" lon="6.38462">
        <ele>697.4</ele>
        <time>2022-03-02T14:13:09.000Z</time>
      </trkpt>
      <trkpt lat="43.62018" lon="6.38458">
        <ele>697.7</ele>
        <time>2022-03-02T14:13:14.000Z</time>
      </trkpt>
      <trkpt lat="43.62022" lon="6.38454">
        <ele>697.9</ele>
        <time>2022-03-02T14:13:19.000Z</time>
      </trkpt>
      <trkpt lat="43.62027" lon="6.38452">
        <ele>698.1</ele>
        <time>2022-03-02T14:13:23.000Z</time>
      </trkpt>
      <trkpt lat="43.62032" lon="6.38449">
        <ele>698.2</ele>
        <time>2022-03-02T14:13:27.000Z</time>
      </trkpt>
      <trkpt lat="43.62037" lon="6.38448">
        <ele>698.3</ele>
        <time>2022-03-02T14:13:31.000Z</time>
      </trkpt>
      <trkpt lat="43.62042" lon="6.38446">
        <ele>698.5</ele>
        <time>2022-03-02T14:13:35.000Z</time>
      </trkpt>
      <trkpt lat="43.62047" lon="6.38444">
        <ele>698.6</ele>
        <time>2022-03-02T14:13:40.000Z</time>
      </trkpt>
      <trkpt lat="43.62051" lon="6.38442">
        <ele>698.9</ele>
        <time>2022-03-02T14:13:44.000Z</time>
      </trkpt>
      <trkpt lat="43.62056" lon="6.38439">
        <ele>699</ele>
        <time>2022-03-02T14:13:49.000Z</time>
      </trkpt>
      <trkpt lat="43.62061" lon="6.38436">
        <ele>699.1</ele>
        <time>2022-03-02T14:13:54.000Z</time>
      </trkpt>
      <trkpt lat="43.62067" lon="6.38435">
        <ele>699.1</ele>
        <time>2022-03-02T14:13:59.000Z</time>
      </trkpt>
      <trkpt lat="43.62073" lon="6.38433">
        <ele>699.1</ele>
        <time>2022-03-02T14:14:04.000Z</time>
      </trkpt>
      <trkpt lat="43.62077" lon="6.38432">
        <ele>699</ele>
        <time>2022-03-02T14:14:08.000Z</time>
      </trkpt>
      <trkpt lat="43.62083" lon="6.3843">
        <ele>698.8</ele>
        <time>2022-03-02T14:14:13.000Z</time>
      </trkpt>
      <trkpt lat="43.62087" lon="6.38429">
        <ele>698.7</ele>
        <time>2022-03-02T14:14:17.000Z</time>
      </trkpt>
      <trkpt lat="43.62093" lon="6.38428">
        <ele>698.7</ele>
        <time>2022-03-02T14:14:22.000Z</time>
      </trkpt>
      <trkpt lat="43.62098" lon="6.38428">
        <ele>698.6</ele>
        <time>2022-03-02T14:14:26.000Z</time>
      </trkpt>
      <trkpt lat="43.62103" lon="6.38427">
        <ele>698.6</ele>
        <time>2022-03-02T14:14:30.000Z</time>
      </trkpt>
      <trkpt lat="43.62108" lon="6.38426">
        <ele>698.6</ele>
        <time>2022-03-02T14:14:34.000Z</time>
      </trkpt>
      <trkpt lat="43.62114" lon="6.38426">
        <ele>698.6</ele>
        <time>2022-03-02T14:14:38.000Z</time>
      </trkpt>
      <trkpt lat="43.62118" lon="6.38425">
        <ele>698.6</ele>
        <time>2022-03-02T14:14:42.000Z</time>
      </trkpt>
      <trkpt lat="43.62123" lon="6.38425">
        <ele>698.7</ele>
        <time>2022-03-02T14:14:46.000Z</time>
      </trkpt>
      <trkpt lat="43.62128" lon="6.38425">
        <ele>698.7</ele>
        <time>2022-03-02T14:14:51.000Z</time>
      </trkpt>
      <trkpt lat="43.62133" lon="6.38425">
        <ele>698.8</ele>
        <time>2022-03-02T14:15:02.000Z</time>
      </trkpt>
      <trkpt lat="43.62138" lon="6.38425">
        <ele>698.8</ele>
        <time>2022-03-02T14:15:09.000Z</time>
      </trkpt>
      <trkpt lat="43.62142" lon="6.38424">
        <ele>698.9</ele>
        <time>2022-03-02T14:15:13.000Z</time>
      </trkpt>
      <trkpt lat="43.62147" lon="6.38424">
        <ele>699</ele>
        <time>2022-03-02T14:15:17.000Z</time>
      </trkpt>
      <trkpt lat="43.62153" lon="6.38424">
        <ele>699.1</ele>
        <time>2022-03-02T14:15:21.000Z</time>
      </trkpt>
      <trkpt lat="43.62158" lon="6.38424">
        <ele>699.1</ele>
        <time>2022-03-02T14:15:25.000Z</time>
      </trkpt>
      <trkpt lat="43.62164" lon="6.38423">
        <ele>699.3</ele>
        <time>2022-03-02T14:15:30.000Z</time>
      </trkpt>
      <trkpt lat="43.62169" lon="6.38423">
        <ele>699.5</ele>
        <time>2022-03-02T14:15:34.000Z</time>
      </trkpt>
      <trkpt lat="43.62174" lon="6.38422">
        <ele>699.6</ele>
        <time>2022-03-02T14:15:38.000Z</time>
      </trkpt>
      <trkpt lat="43.62179" lon="6.38421">
        <ele>699.7</ele>
        <time>2022-03-02T14:15:42.000Z</time>
      </trkpt>
      <trkpt lat="43.62184" lon="6.3842">
        <ele>699.7</ele>
        <time>2022-03-02T14:15:46.000Z</time>
      </trkpt>
      <trkpt lat="43.62189" lon="6.3842">
        <ele>699.5</ele>
        <time>2022-03-02T14:15:50.000Z</time>
      </trkpt>
      <trkpt lat="43.62194" lon="6.3842">
        <ele>699.4</ele>
        <time>2022-03-02T14:15:54.000Z</time>
      </trkpt>
      <trkpt lat="43.62199" lon="6.3842">
        <ele>699</ele>
        <time>2022-03-02T14:15:58.000Z</time>
      </trkpt>
      <trkpt lat="43.62204" lon="6.38421">
        <ele>698.7</ele>
        <time>2022-03-02T14:16:02.000Z</time>
      </trkpt>
      <trkpt lat="43.62208" lon="6.38421">
        <ele>698.4</ele>
        <time>2022-03-02T14:16:06.000Z</time>
      </trkpt>
      <trkpt lat="43.62213" lon="6.38422">
        <ele>698.2</ele>
        <time>2022-03-02T14:16:10.000Z</time>
      </trkpt>
      <trkpt lat="43.62218" lon="6.38421">
        <ele>698</ele>
        <time>2022-03-02T14:16:14.000Z</time>
      </trkpt>
      <trkpt lat="43.62222" lon="6.38422">
        <ele>697.8</ele>
        <time>2022-03-02T14:16:18.000Z</time>
      </trkpt>
      <trkpt lat="43.62227" lon="6.38423">
        <ele>697.7</ele>
        <time>2022-03-02T14:16:22.000Z</time>
      </trkpt>
      <trkpt lat="43.62232" lon="6.38424">
        <ele>697.5</ele>
        <time>2022-03-02T14:16:26.000Z</time>
      </trkpt>
      <trkpt lat="43.62238" lon="6.38426">
        <ele>697.4</ele>
        <time>2022-03-02T14:16:30.000Z</time>
      </trkpt>
      <trkpt lat="43.62243" lon="6.38427">
        <ele>697.3</ele>
        <time>2022-03-02T14:16:34.000Z</time>
      </trkpt>
      <trkpt lat="43.62248" lon="6.38429">
        <ele>697.2</ele>
        <time>2022-03-02T14:16:38.000Z</time>
      </trkpt>
      <trkpt lat="43.62253" lon="6.3843">
        <ele>697.3</ele>
        <time>2022-03-02T14:16:42.000Z</time>
      </trkpt>
      <trkpt lat="43.62258" lon="6.38431">
        <ele>697.5</ele>
        <time>2022-03-02T14:16:46.000Z</time>
      </trkpt>
      <trkpt lat="43.62262" lon="6.38432">
        <ele>697.6</ele>
        <time>2022-03-02T14:16:50.000Z</time>
      </trkpt>
      <trkpt lat="43.62267" lon="6.38433">
        <ele>697.7</ele>
        <time>2022-03-02T14:16:55.000Z</time>
      </trkpt>
      <trkpt lat="43.62272" lon="6.38435">
        <ele>697.7</ele>
        <time>2022-03-02T14:16:59.000Z</time>
      </trkpt>
      <trkpt lat="43.62277" lon="6.38436">
        <ele>697.9</ele>
        <time>2022-03-02T14:17:04.000Z</time>
      </trkpt>
      <trkpt lat="43.62283" lon="6.38436">
        <ele>698.1</ele>
        <time>2022-03-02T14:17:08.000Z</time>
      </trkpt>
      <trkpt lat="43.62288" lon="6.38435">
        <ele>698.2</ele>
        <time>2022-03-02T14:17:12.000Z</time>
      </trkpt>
      <trkpt lat="43.62294" lon="6.38436">
        <ele>698.2</ele>
        <time>2022-03-02T14:17:17.000Z</time>
      </trkpt>
      <trkpt lat="43.62298" lon="6.38435">
        <ele>698.1</ele>
        <time>2022-03-02T14:17:21.000Z</time>
      </trkpt>
      <trkpt lat="43.62304" lon="6.38435">
        <ele>698</ele>
        <time>2022-03-02T14:17:26.000Z</time>
      </trkpt>
      <trkpt lat="43.62309" lon="6.38435">
        <ele>698</ele>
        <time>2022-03-02T14:17:31.000Z</time>
      </trkpt>
      <trkpt lat="43.62314" lon="6.38434">
        <ele>698</ele>
        <time>2022-03-02T14:17:36.000Z</time>
      </trkpt>
      <trkpt lat="43.62319" lon="6.38434">
        <ele>698.2</ele>
        <time>2022-03-02T14:17:40.000Z</time>
      </trkpt>
      <trkpt lat="43.62324" lon="6.38433">
        <ele>698.3</ele>
        <time>2022-03-02T14:17:44.000Z</time>
      </trkpt>
      <trkpt lat="43.62328" lon="6.38433">
        <ele>698.4</ele>
        <time>2022-03-02T14:17:48.000Z</time>
      </trkpt>
      <trkpt lat="43.62334" lon="6.38432">
        <ele>698.4</ele>
        <time>2022-03-02T14:17:53.000Z</time>
      </trkpt>
      <trkpt lat="43.62339" lon="6.38431">
        <ele>698.6</ele>
        <time>2022-03-02T14:17:58.000Z</time>
      </trkpt>
      <trkpt lat="43.62344" lon="6.38429">
        <ele>698.8</ele>
        <time>2022-03-02T14:18:02.000Z</time>
      </trkpt>
      <trkpt lat="43.6235" lon="6.38429">
        <ele>698.9</ele>
        <time>2022-03-02T14:18:06.000Z</time>
      </trkpt>
      <trkpt lat="43.62356" lon="6.38429">
        <ele>698.9</ele>
        <time>2022-03-02T14:18:10.000Z</time>
      </trkpt>
      <trkpt lat="43.62361" lon="6.38428">
        <ele>698.7</ele>
        <time>2022-03-02T14:18:14.000Z</time>
      </trkpt>
      <trkpt lat="43.62366" lon="6.38428">
        <ele>698.6</ele>
        <time>2022-03-02T14:18:17.000Z</time>
      </trkpt>
      <trkpt lat="43.62371" lon="6.38428">
        <ele>698.5</ele>
        <time>2022-03-02T14:18:21.000Z</time>
      </trkpt>
      <trkpt lat="43.62376" lon="6.38429">
        <ele>698.5</ele>
        <time>2022-03-02T14:18:25.000Z</time>
      </trkpt>
      <trkpt lat="43.62381" lon="6.3843">
        <ele>698.4</ele>
        <time>2022-03-02T14:18:29.000Z</time>
      </trkpt>
      <trkpt lat="43.62386" lon="6.38431">
        <ele>698.3</ele>
        <time>2022-03-02T14:18:33.000Z</time>
      </trkpt>
      <trkpt lat="43.62391" lon="6.38433">
        <ele>698.4</ele>
        <time>2022-03-02T14:18:38.000Z</time>
      </trkpt>
      <trkpt lat="43.62396" lon="6.38434">
        <ele>698.5</ele>
        <time>2022-03-02T14:18:44.000Z</time>
      </trkpt>
      <trkpt lat="43.62401" lon="6.38435">
        <ele>698.9</ele>
        <time>2022-03-02T14:18:51.000Z</time>
      </trkpt>
      <trkpt lat="43.62405" lon="6.38436">
        <ele>699.2</ele>
        <time>2022-03-02T14:18:56.000Z</time>
      </trkpt>
      <trkpt lat="43.6241" lon="6.38437">
        <ele>699.7</ele>
        <time>2022-03-02T14:19:01.000Z</time>
      </trkpt>
      <trkpt lat="43.62415" lon="6.38438">
        <ele>699.9</ele>
        <time>2022-03-02T14:19:05.000Z</time>
      </trkpt>
      <trkpt lat="43.6242" lon="6.38439">
        <ele>700.2</ele>
        <time>2022-03-02T14:19:11.000Z</time>
      </trkpt>
      <trkpt lat="43.62424" lon="6.38443">
        <ele>700.5</ele>
        <time>2022-03-02T14:19:18.000Z</time>
      </trkpt>
      <trkpt lat="43.62427" lon="6.38447">
        <ele>700.8</ele>
        <time>2022-03-02T14:19:31.000Z</time>
      </trkpt>
      <trkpt lat="43.62432" lon="6.3845">
        <ele>700.9</ele>
        <time>2022-03-02T14:19:45.000Z</time>
      </trkpt>
      <trkpt lat="43.62436" lon="6.38449">
        <ele>701</ele>
        <time>2022-03-02T14:19:55.000Z</time>
      </trkpt>
      <trkpt lat="43.62441" lon="6.38446">
        <ele>701.1</ele>
        <time>2022-03-02T14:20:13.000Z</time>
      </trkpt>
      <trkpt lat="43.62444" lon="6.38441">
        <ele>700.9</ele>
        <time>2022-03-02T14:20:54.000Z</time>
      </trkpt>
      <trkpt lat="43.62442" lon="6.38435">
        <ele>700.9</ele>
        <time>2022-03-02T14:21:00.000Z</time>
      </trkpt>
      <trkpt lat="43.6244" lon="6.3843">
        <ele>700.8</ele>
        <time>2022-03-02T14:21:04.000Z</time>
      </trkpt>
      <trkpt lat="43.62437" lon="6.38424">
        <ele>700.8</ele>
        <time>2022-03-02T14:21:09.000Z</time>
      </trkpt>
      <trkpt lat="43.62433" lon="6.38419">
        <ele>700.6</ele>
        <time>2022-03-02T14:21:14.000Z</time>
      </trkpt>
      <trkpt lat="43.6243" lon="6.38414">
        <ele>700.2</ele>
        <time>2022-03-02T14:21:18.000Z</time>
      </trkpt>
      <trkpt lat="43.62427" lon="6.38409">
        <ele>699.7</ele>
        <time>2022-03-02T14:21:23.000Z</time>
      </trkpt>
      <trkpt lat="43.62423" lon="6.38405">
        <ele>699.3</ele>
        <time>2022-03-02T14:21:27.000Z</time>
      </trkpt>
      <trkpt lat="43.6242" lon="6.38399">
        <ele>698.8</ele>
        <time>2022-03-02T14:21:32.000Z</time>
      </trkpt>
      <trkpt lat="43.62417" lon="6.38393">
        <ele>698.4</ele>
        <time>2022-03-02T14:21:37.000Z</time>
      </trkpt>
      <trkpt lat="43.62415" lon="6.38385">
        <ele>697.8</ele>
        <time>2022-03-02T14:21:42.000Z</time>
      </trkpt>
      <trkpt lat="43.62415" lon="6.38378">
        <ele>697.2</ele>
        <time>2022-03-02T14:21:47.000Z</time>
      </trkpt>
      <trkpt lat="43.62414" lon="6.38371">
        <ele>696.8</ele>
        <time>2022-03-02T14:21:52.000Z</time>
      </trkpt>
      <trkpt lat="43.62412" lon="6.38365">
        <ele>696.4</ele>
        <time>2022-03-02T14:21:56.000Z</time>
      </trkpt>
      <trkpt lat="43.62411" lon="6.38358">
        <ele>695.9</ele>
        <time>2022-03-02T14:22:01.000Z</time>
      </trkpt>
      <trkpt lat="43.62411" lon="6.38352">
        <ele>695.5</ele>
        <time>2022-03-02T14:22:06.000Z</time>
      </trkpt>
      <trkpt lat="43.6241" lon="6.38346">
        <ele>695</ele>
        <time>2022-03-02T14:22:10.000Z</time>
      </trkpt>
      <trkpt lat="43.62411" lon="6.38339">
        <ele>694.5</ele>
        <time>2022-03-02T14:22:14.000Z</time>
      </trkpt>
      <trkpt lat="43.62413" lon="6.38332">
        <ele>694</ele>
        <time>2022-03-02T14:22:19.000Z</time>
      </trkpt>
      <trkpt lat="43.62414" lon="6.38325">
        <ele>693.6</ele>
        <time>2022-03-02T14:22:24.000Z</time>
      </trkpt>
      <trkpt lat="43.62417" lon="6.38319">
        <ele>693.2</ele>
        <time>2022-03-02T14:22:28.000Z</time>
      </trkpt>
      <trkpt lat="43.62421" lon="6.38315">
        <ele>692.9</ele>
        <time>2022-03-02T14:22:32.000Z</time>
      </trkpt>
      <trkpt lat="43.62424" lon="6.38308">
        <ele>692.5</ele>
        <time>2022-03-02T14:22:36.000Z</time>
      </trkpt>
      <trkpt lat="43.62427" lon="6.38303">
        <ele>692.2</ele>
        <time>2022-03-02T14:22:41.000Z</time>
      </trkpt>
      <trkpt lat="43.6243" lon="6.38296">
        <ele>692</ele>
        <time>2022-03-02T14:22:46.000Z</time>
      </trkpt>
      <trkpt lat="43.62433" lon="6.38291">
        <ele>691.8</ele>
        <time>2022-03-02T14:22:50.000Z</time>
      </trkpt>
      <trkpt lat="43.62435" lon="6.38285">
        <ele>691.5</ele>
        <time>2022-03-02T14:22:54.000Z</time>
      </trkpt>
      <trkpt lat="43.62438" lon="6.3828">
        <ele>691</ele>
        <time>2022-03-02T14:22:58.000Z</time>
      </trkpt>
      <trkpt lat="43.6244" lon="6.38274">
        <ele>690.7</ele>
        <time>2022-03-02T14:23:02.000Z</time>
      </trkpt>
      <trkpt lat="43.62442" lon="6.38268">
        <ele>690.5</ele>
        <time>2022-03-02T14:23:06.000Z</time>
      </trkpt>
      <trkpt lat="43.62445" lon="6.38262">
        <ele>690.4</ele>
        <time>2022-03-02T14:23:10.000Z</time>
      </trkpt>
      <trkpt lat="43.62447" lon="6.38255">
        <ele>690.2</ele>
        <time>2022-03-02T14:23:14.000Z</time>
      </trkpt>
      <trkpt lat="43.62449" lon="6.38248">
        <ele>689.9</ele>
        <time>2022-03-02T14:23:19.000Z</time>
      </trkpt>
      <trkpt lat="43.62452" lon="6.38242">
        <ele>689.7</ele>
        <time>2022-03-02T14:23:23.000Z</time>
      </trkpt>
      <trkpt lat="43.62454" lon="6.38235">
        <ele>689.6</ele>
        <time>2022-03-02T14:23:27.000Z</time>
      </trkpt>
      <trkpt lat="43.62455" lon="6.38228">
        <ele>689.4</ele>
        <time>2022-03-02T14:23:31.000Z</time>
      </trkpt>
      <trkpt lat="43.62457" lon="6.38222">
        <ele>689.3</ele>
        <time>2022-03-02T14:23:34.000Z</time>
      </trkpt>
      <trkpt lat="43.62458" lon="6.38216">
        <ele>689.2</ele>
        <time>2022-03-02T14:23:37.000Z</time>
      </trkpt>
      <trkpt lat="43.6246" lon="6.38209">
        <ele>689.1</ele>
        <time>2022-03-02T14:23:41.000Z</time>
      </trkpt>
      <trkpt lat="43.62461" lon="6.38202">
        <ele>689.1</ele>
        <time>2022-03-02T14:23:45.000Z</time>
      </trkpt>
      <trkpt lat="43.62463" lon="6.38195">
        <ele>689.2</ele>
        <time>2022-03-02T14:23:49.000Z</time>
      </trkpt>
      <trkpt lat="43.62464" lon="6.38188">
        <ele>689.2</ele>
        <time>2022-03-02T14:23:53.000Z</time>
      </trkpt>
      <trkpt lat="43.62465" lon="6.38182">
        <ele>689.4</ele>
        <time>2022-03-02T14:23:56.900Z</time>
      </trkpt>
      <trkpt lat="43.62466" lon="6.38176">
        <ele>689.5</ele>
        <time>2022-03-02T14:24:01.000Z</time>
      </trkpt>
      <trkpt lat="43.62467" lon="6.38169">
        <ele>689.6</ele>
        <time>2022-03-02T14:24:05.000Z</time>
      </trkpt>
      <trkpt lat="43.62468" lon="6.38162">
        <ele>689.7</ele>
        <time>2022-03-02T14:24:09.000Z</time>
      </trkpt>
      <trkpt lat="43.62468" lon="6.38155">
        <ele>689.8</ele>
        <time>2022-03-02T14:24:13.000Z</time>
      </trkpt>
      <trkpt lat="43.62468" lon="6.38148">
        <ele>689.9</ele>
        <time>2022-03-02T14:24:17.000Z</time>
      </trkpt>
      <trkpt lat="43.62468" lon="6.38141">
        <ele>690.1</ele>
        <time>2022-03-02T14:24:21.000Z</time>
      </trkpt>
      <trkpt lat="43.62468" lon="6.38134">
        <ele>690.3</ele>
        <time>2022-03-02T14:24:25.000Z</time>
      </trkpt>
      <trkpt lat="43.62468" lon="6.38126">
        <ele>690.5</ele>
        <time>2022-03-02T14:24:29.000Z</time>
      </trkpt>
      <trkpt lat="43.62469" lon="6.38119">
        <ele>690.7</ele>
        <time>2022-03-02T14:24:33.000Z</time>
      </trkpt>
      <trkpt lat="43.62469" lon="6.38112">
        <ele>690.8</ele>
        <time>2022-03-02T14:24:37.000Z</time>
      </trkpt>
      <trkpt lat="43.62469" lon="6.38104">
        <ele>690.9</ele>
        <time>2022-03-02T14:24:42.000Z</time>
      </trkpt>
      <trkpt lat="43.6247" lon="6.38097">
        <ele>690.9</ele>
        <time>2022-03-02T14:24:46.000Z</time>
      </trkpt>
      <trkpt lat="43.62471" lon="6.3809">
        <ele>691</ele>
        <time>2022-03-02T14:24:50.000Z</time>
      </trkpt>
      <trkpt lat="43.62472" lon="6.38083">
        <ele>690.9</ele>
        <time>2022-03-02T14:24:54.000Z</time>
      </trkpt>
      <trkpt lat="43.62473" lon="6.38075">
        <ele>690.7</ele>
        <time>2022-03-02T14:24:58.000Z</time>
      </trkpt>
      <trkpt lat="43.62474" lon="6.38068">
        <ele>690.4</ele>
        <time>2022-03-02T14:25:02.000Z</time>
      </trkpt>
      <trkpt lat="43.62475" lon="6.38061">
        <ele>690.2</ele>
        <time>2022-03-02T14:25:06.000Z</time>
      </trkpt>
      <trkpt lat="43.62476" lon="6.38053">
        <ele>690</ele>
        <time>2022-03-02T14:25:10.000Z</time>
      </trkpt>
      <trkpt lat="43.62476" lon="6.38046">
        <ele>689.9</ele>
        <time>2022-03-02T14:25:14.000Z</time>
      </trkpt>
      <trkpt lat="43.62476" lon="6.38039">
        <ele>689.7</ele>
        <time>2022-03-02T14:25:18.000Z</time>
      </trkpt>
      <trkpt lat="43.62476" lon="6.38032">
        <ele>689.5</ele>
        <time>2022-03-02T14:25:22.000Z</time>
      </trkpt>
      <trkpt lat="43.62475" lon="6.38025">
        <ele>689.3</ele>
        <time>2022-03-02T14:25:26.000Z</time>
      </trkpt>
      <trkpt lat="43.62474" lon="6.38018">
        <ele>689.1</ele>
        <time>2022-03-02T14:25:30.000Z</time>
      </trkpt>
      <trkpt lat="43.62472" lon="6.38013">
        <ele>689</ele>
        <time>2022-03-02T14:25:34.000Z</time>
      </trkpt>
      <trkpt lat="43.62471" lon="6.38006">
        <ele>688.8</ele>
        <time>2022-03-02T14:25:38.000Z</time>
      </trkpt>
      <trkpt lat="43.62469" lon="6.37999">
        <ele>688.7</ele>
        <time>2022-03-02T14:25:42.000Z</time>
      </trkpt>
      <trkpt lat="43.62466" lon="6.37993">
        <ele>688.6</ele>
        <time>2022-03-02T14:25:46.000Z</time>
      </trkpt>
      <trkpt lat="43.62464" lon="6.37987">
        <ele>688.5</ele>
        <time>2022-03-02T14:25:50.000Z</time>
      </trkpt>
      <trkpt lat="43.62462" lon="6.37981">
        <ele>688.3</ele>
        <time>2022-03-02T14:25:54.000Z</time>
      </trkpt>
      <trkpt lat="43.62459" lon="6.37974">
        <ele>688.1</ele>
        <time>2022-03-02T14:25:58.000Z</time>
      </trkpt>
      <trkpt lat="43.62458" lon="6.37968">
        <ele>687.8</ele>
        <time>2022-03-02T14:26:02.000Z</time>
      </trkpt>
      <trkpt lat="43.62456" lon="6.37961">
        <ele>687.5</ele>
        <time>2022-03-02T14:26:06.000Z</time>
      </trkpt>
      <trkpt lat="43.62457" lon="6.37953">
        <ele>687.3</ele>
        <time>2022-03-02T14:26:10.000Z</time>
      </trkpt>
      <trkpt lat="43.62458" lon="6.37946">
        <ele>687.1</ele>
        <time>2022-03-02T14:26:14.000Z</time>
      </trkpt>
      <trkpt lat="43.62459" lon="6.37939">
        <ele>687</ele>
        <time>2022-03-02T14:26:18.000Z</time>
      </trkpt>
      <trkpt lat="43.62461" lon="6.37933">
        <ele>686.9</ele>
        <time>2022-03-02T14:26:22.000Z</time>
      </trkpt>
      <trkpt lat="43.62463" lon="6.37927">
        <ele>686.8</ele>
        <time>2022-03-02T14:26:26.000Z</time>
      </trkpt>
      <trkpt lat="43.62465" lon="6.3792">
        <ele>686.7</ele>
        <time>2022-03-02T14:26:30.000Z</time>
      </trkpt>
      <trkpt lat="43.62466" lon="6.37913">
        <ele>686.7</ele>
        <time>2022-03-02T14:26:34.000Z</time>
      </trkpt>
      <trkpt lat="43.62467" lon="6.37906">
        <ele>686.6</ele>
        <time>2022-03-02T14:26:38.000Z</time>
      </trkpt>
      <trkpt lat="43.62468" lon="6.37899">
        <ele>686.6</ele>
        <time>2022-03-02T14:26:42.000Z</time>
      </trkpt>
      <trkpt lat="43.62468" lon="6.37893">
        <ele>686.6</ele>
        <time>2022-03-02T14:26:46.000Z</time>
      </trkpt>
      <trkpt lat="43.6247" lon="6.37886">
        <ele>686.5</ele>
        <time>2022-03-02T14:26:50.000Z</time>
      </trkpt>
      <trkpt lat="43.62471" lon="6.37879">
        <ele>686.5</ele>
        <time>2022-03-02T14:26:54.000Z</time>
      </trkpt>
      <trkpt lat="43.62473" lon="6.37872">
        <ele>686.4</ele>
        <time>2022-03-02T14:26:58.000Z</time>
      </trkpt>
      <trkpt lat="43.62475" lon="6.37865">
        <ele>686.4</ele>
        <time>2022-03-02T14:27:02.000Z</time>
      </trkpt>
      <trkpt lat="43.62477" lon="6.37858">
        <ele>686.4</ele>
        <time>2022-03-02T14:27:06.000Z</time>
      </trkpt>
      <trkpt lat="43.62479" lon="6.37851">
        <ele>686.4</ele>
        <time>2022-03-02T14:27:10.000Z</time>
      </trkpt>
      <trkpt lat="43.62481" lon="6.37844">
        <ele>686.3</ele>
        <time>2022-03-02T14:27:14.000Z</time>
      </trkpt>
      <trkpt lat="43.62483" lon="6.37838">
        <ele>686.2</ele>
        <time>2022-03-02T14:27:18.000Z</time>
      </trkpt>
      <trkpt lat="43.62486" lon="6.37831">
        <ele>686.1</ele>
        <time>2022-03-02T14:27:22.000Z</time>
      </trkpt>
      <trkpt lat="43.62488" lon="6.37825">
        <ele>686.1</ele>
        <time>2022-03-02T14:27:26.000Z</time>
      </trkpt>
      <trkpt lat="43.62491" lon="6.37819">
        <ele>686.1</ele>
        <time>2022-03-02T14:27:30.000Z</time>
      </trkpt>
      <trkpt lat="43.62493" lon="6.37813">
        <ele>686</ele>
        <time>2022-03-02T14:27:34.000Z</time>
      </trkpt>
      <trkpt lat="43.62496" lon="6.37807">
        <ele>686</ele>
        <time>2022-03-02T14:27:38.000Z</time>
      </trkpt>
      <trkpt lat="43.625" lon="6.37802">
        <ele>685.6</ele>
        <time>2022-03-02T14:27:42.000Z</time>
      </trkpt>
      <trkpt lat="43.62503" lon="6.37796">
        <ele>685.4</ele>
        <time>2022-03-02T14:27:46.000Z</time>
      </trkpt>
      <trkpt lat="43.62506" lon="6.3779">
        <ele>685.2</ele>
        <time>2022-03-02T14:27:50.000Z</time>
      </trkpt>
      <trkpt lat="43.62508" lon="6.37785">
        <ele>684.9</ele>
        <time>2022-03-02T14:27:54.000Z</time>
      </trkpt>
      <trkpt lat="43.62511" lon="6.37779">
        <ele>684.6</ele>
        <time>2022-03-02T14:27:58.000Z</time>
      </trkpt>
      <trkpt lat="43.62514" lon="6.37774">
        <ele>684.3</ele>
        <time>2022-03-02T14:28:02.000Z</time>
      </trkpt>
      <trkpt lat="43.62517" lon="6.37769">
        <ele>684</ele>
        <time>2022-03-02T14:28:06.000Z</time>
      </trkpt>
      <trkpt lat="43.6252" lon="6.37763">
        <ele>683.8</ele>
        <time>2022-03-02T14:28:11.000Z</time>
      </trkpt>
      <trkpt lat="43.62524" lon="6.37757">
        <ele>683.6</ele>
        <time>2022-03-02T14:28:16.000Z</time>
      </trkpt>
      <trkpt lat="43.62528" lon="6.37752">
        <ele>683.5</ele>
        <time>2022-03-02T14:28:21.000Z</time>
      </trkpt>
      <trkpt lat="43.62532" lon="6.37749">
        <ele>683.5</ele>
        <time>2022-03-02T14:28:25.000Z</time>
      </trkpt>
      <trkpt lat="43.62536" lon="6.37745">
        <ele>683.5</ele>
        <time>2022-03-02T14:28:29.000Z</time>
      </trkpt>
      <trkpt lat="43.6254" lon="6.3774">
        <ele>683.6</ele>
        <time>2022-03-02T14:28:33.000Z</time>
      </trkpt>
      <trkpt lat="43.62544" lon="6.37736">
        <ele>683.7</ele>
        <time>2022-03-02T14:28:37.000Z</time>
      </trkpt>
      <trkpt lat="43.62547" lon="6.37731">
        <ele>683.7</ele>
        <time>2022-03-02T14:28:41.000Z</time>
      </trkpt>
      <trkpt lat="43.62551" lon="6.37726">
        <ele>683.8</ele>
        <time>2022-03-02T14:28:45.000Z</time>
      </trkpt>
      <trkpt lat="43.62554" lon="6.37721">
        <ele>684</ele>
        <time>2022-03-02T14:28:49.000Z</time>
      </trkpt>
      <trkpt lat="43.62557" lon="6.37716">
        <ele>684.3</ele>
        <time>2022-03-02T14:28:53.000Z</time>
      </trkpt>
      <trkpt lat="43.6256" lon="6.37711">
        <ele>684.6</ele>
        <time>2022-03-02T14:28:57.000Z</time>
      </trkpt>
      <trkpt lat="43.62563" lon="6.37705">
        <ele>684.9</ele>
        <time>2022-03-02T14:29:02.000Z</time>
      </trkpt>
      <trkpt lat="43.62567" lon="6.377">
        <ele>685.4</ele>
        <time>2022-03-02T14:29:07.000Z</time>
      </trkpt>
      <trkpt lat="43.62571" lon="6.37695">
        <ele>686.1</ele>
        <time>2022-03-02T14:29:12.000Z</time>
      </trkpt>
      <trkpt lat="43.62575" lon="6.37691">
        <ele>686.5</ele>
        <time>2022-03-02T14:29:16.000Z</time>
      </trkpt>
      <trkpt lat="43.62579" lon="6.37687">
        <ele>687</ele>
        <time>2022-03-02T14:29:21.000Z</time>
      </trkpt>
      <trkpt lat="43.62583" lon="6.37682">
        <ele>687.4</ele>
        <time>2022-03-02T14:29:26.000Z</time>
      </trkpt>
      <trkpt lat="43.62586" lon="6.37678">
        <ele>687.9</ele>
        <time>2022-03-02T14:29:31.000Z</time>
      </trkpt>
      <trkpt lat="43.6259" lon="6.37673">
        <ele>688.2</ele>
        <time>2022-03-02T14:29:35.000Z</time>
      </trkpt>
      <trkpt lat="43.62593" lon="6.37669">
        <ele>688.6</ele>
        <time>2022-03-02T14:29:40.000Z</time>
      </trkpt>
      <trkpt lat="43.62597" lon="6.37662">
        <ele>688.9</ele>
        <time>2022-03-02T14:29:45.000Z</time>
      </trkpt>
      <trkpt lat="43.626" lon="6.37657">
        <ele>689.2</ele>
        <time>2022-03-02T14:29:49.000Z</time>
      </trkpt>
      <trkpt lat="43.62603" lon="6.37652">
        <ele>689.4</ele>
        <time>2022-03-02T14:29:53.000Z</time>
      </trkpt>
      <trkpt lat="43.62606" lon="6.37648">
        <ele>689.7</ele>
        <time>2022-03-02T14:29:58.000Z</time>
      </trkpt>
      <trkpt lat="43.6261" lon="6.37643">
        <ele>690.1</ele>
        <time>2022-03-02T14:30:02.000Z</time>
      </trkpt>
      <trkpt lat="43.62613" lon="6.37638">
        <ele>690.5</ele>
        <time>2022-03-02T14:30:06.000Z</time>
      </trkpt>
      <trkpt lat="43.62615" lon="6.37632">
        <ele>690.9</ele>
        <time>2022-03-02T14:30:10.000Z</time>
      </trkpt>
      <trkpt lat="43.62618" lon="6.37626">
        <ele>691.4</ele>
        <time>2022-03-02T14:30:14.000Z</time>
      </trkpt>
      <trkpt lat="43.6262" lon="6.37621">
        <ele>691.7</ele>
        <time>2022-03-02T14:30:17.000Z</time>
      </trkpt>
      <trkpt lat="43.62624" lon="6.37616">
        <ele>691.9</ele>
        <time>2022-03-02T14:30:20.000Z</time>
      </trkpt>
      <trkpt lat="43.62626" lon="6.37609">
        <ele>692.2</ele>
        <time>2022-03-02T14:30:24.000Z</time>
      </trkpt>
      <trkpt lat="43.62628" lon="6.37602">
        <ele>692.3</ele>
        <time>2022-03-02T14:30:28.000Z</time>
      </trkpt>
      <trkpt lat="43.6263" lon="6.37596">
        <ele>692.3</ele>
        <time>2022-03-02T14:30:32.000Z</time>
      </trkpt>
      <trkpt lat="43.62631" lon="6.37589">
        <ele>692.4</ele>
        <time>2022-03-02T14:30:36.000Z</time>
      </trkpt>
      <trkpt lat="43.62633" lon="6.37584">
        <ele>692.4</ele>
        <time>2022-03-02T14:30:40.000Z</time>
      </trkpt>
      <trkpt lat="43.62635" lon="6.37577">
        <ele>692.5</ele>
        <time>2022-03-02T14:30:44.000Z</time>
      </trkpt>
      <trkpt lat="43.62637" lon="6.37571">
        <ele>692.7</ele>
        <time>2022-03-02T14:30:48.000Z</time>
      </trkpt>
      <trkpt lat="43.62637" lon="6.37564">
        <ele>692.8</ele>
        <time>2022-03-02T14:30:52.000Z</time>
      </trkpt>
      <trkpt lat="43.62639" lon="6.37557">
        <ele>692.8</ele>
        <time>2022-03-02T14:30:56.000Z</time>
      </trkpt>
      <trkpt lat="43.62641" lon="6.3755">
        <ele>692.7</ele>
        <time>2022-03-02T14:31:00.000Z</time>
      </trkpt>
      <trkpt lat="43.62644" lon="6.37544">
        <ele>692.4</ele>
        <time>2022-03-02T14:31:04.000Z</time>
      </trkpt>
      <trkpt lat="43.62647" lon="6.37539">
        <ele>692.1</ele>
        <time>2022-03-02T14:31:07.000Z</time>
      </trkpt>
      <trkpt lat="43.62649" lon="6.37533">
        <ele>691.9</ele>
        <time>2022-03-02T14:31:10.000Z</time>
      </trkpt>
      <trkpt lat="43.62651" lon="6.37526">
        <ele>691.6</ele>
        <time>2022-03-02T14:31:14.000Z</time>
      </trkpt>
      <trkpt lat="43.62651" lon="6.3752">
        <ele>691.3</ele>
        <time>2022-03-02T14:31:18.000Z</time>
      </trkpt>
      <trkpt lat="43.62653" lon="6.37513">
        <ele>691</ele>
        <time>2022-03-02T14:31:22.000Z</time>
      </trkpt>
      <trkpt lat="43.62654" lon="6.37507">
        <ele>690.8</ele>
        <time>2022-03-02T14:31:26.000Z</time>
      </trkpt>
      <trkpt lat="43.62655" lon="6.375">
        <ele>690.5</ele>
        <time>2022-03-02T14:31:30.000Z</time>
      </trkpt>
      <trkpt lat="43.62655" lon="6.37493">
        <ele>690.1</ele>
        <time>2022-03-02T14:31:34.000Z</time>
      </trkpt>
      <trkpt lat="43.62656" lon="6.37487">
        <ele>689.8</ele>
        <time>2022-03-02T14:31:38.000Z</time>
      </trkpt>
      <trkpt lat="43.62657" lon="6.3748">
        <ele>689.6</ele>
        <time>2022-03-02T14:31:42.000Z</time>
      </trkpt>
      <trkpt lat="43.62658" lon="6.37474">
        <ele>689.4</ele>
        <time>2022-03-02T14:31:46.000Z</time>
      </trkpt>
      <trkpt lat="43.62662" lon="6.37469">
        <ele>689.1</ele>
        <time>2022-03-02T14:31:50.000Z</time>
      </trkpt>
      <trkpt lat="43.62664" lon="6.37462">
        <ele>688.7</ele>
        <time>2022-03-02T14:31:55.000Z</time>
      </trkpt>
      <trkpt lat="43.62666" lon="6.37454">
        <ele>688.2</ele>
        <time>2022-03-02T14:32:00.000Z</time>
      </trkpt>
      <trkpt lat="43.62667" lon="6.37447">
        <ele>688</ele>
        <time>2022-03-02T14:32:04.000Z</time>
      </trkpt>
      <trkpt lat="43.62669" lon="6.37441">
        <ele>687.7</ele>
        <time>2022-03-02T14:32:08.000Z</time>
      </trkpt>
      <trkpt lat="43.62671" lon="6.37434">
        <ele>687.6</ele>
        <time>2022-03-02T14:32:12.000Z</time>
      </trkpt>
      <trkpt lat="43.62672" lon="6.37428">
        <ele>687.4</ele>
        <time>2022-03-02T14:32:16.000Z</time>
      </trkpt>
      <trkpt lat="43.62673" lon="6.37421">
        <ele>687.1</ele>
        <time>2022-03-02T14:32:20.000Z</time>
      </trkpt>
      <trkpt lat="43.62673" lon="6.37414">
        <ele>686.8</ele>
        <time>2022-03-02T14:32:24.000Z</time>
      </trkpt>
      <trkpt lat="43.62674" lon="6.37408">
        <ele>686.5</ele>
        <time>2022-03-02T14:32:28.000Z</time>
      </trkpt>
      <trkpt lat="43.62676" lon="6.37401">
        <ele>686.1</ele>
        <time>2022-03-02T14:32:32.000Z</time>
      </trkpt>
      <trkpt lat="43.62677" lon="6.37394">
        <ele>685.6</ele>
        <time>2022-03-02T14:32:36.000Z</time>
      </trkpt>
      <trkpt lat="43.62678" lon="6.37387">
        <ele>685.2</ele>
        <time>2022-03-02T14:32:40.000Z</time>
      </trkpt>
      <trkpt lat="43.62679" lon="6.3738">
        <ele>684.8</ele>
        <time>2022-03-02T14:32:44.000Z</time>
      </trkpt>
      <trkpt lat="43.62679" lon="6.37374">
        <ele>684.3</ele>
        <time>2022-03-02T14:32:48.000Z</time>
      </trkpt>
      <trkpt lat="43.62679" lon="6.37366">
        <ele>683.4</ele>
        <time>2022-03-02T14:32:52.000Z</time>
      </trkpt>
      <trkpt lat="43.6268" lon="6.37359">
        <ele>682.7</ele>
        <time>2022-03-02T14:32:56.000Z</time>
      </trkpt>
      <trkpt lat="43.6268" lon="6.37353">
        <ele>682.1</ele>
        <time>2022-03-02T14:33:00.000Z</time>
      </trkpt>
      <trkpt lat="43.62681" lon="6.37346">
        <ele>681.7</ele>
        <time>2022-03-02T14:33:04.000Z</time>
      </trkpt>
      <trkpt lat="43.6268" lon="6.37339">
        <ele>681.3</ele>
        <time>2022-03-02T14:33:08.000Z</time>
      </trkpt>
      <trkpt lat="43.6268" lon="6.37331">
        <ele>681</ele>
        <time>2022-03-02T14:33:12.000Z</time>
      </trkpt>
      <trkpt lat="43.6268" lon="6.37323">
        <ele>680.7</ele>
        <time>2022-03-02T14:33:16.000Z</time>
      </trkpt>
      <trkpt lat="43.62679" lon="6.37316">
        <ele>680.3</ele>
        <time>2022-03-02T14:33:20.000Z</time>
      </trkpt>
      <trkpt lat="43.62681" lon="6.37308">
        <ele>679.9</ele>
        <time>2022-03-02T14:33:24.000Z</time>
      </trkpt>
      <trkpt lat="43.62681" lon="6.373">
        <ele>679.5</ele>
        <time>2022-03-02T14:33:28.000Z</time>
      </trkpt>
      <trkpt lat="43.62683" lon="6.37293">
        <ele>679</ele>
        <time>2022-03-02T14:33:32.000Z</time>
      </trkpt>
      <trkpt lat="43.62683" lon="6.37286">
        <ele>678.5</ele>
        <time>2022-03-02T14:33:36.000Z</time>
      </trkpt>
      <trkpt lat="43.62683" lon="6.37279">
        <ele>678</ele>
        <time>2022-03-02T14:33:41.000Z</time>
      </trkpt>
      <trkpt lat="43.62684" lon="6.37272">
        <ele>677.6</ele>
        <time>2022-03-02T14:33:45.000Z</time>
      </trkpt>
      <trkpt lat="43.62685" lon="6.37264">
        <ele>677.2</ele>
        <time>2022-03-02T14:33:49.000Z</time>
      </trkpt>
      <trkpt lat="43.62686" lon="6.37257">
        <ele>676.9</ele>
        <time>2022-03-02T14:33:53.000Z</time>
      </trkpt>
      <trkpt lat="43.62687" lon="6.3725">
        <ele>676.7</ele>
        <time>2022-03-02T14:33:57.000Z</time>
      </trkpt>
      <trkpt lat="43.62688" lon="6.37244">
        <ele>676.5</ele>
        <time>2022-03-02T14:34:01.000Z</time>
      </trkpt>
      <trkpt lat="43.62688" lon="6.37237">
        <ele>676.3</ele>
        <time>2022-03-02T14:34:05.000Z</time>
      </trkpt>
      <trkpt lat="43.62688" lon="6.3723">
        <ele>676.1</ele>
        <time>2022-03-02T14:34:09.000Z</time>
      </trkpt>
      <trkpt lat="43.62687" lon="6.37223">
        <ele>676</ele>
        <time>2022-03-02T14:34:13.000Z</time>
      </trkpt>
      <trkpt lat="43.62686" lon="6.37216">
        <ele>675.7</ele>
        <time>2022-03-02T14:34:17.000Z</time>
      </trkpt>
      <trkpt lat="43.62685" lon="6.37209">
        <ele>675.3</ele>
        <time>2022-03-02T14:34:21.000Z</time>
      </trkpt>
      <trkpt lat="43.62685" lon="6.37202">
        <ele>675</ele>
        <time>2022-03-02T14:34:25.000Z</time>
      </trkpt>
      <trkpt lat="43.62685" lon="6.37194">
        <ele>674.7</ele>
        <time>2022-03-02T14:34:30.000Z</time>
      </trkpt>
      <trkpt lat="43.62685" lon="6.37188">
        <ele>674.5</ele>
        <time>2022-03-02T14:34:34.000Z</time>
      </trkpt>
      <trkpt lat="43.62683" lon="6.37182">
        <ele>674.3</ele>
        <time>2022-03-02T14:34:38.000Z</time>
      </trkpt>
      <trkpt lat="43.62684" lon="6.37175">
        <ele>674.2</ele>
        <time>2022-03-02T14:34:42.000Z</time>
      </trkpt>
      <trkpt lat="43.62685" lon="6.37168">
        <ele>674.1</ele>
        <time>2022-03-02T14:34:46.000Z</time>
      </trkpt>
      <trkpt lat="43.62686" lon="6.37161">
        <ele>674</ele>
        <time>2022-03-02T14:34:50.000Z</time>
      </trkpt>
      <trkpt lat="43.62685" lon="6.37154">
        <ele>673.9</ele>
        <time>2022-03-02T14:34:54.000Z</time>
      </trkpt>
      <trkpt lat="43.62685" lon="6.37147">
        <ele>673.8</ele>
        <time>2022-03-02T14:34:58.000Z</time>
      </trkpt>
      <trkpt lat="43.62685" lon="6.3714">
        <ele>673.7</ele>
        <time>2022-03-02T14:35:02.000Z</time>
      </trkpt>
      <trkpt lat="43.62684" lon="6.37133">
        <ele>673.6</ele>
        <time>2022-03-02T14:35:06.000Z</time>
      </trkpt>
      <trkpt lat="43.62684" lon="6.37125">
        <ele>673.5</ele>
        <time>2022-03-02T14:35:10.000Z</time>
      </trkpt>
      <trkpt lat="43.62684" lon="6.37118">
        <ele>673.4</ele>
        <time>2022-03-02T14:35:14.000Z</time>
      </trkpt>
      <trkpt lat="43.62685" lon="6.37112">
        <ele>673.3</ele>
        <time>2022-03-02T14:35:18.000Z</time>
      </trkpt>
      <trkpt lat="43.62685" lon="6.37105">
        <ele>673.2</ele>
        <time>2022-03-02T14:35:22.000Z</time>
      </trkpt>
      <trkpt lat="43.62685" lon="6.37098">
        <ele>673.1</ele>
        <time>2022-03-02T14:35:26.000Z</time>
      </trkpt>
      <trkpt lat="43.62685" lon="6.37091">
        <ele>672.9</ele>
        <time>2022-03-02T14:35:30.000Z</time>
      </trkpt>
      <trkpt lat="43.62685" lon="6.37083">
        <ele>672.7</ele>
        <time>2022-03-02T14:35:34.000Z</time>
      </trkpt>
      <trkpt lat="43.62684" lon="6.37077">
        <ele>672.5</ele>
        <time>2022-03-02T14:35:38.000Z</time>
      </trkpt>
      <trkpt lat="43.62685" lon="6.3707">
        <ele>672.3</ele>
        <time>2022-03-02T14:35:42.000Z</time>
      </trkpt>
      <trkpt lat="43.62684" lon="6.37063">
        <ele>672</ele>
        <time>2022-03-02T14:35:47.000Z</time>
      </trkpt>
      <trkpt lat="43.62685" lon="6.37056">
        <ele>671.8</ele>
        <time>2022-03-02T14:35:51.000Z</time>
      </trkpt>
      <trkpt lat="43.62685" lon="6.3705">
        <ele>671.5</ele>
        <time>2022-03-02T14:35:55.000Z</time>
      </trkpt>
      <trkpt lat="43.62685" lon="6.37043">
        <ele>671.2</ele>
        <time>2022-03-02T14:35:59.000Z</time>
      </trkpt>
      <trkpt lat="43.62686" lon="6.37036">
        <ele>671</ele>
        <time>2022-03-02T14:36:04.000Z</time>
      </trkpt>
      <trkpt lat="43.62687" lon="6.37029">
        <ele>670.9</ele>
        <time>2022-03-02T14:36:08.000Z</time>
      </trkpt>
      <trkpt lat="43.62688" lon="6.37022">
        <ele>670.7</ele>
        <time>2022-03-02T14:36:12.000Z</time>
      </trkpt>
      <trkpt lat="43.62689" lon="6.37015">
        <ele>670.5</ele>
        <time>2022-03-02T14:36:16.000Z</time>
      </trkpt>
      <trkpt lat="43.6269" lon="6.37008">
        <ele>670.2</ele>
        <time>2022-03-02T14:36:19.000Z</time>
      </trkpt>
      <trkpt lat="43.62691" lon="6.37001">
        <ele>669.8</ele>
        <time>2022-03-02T14:36:23.000Z</time>
      </trkpt>
      <trkpt lat="43.62693" lon="6.36993">
        <ele>669.5</ele>
        <time>2022-03-02T14:36:27.000Z</time>
      </trkpt>
      <trkpt lat="43.62695" lon="6.36986">
        <ele>669.2</ele>
        <time>2022-03-02T14:36:31.000Z</time>
      </trkpt>
      <trkpt lat="43.62696" lon="6.36979">
        <ele>668.9</ele>
        <time>2022-03-02T14:36:35.000Z</time>
      </trkpt>
      <trkpt lat="43.62698" lon="6.36972">
        <ele>668.5</ele>
        <time>2022-03-02T14:36:39.000Z</time>
      </trkpt>
      <trkpt lat="43.627" lon="6.36966">
        <ele>668.2</ele>
        <time>2022-03-02T14:36:43.000Z</time>
      </trkpt>
      <trkpt lat="43.62702" lon="6.3696">
        <ele>668</ele>
        <time>2022-03-02T14:36:47.000Z</time>
      </trkpt>
      <trkpt lat="43.62705" lon="6.36953">
        <ele>667.5</ele>
        <time>2022-03-02T14:36:52.000Z</time>
      </trkpt>
      <trkpt lat="43.62707" lon="6.36946">
        <ele>667.1</ele>
        <time>2022-03-02T14:36:56.000Z</time>
      </trkpt>
      <trkpt lat="43.62709" lon="6.36939">
        <ele>666.7</ele>
        <time>2022-03-02T14:37:00.000Z</time>
      </trkpt>
      <trkpt lat="43.6271" lon="6.36931">
        <ele>666.5</ele>
        <time>2022-03-02T14:37:04.000Z</time>
      </trkpt>
      <trkpt lat="43.62712" lon="6.36924">
        <ele>666.3</ele>
        <time>2022-03-02T14:37:08.000Z</time>
      </trkpt>
      <trkpt lat="43.62713" lon="6.36918">
        <ele>666.1</ele>
        <time>2022-03-02T14:37:12.000Z</time>
      </trkpt>
      <trkpt lat="43.62714" lon="6.3691">
        <ele>666</ele>
        <time>2022-03-02T14:37:16.000Z</time>
      </trkpt>
      <trkpt lat="43.62715" lon="6.36903">
        <ele>666</ele>
        <time>2022-03-02T14:37:20.000Z</time>
      </trkpt>
      <trkpt lat="43.62718" lon="6.36897">
        <ele>665.9</ele>
        <time>2022-03-02T14:37:24.000Z</time>
      </trkpt>
      <trkpt lat="43.62719" lon="6.3689">
        <ele>665.8</ele>
        <time>2022-03-02T14:37:28.000Z</time>
      </trkpt>
      <trkpt lat="43.62721" lon="6.36883">
        <ele>665.8</ele>
        <time>2022-03-02T14:37:32.000Z</time>
      </trkpt>
      <trkpt lat="43.62722" lon="6.36876">
        <ele>665.7</ele>
        <time>2022-03-02T14:37:36.000Z</time>
      </trkpt>
      <trkpt lat="43.62725" lon="6.3687">
        <ele>665.6</ele>
        <time>2022-03-02T14:37:40.000Z</time>
      </trkpt>
      <trkpt lat="43.62727" lon="6.36863">
        <ele>665.7</ele>
        <time>2022-03-02T14:37:44.000Z</time>
      </trkpt>
      <trkpt lat="43.62728" lon="6.36856">
        <ele>665.8</ele>
        <time>2022-03-02T14:37:49.000Z</time>
      </trkpt>
      <trkpt lat="43.6273" lon="6.3685">
        <ele>665.8</ele>
        <time>2022-03-02T14:37:53.000Z</time>
      </trkpt>
      <trkpt lat="43.62732" lon="6.36843">
        <ele>665.8</ele>
        <time>2022-03-02T14:37:58.000Z</time>
      </trkpt>
      <trkpt lat="43.62734" lon="6.36837">
        <ele>665.7</ele>
        <time>2022-03-02T14:38:02.000Z</time>
      </trkpt>
      <trkpt lat="43.62736" lon="6.3683">
        <ele>665.7</ele>
        <time>2022-03-02T14:38:07.000Z</time>
      </trkpt>
      <trkpt lat="43.62739" lon="6.36824">
        <ele>665.6</ele>
        <time>2022-03-02T14:38:12.000Z</time>
      </trkpt>
      <trkpt lat="43.62741" lon="6.36817">
        <ele>665.4</ele>
        <time>2022-03-02T14:38:16.000Z</time>
      </trkpt>
      <trkpt lat="43.62743" lon="6.36812">
        <ele>665.3</ele>
        <time>2022-03-02T14:38:19.000Z</time>
      </trkpt>
      <trkpt lat="43.62746" lon="6.36805">
        <ele>665.1</ele>
        <time>2022-03-02T14:38:23.000Z</time>
      </trkpt>
      <trkpt lat="43.62747" lon="6.36799">
        <ele>665</ele>
        <time>2022-03-02T14:38:27.000Z</time>
      </trkpt>
      <trkpt lat="43.62749" lon="6.36793">
        <ele>664.9</ele>
        <time>2022-03-02T14:38:31.000Z</time>
      </trkpt>
      <trkpt lat="43.6275" lon="6.36786">
        <ele>664.8</ele>
        <time>2022-03-02T14:38:35.000Z</time>
      </trkpt>
      <trkpt lat="43.62751" lon="6.3678">
        <ele>664.7</ele>
        <time>2022-03-02T14:38:39.000Z</time>
      </trkpt>
      <trkpt lat="43.62753" lon="6.36774">
        <ele>664.7</ele>
        <time>2022-03-02T14:38:43.000Z</time>
      </trkpt>
      <trkpt lat="43.62754" lon="6.36767">
        <ele>664.7</ele>
        <time>2022-03-02T14:38:47.000Z</time>
      </trkpt>
      <trkpt lat="43.62755" lon="6.3676">
        <ele>664.8</ele>
        <time>2022-03-02T14:38:51.000Z</time>
      </trkpt>
      <trkpt lat="43.62756" lon="6.36753">
        <ele>664.8</ele>
        <time>2022-03-02T14:38:56.000Z</time>
      </trkpt>
      <trkpt lat="43.62758" lon="6.36746">
        <ele>664.9</ele>
        <time>2022-03-02T14:39:00.000Z</time>
      </trkpt>
      <trkpt lat="43.62759" lon="6.36739">
        <ele>664.9</ele>
        <time>2022-03-02T14:39:04.000Z</time>
      </trkpt>
      <trkpt lat="43.62762" lon="6.36732">
        <ele>665.1</ele>
        <time>2022-03-02T14:39:08.000Z</time>
      </trkpt>
      <trkpt lat="43.62764" lon="6.36726">
        <ele>665.4</ele>
        <time>2022-03-02T14:39:12.000Z</time>
      </trkpt>
      <trkpt lat="43.62767" lon="6.36719">
        <ele>665.7</ele>
        <time>2022-03-02T14:39:16.000Z</time>
      </trkpt>
      <trkpt lat="43.62769" lon="6.36713">
        <ele>665.9</ele>
        <time>2022-03-02T14:39:20.000Z</time>
      </trkpt>
      <trkpt lat="43.62771" lon="6.36707">
        <ele>666.4</ele>
        <time>2022-03-02T14:39:24.000Z</time>
      </trkpt>
      <trkpt lat="43.62774" lon="6.36701">
        <ele>666.9</ele>
        <time>2022-03-02T14:39:28.000Z</time>
      </trkpt>
      <trkpt lat="43.62776" lon="6.36695">
        <ele>667.3</ele>
        <time>2022-03-02T14:39:32.000Z</time>
      </trkpt>
      <trkpt lat="43.62779" lon="6.36688">
        <ele>667.7</ele>
        <time>2022-03-02T14:39:36.000Z</time>
      </trkpt>
      <trkpt lat="43.62781" lon="6.36682">
        <ele>668.2</ele>
        <time>2022-03-02T14:39:40.000Z</time>
      </trkpt>
      <trkpt lat="43.62783" lon="6.36676">
        <ele>668.6</ele>
        <time>2022-03-02T14:39:44.000Z</time>
      </trkpt>
      <trkpt lat="43.62786" lon="6.36669">
        <ele>668.9</ele>
        <time>2022-03-02T14:39:48.000Z</time>
      </trkpt>
      <trkpt lat="43.62788" lon="6.36663">
        <ele>669.2</ele>
        <time>2022-03-02T14:39:52.000Z</time>
      </trkpt>
      <trkpt lat="43.6279" lon="6.36657">
        <ele>669.5</ele>
        <time>2022-03-02T14:39:56.000Z</time>
      </trkpt>
      <trkpt lat="43.62793" lon="6.3665">
        <ele>669.9</ele>
        <time>2022-03-02T14:40:01.000Z</time>
      </trkpt>
      <trkpt lat="43.62795" lon="6.36645">
        <ele>670.1</ele>
        <time>2022-03-02T14:40:05.000Z</time>
      </trkpt>
      <trkpt lat="43.62798" lon="6.36639">
        <ele>670.5</ele>
        <time>2022-03-02T14:40:09.000Z</time>
      </trkpt>
      <trkpt lat="43.62802" lon="6.36634">
        <ele>670.7</ele>
        <time>2022-03-02T14:40:14.000Z</time>
      </trkpt>
      <trkpt lat="43.62806" lon="6.36628">
        <ele>671</ele>
        <time>2022-03-02T14:40:19.000Z</time>
      </trkpt>
      <trkpt lat="43.62809" lon="6.36622">
        <ele>671.2</ele>
        <time>2022-03-02T14:40:24.000Z</time>
      </trkpt>
      <trkpt lat="43.62811" lon="6.36616">
        <ele>671.4</ele>
        <time>2022-03-02T14:40:29.000Z</time>
      </trkpt>
      <trkpt lat="43.6281" lon="6.36608">
        <ele>671.6</ele>
        <time>2022-03-02T14:40:34.000Z</time>
      </trkpt>
      <trkpt lat="43.6281" lon="6.36602">
        <ele>671.9</ele>
        <time>2022-03-02T14:40:38.000Z</time>
      </trkpt>
      <trkpt lat="43.6281" lon="6.36595">
        <ele>672.2</ele>
        <time>2022-03-02T14:40:42.000Z</time>
      </trkpt>
      <trkpt lat="43.62811" lon="6.36587">
        <ele>672.5</ele>
        <time>2022-03-02T14:40:47.000Z</time>
      </trkpt>
      <trkpt lat="43.62812" lon="6.3658">
        <ele>672.6</ele>
        <time>2022-03-02T14:40:51.000Z</time>
      </trkpt>
      <trkpt lat="43.62813" lon="6.36574">
        <ele>672.6</ele>
        <time>2022-03-02T14:40:55.000Z</time>
      </trkpt>
      <trkpt lat="43.62814" lon="6.36567">
        <ele>672.5</ele>
        <time>2022-03-02T14:40:59.000Z</time>
      </trkpt>
      <trkpt lat="43.62815" lon="6.3656">
        <ele>672.5</ele>
        <time>2022-03-02T14:41:03.000Z</time>
      </trkpt>
      <trkpt lat="43.62817" lon="6.36554">
        <ele>672.5</ele>
        <time>2022-03-02T14:41:07.000Z</time>
      </trkpt>
      <trkpt lat="43.62818" lon="6.36547">
        <ele>672.5</ele>
        <time>2022-03-02T14:41:11.000Z</time>
      </trkpt>
      <trkpt lat="43.62818" lon="6.3654">
        <ele>672.4</ele>
        <time>2022-03-02T14:41:16.000Z</time>
      </trkpt>
      <trkpt lat="43.62817" lon="6.36533">
        <ele>672.4</ele>
        <time>2022-03-02T14:41:22.000Z</time>
      </trkpt>
      <trkpt lat="43.62819" lon="6.36526">
        <ele>672.3</ele>
        <time>2022-03-02T14:41:26.000Z</time>
      </trkpt>
      <trkpt lat="43.62821" lon="6.3652">
        <ele>672.1</ele>
        <time>2022-03-02T14:41:31.000Z</time>
      </trkpt>
      <trkpt lat="43.62822" lon="6.36513">
        <ele>671.9</ele>
        <time>2022-03-02T14:41:34.000Z</time>
      </trkpt>
      <trkpt lat="43.62823" lon="6.36507">
        <ele>671.8</ele>
        <time>2022-03-02T14:41:37.000Z</time>
      </trkpt>
      <trkpt lat="43.62825" lon="6.36501">
        <ele>671.7</ele>
        <time>2022-03-02T14:41:40.000Z</time>
      </trkpt>
      <trkpt lat="43.62825" lon="6.36494">
        <ele>671.5</ele>
        <time>2022-03-02T14:41:44.000Z</time>
      </trkpt>
      <trkpt lat="43.62827" lon="6.36488">
        <ele>671.4</ele>
        <time>2022-03-02T14:41:47.000Z</time>
      </trkpt>
      <trkpt lat="43.62829" lon="6.3648">
        <ele>671.4</ele>
        <time>2022-03-02T14:41:51.000Z</time>
      </trkpt>
      <trkpt lat="43.6283" lon="6.36472">
        <ele>671.3</ele>
        <time>2022-03-02T14:41:55.000Z</time>
      </trkpt>
      <trkpt lat="43.62831" lon="6.36464">
        <ele>671.3</ele>
        <time>2022-03-02T14:41:59.000Z</time>
      </trkpt>
      <trkpt lat="43.62831" lon="6.36457">
        <ele>671.2</ele>
        <time>2022-03-02T14:42:03.000Z</time>
      </trkpt>
      <trkpt lat="43.6283" lon="6.3645">
        <ele>671</ele>
        <time>2022-03-02T14:42:08.000Z</time>
      </trkpt>
      <trkpt lat="43.62828" lon="6.36444">
        <ele>670.6</ele>
        <time>2022-03-02T14:42:12.000Z</time>
      </trkpt>
      <trkpt lat="43.62825" lon="6.36438">
        <ele>670.4</ele>
        <time>2022-03-02T14:42:16.000Z</time>
      </trkpt>
      <trkpt lat="43.62821" lon="6.36433">
        <ele>670.2</ele>
        <time>2022-03-02T14:42:20.000Z</time>
      </trkpt>
      <trkpt lat="43.62817" lon="6.36429">
        <ele>670</ele>
        <time>2022-03-02T14:42:24.000Z</time>
      </trkpt>
      <trkpt lat="43.62812" lon="6.36427">
        <ele>670</ele>
        <time>2022-03-02T14:42:28.000Z</time>
      </trkpt>
      <trkpt lat="43.62807" lon="6.36425">
        <ele>670.1</ele>
        <time>2022-03-02T14:42:32.000Z</time>
      </trkpt>
      <trkpt lat="43.62802" lon="6.36424">
        <ele>670.2</ele>
        <time>2022-03-02T14:42:36.000Z</time>
      </trkpt>
      <trkpt lat="43.62798" lon="6.36422">
        <ele>670.3</ele>
        <time>2022-03-02T14:42:41.000Z</time>
      </trkpt>
      <trkpt lat="43.62793" lon="6.3642">
        <ele>670.4</ele>
        <time>2022-03-02T14:42:45.000Z</time>
      </trkpt>
      <trkpt lat="43.62789" lon="6.36415">
        <ele>670.4</ele>
        <time>2022-03-02T14:42:49.000Z</time>
      </trkpt>
      <trkpt lat="43.62786" lon="6.3641">
        <ele>670.7</ele>
        <time>2022-03-02T14:42:54.000Z</time>
      </trkpt>
      <trkpt lat="43.62782" lon="6.36406">
        <ele>670.9</ele>
        <time>2022-03-02T14:43:03.000Z</time>
      </trkpt>
      <trkpt lat="43.62782" lon="6.36399">
        <ele>670.4</ele>
        <time>2022-03-02T14:43:54.000Z</time>
      </trkpt>
      <trkpt lat="43.62783" lon="6.36393">
        <ele>670.5</ele>
        <time>2022-03-02T14:43:59.000Z</time>
      </trkpt>
      <trkpt lat="43.62784" lon="6.36385">
        <ele>670.6</ele>
        <time>2022-03-02T14:44:04.000Z</time>
      </trkpt>
      <trkpt lat="43.62785" lon="6.36379">
        <ele>670.4</ele>
        <time>2022-03-02T14:44:40.000Z</time>
      </trkpt>
      <trkpt lat="43.62785" lon="6.36372">
        <ele>670.4</ele>
        <time>2022-03-02T14:44:47.000Z</time>
      </trkpt>
      <trkpt lat="43.62785" lon="6.36366">
        <ele>670.3</ele>
        <time>2022-03-02T14:44:53.000Z</time>
      </trkpt>
      <trkpt lat="43.62786" lon="6.36359">
        <ele>670.2</ele>
        <time>2022-03-02T14:45:01.000Z</time>
      </trkpt>
      <trkpt lat="43.62786" lon="6.36353">
        <ele>669.6</ele>
        <time>2022-03-02T14:45:40.000Z</time>
      </trkpt>
      <trkpt lat="43.62791" lon="6.36352">
        <ele>669.3</ele>
        <time>2022-03-02T14:45:57.000Z</time>
      </trkpt>
      <trkpt lat="43.62795" lon="6.36351">
        <ele>669</ele>
        <time>2022-03-02T14:46:17.000Z</time>
      </trkpt>
      <trkpt lat="43.62791" lon="6.36353">
        <ele>668.7</ele>
        <time>2022-03-02T14:46:34.000Z</time>
      </trkpt>
      <trkpt lat="43.62786" lon="6.36351">
        <ele>668.5</ele>
        <time>2022-03-02T14:46:52.000Z</time>
      </trkpt>
      <trkpt lat="43.62784" lon="6.36345">
        <ele>666.5</ele>
        <time>2022-03-02T14:48:54.000Z</time>
      </trkpt>
      <trkpt lat="43.62787" lon="6.36339">
        <ele>666.5</ele>
        <time>2022-03-02T14:48:59.000Z</time>
      </trkpt>
      <trkpt lat="43.62789" lon="6.36333">
        <ele>666.4</ele>
        <time>2022-03-02T14:49:04.000Z</time>
      </trkpt>
      <trkpt lat="43.6279" lon="6.36326">
        <ele>666.4</ele>
        <time>2022-03-02T14:49:09.000Z</time>
      </trkpt>
      <trkpt lat="43.62792" lon="6.3632">
        <ele>666.4</ele>
        <time>2022-03-02T14:49:14.000Z</time>
      </trkpt>
      <trkpt lat="43.62793" lon="6.36313">
        <ele>666.3</ele>
        <time>2022-03-02T14:49:19.000Z</time>
      </trkpt>
      <trkpt lat="43.62794" lon="6.36306">
        <ele>666.4</ele>
        <time>2022-03-02T14:49:24.000Z</time>
      </trkpt>
      <trkpt lat="43.62796" lon="6.363">
        <ele>666.4</ele>
        <time>2022-03-02T14:49:28.000Z</time>
      </trkpt>
      <trkpt lat="43.62799" lon="6.36295">
        <ele>666.7</ele>
        <time>2022-03-02T14:49:32.000Z</time>
      </trkpt>
      <trkpt lat="43.62802" lon="6.36289">
        <ele>666.8</ele>
        <time>2022-03-02T14:49:37.000Z</time>
      </trkpt>
      <trkpt lat="43.62804" lon="6.36283">
        <ele>667</ele>
        <time>2022-03-02T14:49:42.000Z</time>
      </trkpt>
      <trkpt lat="43.62807" lon="6.36277">
        <ele>667.1</ele>
        <time>2022-03-02T14:49:47.000Z</time>
      </trkpt>
      <trkpt lat="43.62803" lon="6.36273">
        <ele>667.2</ele>
        <time>2022-03-02T14:49:56.000Z</time>
      </trkpt>
      <trkpt lat="43.62798" lon="6.36277">
        <ele>667</ele>
        <time>2022-03-02T14:50:02.000Z</time>
      </trkpt>
      <trkpt lat="43.62794" lon="6.36281">
        <ele>666.7</ele>
        <time>2022-03-02T14:50:07.000Z</time>
      </trkpt>
      <trkpt lat="43.62791" lon="6.36286">
        <ele>666.4</ele>
        <time>2022-03-02T14:50:12.000Z</time>
      </trkpt>
      <trkpt lat="43.62786" lon="6.3629">
        <ele>666.1</ele>
        <time>2022-03-02T14:50:18.000Z</time>
      </trkpt>
      <trkpt lat="43.62783" lon="6.36295">
        <ele>665.9</ele>
        <time>2022-03-02T14:50:22.000Z</time>
      </trkpt>
      <trkpt lat="43.62779" lon="6.36299">
        <ele>665.6</ele>
        <time>2022-03-02T14:50:27.000Z</time>
      </trkpt>
      <trkpt lat="43.62776" lon="6.36302">
        <ele>665.1</ele>
        <time>2022-03-02T14:50:33.000Z</time>
      </trkpt>
      <trkpt lat="43.62772" lon="6.36307">
        <ele>664.7</ele>
        <time>2022-03-02T14:50:38.000Z</time>
      </trkpt>
      <trkpt lat="43.62768" lon="6.36311">
        <ele>664.2</ele>
        <time>2022-03-02T14:50:43.000Z</time>
      </trkpt>
      <trkpt lat="43.62763" lon="6.36314">
        <ele>663.8</ele>
        <time>2022-03-02T14:50:48.000Z</time>
      </trkpt>
      <trkpt lat="43.62759" lon="6.36318">
        <ele>663.5</ele>
        <time>2022-03-02T14:50:51.000Z</time>
      </trkpt>
      <trkpt lat="43.62753" lon="6.36321">
        <ele>663.1</ele>
        <time>2022-03-02T14:50:55.000Z</time>
      </trkpt>
      <trkpt lat="43.62749" lon="6.36323">
        <ele>662.7</ele>
        <time>2022-03-02T14:50:59.000Z</time>
      </trkpt>
      <trkpt lat="43.62744" lon="6.36325">
        <ele>662.2</ele>
        <time>2022-03-02T14:51:03.000Z</time>
      </trkpt>
      <trkpt lat="43.62739" lon="6.36328">
        <ele>661.5</ele>
        <time>2022-03-02T14:51:08.000Z</time>
      </trkpt>
      <trkpt lat="43.62735" lon="6.36331">
        <ele>661.1</ele>
        <time>2022-03-02T14:51:12.000Z</time>
      </trkpt>
      <trkpt lat="43.6273" lon="6.36334">
        <ele>660.6</ele>
        <time>2022-03-02T14:51:17.000Z</time>
      </trkpt>
      <trkpt lat="43.62725" lon="6.36335">
        <ele>660.3</ele>
        <time>2022-03-02T14:51:21.000Z</time>
      </trkpt>
      <trkpt lat="43.62719" lon="6.36336">
        <ele>659.9</ele>
        <time>2022-03-02T14:51:26.000Z</time>
      </trkpt>
      <trkpt lat="43.62714" lon="6.36337">
        <ele>659.5</ele>
        <time>2022-03-02T14:51:30.000Z</time>
      </trkpt>
      <trkpt lat="43.62709" lon="6.36337">
        <ele>659.1</ele>
        <time>2022-03-02T14:51:34.000Z</time>
      </trkpt>
      <trkpt lat="43.62704" lon="6.36339">
        <ele>658.5</ele>
        <time>2022-03-02T14:51:43.000Z</time>
      </trkpt>
      <trkpt lat="43.627" lon="6.36343">
        <ele>658.3</ele>
        <time>2022-03-02T14:51:48.000Z</time>
      </trkpt>
      <trkpt lat="43.62696" lon="6.36347">
        <ele>658.2</ele>
        <time>2022-03-02T14:51:52.000Z</time>
      </trkpt>
      <trkpt lat="43.62692" lon="6.36351">
        <ele>657.8</ele>
        <time>2022-03-02T14:51:57.000Z</time>
      </trkpt>
      <trkpt lat="43.62689" lon="6.36356">
        <ele>657.4</ele>
        <time>2022-03-02T14:52:02.000Z</time>
      </trkpt>
      <trkpt lat="43.62685" lon="6.36359">
        <ele>657.1</ele>
        <time>2022-03-02T14:52:05.000Z</time>
      </trkpt>
      <trkpt lat="43.6268" lon="6.36363">
        <ele>656.8</ele>
        <time>2022-03-02T14:52:09.000Z</time>
      </trkpt>
      <trkpt lat="43.62676" lon="6.36368">
        <ele>656.4</ele>
        <time>2022-03-02T14:52:13.000Z</time>
      </trkpt>
      <trkpt lat="43.62671" lon="6.3637">
        <ele>656.2</ele>
        <time>2022-03-02T14:52:16.000Z</time>
      </trkpt>
      <trkpt lat="43.62666" lon="6.36374">
        <ele>655.7</ele>
        <time>2022-03-02T14:52:20.000Z</time>
      </trkpt>
      <trkpt lat="43.62662" lon="6.36378">
        <ele>655.3</ele>
        <time>2022-03-02T14:52:24.000Z</time>
      </trkpt>
      <trkpt lat="43.62657" lon="6.36382">
        <ele>655</ele>
        <time>2022-03-02T14:52:28.000Z</time>
      </trkpt>
      <trkpt lat="43.62653" lon="6.36385">
        <ele>654.7</ele>
        <time>2022-03-02T14:52:31.000Z</time>
      </trkpt>
      <trkpt lat="43.62649" lon="6.3639">
        <ele>654.3</ele>
        <time>2022-03-02T14:52:35.000Z</time>
      </trkpt>
      <trkpt lat="43.62645" lon="6.36394">
        <ele>653.7</ele>
        <time>2022-03-02T14:52:39.000Z</time>
      </trkpt>
      <trkpt lat="43.62641" lon="6.36398">
        <ele>653.2</ele>
        <time>2022-03-02T14:52:43.000Z</time>
      </trkpt>
      <trkpt lat="43.62637" lon="6.36402">
        <ele>652.8</ele>
        <time>2022-03-02T14:52:47.000Z</time>
      </trkpt>
      <trkpt lat="43.62633" lon="6.36406">
        <ele>652.4</ele>
        <time>2022-03-02T14:52:51.000Z</time>
      </trkpt>
      <trkpt lat="43.62629" lon="6.36409">
        <ele>652.2</ele>
        <time>2022-03-02T14:52:54.000Z</time>
      </trkpt>
      <trkpt lat="43.62624" lon="6.36413">
        <ele>651.8</ele>
        <time>2022-03-02T14:52:58.000Z</time>
      </trkpt>
      <trkpt lat="43.6262" lon="6.36417">
        <ele>651.2</ele>
        <time>2022-03-02T14:53:02.000Z</time>
      </trkpt>
      <trkpt lat="43.62616" lon="6.36422">
        <ele>650.8</ele>
        <time>2022-03-02T14:53:06.000Z</time>
      </trkpt>
      <trkpt lat="43.62612" lon="6.36427">
        <ele>650</ele>
        <time>2022-03-02T14:53:10.000Z</time>
      </trkpt>
      <trkpt lat="43.62607" lon="6.36431">
        <ele>649.5</ele>
        <time>2022-03-02T14:53:14.000Z</time>
      </trkpt>
      <trkpt lat="43.62603" lon="6.36436">
        <ele>649.1</ele>
        <time>2022-03-02T14:53:18.000Z</time>
      </trkpt>
      <trkpt lat="43.62599" lon="6.3644">
        <ele>648.7</ele>
        <time>2022-03-02T14:53:22.000Z</time>
      </trkpt>
      <trkpt lat="43.62595" lon="6.36444">
        <ele>648.3</ele>
        <time>2022-03-02T14:53:26.000Z</time>
      </trkpt>
      <trkpt lat="43.6259" lon="6.36448">
        <ele>647.9</ele>
        <time>2022-03-02T14:53:30.000Z</time>
      </trkpt>
      <trkpt lat="43.62586" lon="6.36452">
        <ele>647.4</ele>
        <time>2022-03-02T14:53:35.000Z</time>
      </trkpt>
      <trkpt lat="43.62581" lon="6.36454">
        <ele>647</ele>
        <time>2022-03-02T14:53:39.000Z</time>
      </trkpt>
      <trkpt lat="43.62577" lon="6.36455">
        <ele>646.8</ele>
        <time>2022-03-02T14:53:43.000Z</time>
      </trkpt>
      <trkpt lat="43.62571" lon="6.36454">
        <ele>646.4</ele>
        <time>2022-03-02T14:53:48.000Z</time>
      </trkpt>
      <trkpt lat="43.62566" lon="6.36453">
        <ele>646</ele>
        <time>2022-03-02T14:53:53.000Z</time>
      </trkpt>
      <trkpt lat="43.62561" lon="6.3645">
        <ele>645.6</ele>
        <time>2022-03-02T14:53:58.000Z</time>
      </trkpt>
      <trkpt lat="43.62556" lon="6.36448">
        <ele>645.1</ele>
        <time>2022-03-02T14:54:04.000Z</time>
      </trkpt>
      <trkpt lat="43.62552" lon="6.36446">
        <ele>644.8</ele>
        <time>2022-03-02T14:54:09.000Z</time>
      </trkpt>
      <trkpt lat="43.62547" lon="6.36444">
        <ele>644.4</ele>
        <time>2022-03-02T14:54:13.000Z</time>
      </trkpt>
      <trkpt lat="43.62542" lon="6.36442">
        <ele>644.1</ele>
        <time>2022-03-02T14:54:17.000Z</time>
      </trkpt>
      <trkpt lat="43.62536" lon="6.3644">
        <ele>643.8</ele>
        <time>2022-03-02T14:54:21.000Z</time>
      </trkpt>
      <trkpt lat="43.6253" lon="6.36439">
        <ele>643.7</ele>
        <time>2022-03-02T14:54:24.000Z</time>
      </trkpt>
      <trkpt lat="43.62525" lon="6.36437">
        <ele>643.6</ele>
        <time>2022-03-02T14:54:27.000Z</time>
      </trkpt>
      <trkpt lat="43.62521" lon="6.36436">
        <ele>643.4</ele>
        <time>2022-03-02T14:54:30.000Z</time>
      </trkpt>
      <trkpt lat="43.62515" lon="6.36434">
        <ele>643.1</ele>
        <time>2022-03-02T14:54:34.000Z</time>
      </trkpt>
      <trkpt lat="43.6251" lon="6.36433">
        <ele>643</ele>
        <time>2022-03-02T14:54:38.000Z</time>
      </trkpt>
      <trkpt lat="43.62504" lon="6.36431">
        <ele>643</ele>
        <time>2022-03-02T14:54:42.000Z</time>
      </trkpt>
      <trkpt lat="43.62499" lon="6.36429">
        <ele>642.9</ele>
        <time>2022-03-02T14:54:46.000Z</time>
      </trkpt>
      <trkpt lat="43.62494" lon="6.36428">
        <ele>642.8</ele>
        <time>2022-03-02T14:54:50.000Z</time>
      </trkpt>
      <trkpt lat="43.62489" lon="6.36426">
        <ele>642.7</ele>
        <time>2022-03-02T14:54:54.000Z</time>
      </trkpt>
      <trkpt lat="43.62484" lon="6.36424">
        <ele>642.5</ele>
        <time>2022-03-02T14:54:58.000Z</time>
      </trkpt>
      <trkpt lat="43.62479" lon="6.36422">
        <ele>642.3</ele>
        <time>2022-03-02T14:55:02.000Z</time>
      </trkpt>
      <trkpt lat="43.62474" lon="6.36421">
        <ele>642.1</ele>
        <time>2022-03-02T14:55:06.000Z</time>
      </trkpt>
      <trkpt lat="43.62469" lon="6.36419">
        <ele>641.8</ele>
        <time>2022-03-02T14:55:10.000Z</time>
      </trkpt>
      <trkpt lat="43.62464" lon="6.36417">
        <ele>641.4</ele>
        <time>2022-03-02T14:55:14.000Z</time>
      </trkpt>
      <trkpt lat="43.6246" lon="6.36415">
        <ele>641</ele>
        <time>2022-03-02T14:55:18.000Z</time>
      </trkpt>
      <trkpt lat="43.62455" lon="6.36414">
        <ele>640.7</ele>
        <time>2022-03-02T14:55:22.000Z</time>
      </trkpt>
      <trkpt lat="43.6245" lon="6.36412">
        <ele>640.4</ele>
        <time>2022-03-02T14:55:26.000Z</time>
      </trkpt>
      <trkpt lat="43.62445" lon="6.3641">
        <ele>640.2</ele>
        <time>2022-03-02T14:55:30.000Z</time>
      </trkpt>
      <trkpt lat="43.6244" lon="6.36408">
        <ele>639.9</ele>
        <time>2022-03-02T14:55:34.000Z</time>
      </trkpt>
      <trkpt lat="43.62436" lon="6.36405">
        <ele>639.5</ele>
        <time>2022-03-02T14:55:38.000Z</time>
      </trkpt>
      <trkpt lat="43.62431" lon="6.36403">
        <ele>639.1</ele>
        <time>2022-03-02T14:55:42.000Z</time>
      </trkpt>
      <trkpt lat="43.62427" lon="6.36401">
        <ele>638.8</ele>
        <time>2022-03-02T14:55:46.000Z</time>
      </trkpt>
      <trkpt lat="43.62422" lon="6.36399">
        <ele>638.5</ele>
        <time>2022-03-02T14:55:50.000Z</time>
      </trkpt>
      <trkpt lat="43.62417" lon="6.36397">
        <ele>638.3</ele>
        <time>2022-03-02T14:55:54.000Z</time>
      </trkpt>
      <trkpt lat="43.62412" lon="6.36395">
        <ele>637.9</ele>
        <time>2022-03-02T14:55:58.000Z</time>
      </trkpt>
      <trkpt lat="43.62407" lon="6.36393">
        <ele>637.5</ele>
        <time>2022-03-02T14:56:02.000Z</time>
      </trkpt>
      <trkpt lat="43.62403" lon="6.36391">
        <ele>637.2</ele>
        <time>2022-03-02T14:56:06.000Z</time>
      </trkpt>
      <trkpt lat="43.62398" lon="6.3639">
        <ele>636.9</ele>
        <time>2022-03-02T14:56:10.000Z</time>
      </trkpt>
      <trkpt lat="43.62394" lon="6.36388">
        <ele>636.5</ele>
        <time>2022-03-02T14:56:15.000Z</time>
      </trkpt>
      <trkpt lat="43.62389" lon="6.36389">
        <ele>636.1</ele>
        <time>2022-03-02T14:56:21.000Z</time>
      </trkpt>
      <trkpt lat="43.62385" lon="6.36393">
        <ele>635.5</ele>
        <time>2022-03-02T14:56:32.000Z</time>
      </trkpt>
      <trkpt lat="43.62383" lon="6.36398">
        <ele>635</ele>
        <time>2022-03-02T14:56:43.000Z</time>
      </trkpt>
      <trkpt lat="43.62382" lon="6.36405">
        <ele>634.8</ele>
        <time>2022-03-02T14:56:49.000Z</time>
      </trkpt>
      <trkpt lat="43.62382" lon="6.36411">
        <ele>634.9</ele>
        <time>2022-03-02T14:57:02.000Z</time>
      </trkpt>
      <trkpt lat="43.62381" lon="6.36417">
        <ele>634.9</ele>
        <time>2022-03-02T14:57:08.000Z</time>
      </trkpt>
      <trkpt lat="43.62381" lon="6.36424">
        <ele>634.9</ele>
        <time>2022-03-02T14:57:14.000Z</time>
      </trkpt>
      <trkpt lat="43.62381" lon="6.3643">
        <ele>634.9</ele>
        <time>2022-03-02T14:57:20.000Z</time>
      </trkpt>
      <trkpt lat="43.62381" lon="6.36437">
        <ele>634.5</ele>
        <time>2022-03-02T14:57:28.000Z</time>
      </trkpt>
      <trkpt lat="43.62381" lon="6.36444">
        <ele>634.2</ele>
        <time>2022-03-02T14:57:36.000Z</time>
      </trkpt>
      <trkpt lat="43.62382" lon="6.3645">
        <ele>634</ele>
        <time>2022-03-02T14:57:44.000Z</time>
      </trkpt>
      <trkpt lat="43.6238" lon="6.36456">
        <ele>633</ele>
        <time>2022-03-02T14:58:24.000Z</time>
      </trkpt>
      <trkpt lat="43.62375" lon="6.36456">
        <ele>632.2</ele>
        <time>2022-03-02T14:59:12.000Z</time>
      </trkpt>
      <trkpt lat="43.62377" lon="6.3645">
        <ele>630.7</ele>
        <time>2022-03-02T15:00:47.000Z</time>
      </trkpt>
      <trkpt lat="43.62382" lon="6.36452">
        <ele>630.1</ele>
        <time>2022-03-02T15:01:27.000Z</time>
      </trkpt>
      <trkpt lat="43.62385" lon="6.36447">
        <ele>629.9</ele>
        <time>2022-03-02T15:02:12.000Z</time>
      </trkpt>
      <trkpt lat="43.6239" lon="6.36449">
        <ele>629.8</ele>
        <time>2022-03-02T15:02:20.000Z</time>
      </trkpt>
      <trkpt lat="43.62392" lon="6.36455">
        <ele>629.9</ele>
        <time>2022-03-02T15:02:26.000Z</time>
      </trkpt>
      <trkpt lat="43.62393" lon="6.36462">
        <ele>630</ele>
        <time>2022-03-02T15:02:33.000Z</time>
      </trkpt>
      <trkpt lat="43.62394" lon="6.36469">
        <ele>630</ele>
        <time>2022-03-02T15:02:40.000Z</time>
      </trkpt>
      <trkpt lat="43.62395" lon="6.36475">
        <ele>630</ele>
        <time>2022-03-02T15:02:46.000Z</time>
      </trkpt>
      <trkpt lat="43.62395" lon="6.36482">
        <ele>629.9</ele>
        <time>2022-03-02T15:02:52.000Z</time>
      </trkpt>
      <trkpt lat="43.62394" lon="6.36489">
        <ele>629.7</ele>
        <time>2022-03-02T15:02:59.000Z</time>
      </trkpt>
      <trkpt lat="43.62393" lon="6.36495">
        <ele>629.3</ele>
        <time>2022-03-02T15:03:22.000Z</time>
      </trkpt>
      <trkpt lat="43.62389" lon="6.36495">
        <ele>628.1</ele>
        <time>2022-03-02T15:03:51.000Z</time>
      </trkpt>
      <trkpt lat="43.62392" lon="6.3649">
        <ele>627.7</ele>
        <time>2022-03-02T15:04:46.000Z</time>
      </trkpt>
      <trkpt lat="43.62393" lon="6.36483">
        <ele>627.6</ele>
        <time>2022-03-02T15:04:52.000Z</time>
      </trkpt>
      <trkpt lat="43.62394" lon="6.36476">
        <ele>627.5</ele>
        <time>2022-03-02T15:04:57.000Z</time>
      </trkpt>
      <trkpt lat="43.62393" lon="6.3647">
        <ele>627.5</ele>
        <time>2022-03-02T15:05:01.000Z</time>
      </trkpt>
      <trkpt lat="43.62393" lon="6.36463">
        <ele>627.5</ele>
        <time>2022-03-02T15:05:06.000Z</time>
      </trkpt>
      <trkpt lat="43.62391" lon="6.36457">
        <ele>627.5</ele>
        <time>2022-03-02T15:05:10.000Z</time>
      </trkpt>
      <trkpt lat="43.6239" lon="6.36449">
        <ele>627.5</ele>
        <time>2022-03-02T15:05:15.000Z</time>
      </trkpt>
      <trkpt lat="43.62389" lon="6.36443">
        <ele>627.5</ele>
        <time>2022-03-02T15:05:19.000Z</time>
      </trkpt>
      <trkpt lat="43.62387" lon="6.36437">
        <ele>627.5</ele>
        <time>2022-03-02T15:05:23.000Z</time>
      </trkpt>
      <trkpt lat="43.62385" lon="6.36431">
        <ele>627.4</ele>
        <time>2022-03-02T15:05:27.000Z</time>
      </trkpt>
      <trkpt lat="43.62383" lon="6.36425">
        <ele>627.4</ele>
        <time>2022-03-02T15:05:31.000Z</time>
      </trkpt>
      <trkpt lat="43.62382" lon="6.36418">
        <ele>627.4</ele>
        <time>2022-03-02T15:05:35.000Z</time>
      </trkpt>
      <trkpt lat="43.62383" lon="6.36411">
        <ele>627.3</ele>
        <time>2022-03-02T15:05:39.000Z</time>
      </trkpt>
      <trkpt lat="43.62382" lon="6.36404">
        <ele>627.3</ele>
        <time>2022-03-02T15:05:43.000Z</time>
      </trkpt>
      <trkpt lat="43.62383" lon="6.36397">
        <ele>627.1</ele>
        <time>2022-03-02T15:05:50.000Z</time>
      </trkpt>
      <trkpt lat="43.62384" lon="6.36391">
        <ele>626.9</ele>
        <time>2022-03-02T15:05:58.000Z</time>
      </trkpt>
      <trkpt lat="43.62382" lon="6.36385">
        <ele>626.4</ele>
        <time>2022-03-02T15:06:09.000Z</time>
      </trkpt>
      <trkpt lat="43.62377" lon="6.36383">
        <ele>626.1</ele>
        <time>2022-03-02T15:06:15.000Z</time>
      </trkpt>
      <trkpt lat="43.62372" lon="6.36381">
        <ele>625.7</ele>
        <time>2022-03-02T15:06:21.000Z</time>
      </trkpt>
      <trkpt lat="43.62368" lon="6.36378">
        <ele>625.4</ele>
        <time>2022-03-02T15:06:26.000Z</time>
      </trkpt>
      <trkpt lat="43.62363" lon="6.36377">
        <ele>625.1</ele>
        <time>2022-03-02T15:06:31.000Z</time>
      </trkpt>
      <trkpt lat="43.62359" lon="6.36376">
        <ele>624.9</ele>
        <time>2022-03-02T15:06:35.000Z</time>
      </trkpt>
      <trkpt lat="43.62354" lon="6.36376">
        <ele>624.7</ele>
        <time>2022-03-02T15:06:40.000Z</time>
      </trkpt>
      <trkpt lat="43.62348" lon="6.36376">
        <ele>624.2</ele>
        <time>2022-03-02T15:06:45.000Z</time>
      </trkpt>
      <trkpt lat="43.62343" lon="6.36377">
        <ele>623.6</ele>
        <time>2022-03-02T15:06:51.000Z</time>
      </trkpt>
      <trkpt lat="43.62338" lon="6.36377">
        <ele>623</ele>
        <time>2022-03-02T15:06:56.000Z</time>
      </trkpt>
      <trkpt lat="43.62334" lon="6.36375">
        <ele>622.6</ele>
        <time>2022-03-02T15:07:02.000Z</time>
      </trkpt>
      <trkpt lat="43.62329" lon="6.36375">
        <ele>622.4</ele>
        <time>2022-03-02T15:07:08.000Z</time>
      </trkpt>
      <trkpt lat="43.62325" lon="6.36374">
        <ele>622.4</ele>
        <time>2022-03-02T15:07:13.000Z</time>
      </trkpt>
      <trkpt lat="43.6232" lon="6.36373">
        <ele>622.6</ele>
        <time>2022-03-02T15:07:19.000Z</time>
      </trkpt>
      <trkpt lat="43.62315" lon="6.36373">
        <ele>622.7</ele>
        <time>2022-03-02T15:07:24.000Z</time>
      </trkpt>
      <trkpt lat="43.6231" lon="6.36376">
        <ele>622.8</ele>
        <time>2022-03-02T15:07:28.000Z</time>
      </trkpt>
      <trkpt lat="43.62305" lon="6.36379">
        <ele>623</ele>
        <time>2022-03-02T15:07:33.000Z</time>
      </trkpt>
      <trkpt lat="43.62301" lon="6.36382">
        <ele>623.2</ele>
        <time>2022-03-02T15:07:37.000Z</time>
      </trkpt>
      <trkpt lat="43.62297" lon="6.36386">
        <ele>623.3</ele>
        <time>2022-03-02T15:07:41.000Z</time>
      </trkpt>
      <trkpt lat="43.62293" lon="6.3639">
        <ele>623.4</ele>
        <time>2022-03-02T15:07:45.000Z</time>
      </trkpt>
      <trkpt lat="43.62289" lon="6.36394">
        <ele>623.5</ele>
        <time>2022-03-02T15:07:49.000Z</time>
      </trkpt>
      <trkpt lat="43.62285" lon="6.36399">
        <ele>623.5</ele>
        <time>2022-03-02T15:07:54.000Z</time>
      </trkpt>
      <trkpt lat="43.62281" lon="6.36404">
        <ele>623.6</ele>
        <time>2022-03-02T15:07:59.000Z</time>
      </trkpt>
      <trkpt lat="43.62278" lon="6.36409">
        <ele>623.6</ele>
        <time>2022-03-02T15:08:04.000Z</time>
      </trkpt>
      <trkpt lat="43.62274" lon="6.36414">
        <ele>623.6</ele>
        <time>2022-03-02T15:08:09.000Z</time>
      </trkpt>
      <trkpt lat="43.6227" lon="6.36418">
        <ele>623.7</ele>
        <time>2022-03-02T15:08:14.000Z</time>
      </trkpt>
      <trkpt lat="43.62267" lon="6.36423">
        <ele>623.7</ele>
        <time>2022-03-02T15:08:18.000Z</time>
      </trkpt>
      <trkpt lat="43.62263" lon="6.36428">
        <ele>623.8</ele>
        <time>2022-03-02T15:08:23.000Z</time>
      </trkpt>
      <trkpt lat="43.62259" lon="6.36431">
        <ele>623.9</ele>
        <time>2022-03-02T15:08:28.000Z</time>
      </trkpt>
      <trkpt lat="43.62255" lon="6.36437">
        <ele>623.9</ele>
        <time>2022-03-02T15:08:34.000Z</time>
      </trkpt>
      <trkpt lat="43.62252" lon="6.36443">
        <ele>623.9</ele>
        <time>2022-03-02T15:08:40.000Z</time>
      </trkpt>
      <trkpt lat="43.62248" lon="6.36445">
        <ele>624</ele>
        <time>2022-03-02T15:08:44.000Z</time>
      </trkpt>
      <trkpt lat="43.62243" lon="6.36446">
        <ele>624.1</ele>
        <time>2022-03-02T15:08:50.000Z</time>
      </trkpt>
      <trkpt lat="43.62239" lon="6.3645">
        <ele>624.4</ele>
        <time>2022-03-02T15:08:57.000Z</time>
      </trkpt>
      <trkpt lat="43.62235" lon="6.36454">
        <ele>624.5</ele>
        <time>2022-03-02T15:09:02.000Z</time>
      </trkpt>
      <trkpt lat="43.6223" lon="6.36458">
        <ele>624.6</ele>
        <time>2022-03-02T15:09:07.000Z</time>
      </trkpt>
      <trkpt lat="43.62226" lon="6.36463">
        <ele>624.7</ele>
        <time>2022-03-02T15:09:12.000Z</time>
      </trkpt>
      <trkpt lat="43.62222" lon="6.36468">
        <ele>624.8</ele>
        <time>2022-03-02T15:09:17.000Z</time>
      </trkpt>
      <trkpt lat="43.62218" lon="6.36473">
        <ele>625</ele>
        <time>2022-03-02T15:09:22.000Z</time>
      </trkpt>
      <trkpt lat="43.62214" lon="6.36478">
        <ele>625.1</ele>
        <time>2022-03-02T15:09:26.000Z</time>
      </trkpt>
      <trkpt lat="43.62211" lon="6.36482">
        <ele>625.2</ele>
        <time>2022-03-02T15:09:30.000Z</time>
      </trkpt>
      <trkpt lat="43.62207" lon="6.36486">
        <ele>625.2</ele>
        <time>2022-03-02T15:09:34.000Z</time>
      </trkpt>
      <trkpt lat="43.62204" lon="6.36491">
        <ele>625.3</ele>
        <time>2022-03-02T15:09:38.000Z</time>
      </trkpt>
      <trkpt lat="43.62201" lon="6.36495">
        <ele>625.3</ele>
        <time>2022-03-02T15:09:42.000Z</time>
      </trkpt>
      <trkpt lat="43.62198" lon="6.365">
        <ele>625.3</ele>
        <time>2022-03-02T15:09:46.000Z</time>
      </trkpt>
      <trkpt lat="43.62194" lon="6.36506">
        <ele>625.3</ele>
        <time>2022-03-02T15:09:51.000Z</time>
      </trkpt>
      <trkpt lat="43.62191" lon="6.36511">
        <ele>625.3</ele>
        <time>2022-03-02T15:09:56.000Z</time>
      </trkpt>
      <trkpt lat="43.62188" lon="6.36515">
        <ele>625.2</ele>
        <time>2022-03-02T15:10:02.000Z</time>
      </trkpt>
      <trkpt lat="43.62183" lon="6.3652">
        <ele>625.2</ele>
        <time>2022-03-02T15:10:08.000Z</time>
      </trkpt>
      <trkpt lat="43.62179" lon="6.36525">
        <ele>625.1</ele>
        <time>2022-03-02T15:10:13.000Z</time>
      </trkpt>
      <trkpt lat="43.62175" lon="6.3653">
        <ele>625</ele>
        <time>2022-03-02T15:10:18.000Z</time>
      </trkpt>
      <trkpt lat="43.6217" lon="6.36533">
        <ele>625</ele>
        <time>2022-03-02T15:10:24.000Z</time>
      </trkpt>
      <trkpt lat="43.62166" lon="6.36537">
        <ele>625.1</ele>
        <time>2022-03-02T15:10:29.000Z</time>
      </trkpt>
      <trkpt lat="43.62162" lon="6.3654">
        <ele>625.2</ele>
        <time>2022-03-02T15:10:33.000Z</time>
      </trkpt>
      <trkpt lat="43.62158" lon="6.36544">
        <ele>625.3</ele>
        <time>2022-03-02T15:10:38.000Z</time>
      </trkpt>
      <trkpt lat="43.62154" lon="6.36549">
        <ele>625.5</ele>
        <time>2022-03-02T15:10:43.000Z</time>
      </trkpt>
      <trkpt lat="43.62151" lon="6.36553">
        <ele>625.8</ele>
        <time>2022-03-02T15:10:49.000Z</time>
      </trkpt>
      <trkpt lat="43.62147" lon="6.36557">
        <ele>626.1</ele>
        <time>2022-03-02T15:10:55.000Z</time>
      </trkpt>
      <trkpt lat="43.62143" lon="6.36559">
        <ele>626.5</ele>
        <time>2022-03-02T15:11:01.000Z</time>
      </trkpt>
      <trkpt lat="43.62137" lon="6.36562">
        <ele>626.8</ele>
        <time>2022-03-02T15:11:05.000Z</time>
      </trkpt>
      <trkpt lat="43.62132" lon="6.36563">
        <ele>627</ele>
        <time>2022-03-02T15:11:09.000Z</time>
      </trkpt>
      <trkpt lat="43.62127" lon="6.36564">
        <ele>627.2</ele>
        <time>2022-03-02T15:11:13.000Z</time>
      </trkpt>
      <trkpt lat="43.62122" lon="6.36565">
        <ele>627.6</ele>
        <time>2022-03-02T15:11:18.000Z</time>
      </trkpt>
      <trkpt lat="43.62117" lon="6.36566">
        <ele>627.8</ele>
        <time>2022-03-02T15:11:22.000Z</time>
      </trkpt>
      <trkpt lat="43.62113" lon="6.36566">
        <ele>628.1</ele>
        <time>2022-03-02T15:11:26.000Z</time>
      </trkpt>
      <trkpt lat="43.62108" lon="6.36567">
        <ele>628.4</ele>
        <time>2022-03-02T15:11:31.000Z</time>
      </trkpt>
      <trkpt lat="43.62103" lon="6.3657">
        <ele>628.6</ele>
        <time>2022-03-02T15:11:36.000Z</time>
      </trkpt>
      <trkpt lat="43.62098" lon="6.36571">
        <ele>628.8</ele>
        <time>2022-03-02T15:11:41.000Z</time>
      </trkpt>
      <trkpt lat="43.62093" lon="6.36573">
        <ele>629.1</ele>
        <time>2022-03-02T15:11:45.000Z</time>
      </trkpt>
      <trkpt lat="43.62089" lon="6.36574">
        <ele>629.2</ele>
        <time>2022-03-02T15:11:48.000Z</time>
      </trkpt>
      <trkpt lat="43.62083" lon="6.36576">
        <ele>629.3</ele>
        <time>2022-03-02T15:11:52.000Z</time>
      </trkpt>
      <trkpt lat="43.62078" lon="6.36576">
        <ele>629.4</ele>
        <time>2022-03-02T15:11:56.000Z</time>
      </trkpt>
      <trkpt lat="43.62073" lon="6.36578">
        <ele>629.6</ele>
        <time>2022-03-02T15:12:00.000Z</time>
      </trkpt>
      <trkpt lat="43.62069" lon="6.3658">
        <ele>629.8</ele>
        <time>2022-03-02T15:12:03.000Z</time>
      </trkpt>
      <trkpt lat="43.62064" lon="6.36582">
        <ele>629.9</ele>
        <time>2022-03-02T15:12:07.000Z</time>
      </trkpt>
      <trkpt lat="43.62059" lon="6.36584">
        <ele>630.1</ele>
        <time>2022-03-02T15:12:11.000Z</time>
      </trkpt>
      <trkpt lat="43.62054" lon="6.36586">
        <ele>630.1</ele>
        <time>2022-03-02T15:12:15.000Z</time>
      </trkpt>
      <trkpt lat="43.62049" lon="6.36588">
        <ele>630.2</ele>
        <time>2022-03-02T15:12:19.000Z</time>
      </trkpt>
      <trkpt lat="43.62045" lon="6.3659">
        <ele>630.4</ele>
        <time>2022-03-02T15:12:23.000Z</time>
      </trkpt>
      <trkpt lat="43.6204" lon="6.36592">
        <ele>630.5</ele>
        <time>2022-03-02T15:12:27.000Z</time>
      </trkpt>
      <trkpt lat="43.62035" lon="6.36594">
        <ele>630.6</ele>
        <time>2022-03-02T15:12:31.000Z</time>
      </trkpt>
      <trkpt lat="43.62031" lon="6.36596">
        <ele>630.7</ele>
        <time>2022-03-02T15:12:35.000Z</time>
      </trkpt>
      <trkpt lat="43.62026" lon="6.36598">
        <ele>630.7</ele>
        <time>2022-03-02T15:12:39.000Z</time>
      </trkpt>
      <trkpt lat="43.62022" lon="6.366">
        <ele>630.8</ele>
        <time>2022-03-02T15:12:43.000Z</time>
      </trkpt>
      <trkpt lat="43.62018" lon="6.36604">
        <ele>630.9</ele>
        <time>2022-03-02T15:12:47.000Z</time>
      </trkpt>
      <trkpt lat="43.62014" lon="6.36607">
        <ele>631</ele>
        <time>2022-03-02T15:12:50.000Z</time>
      </trkpt>
      <trkpt lat="43.62009" lon="6.36612">
        <ele>631</ele>
        <time>2022-03-02T15:12:54.000Z</time>
      </trkpt>
      <trkpt lat="43.62005" lon="6.36615">
        <ele>631.1</ele>
        <time>2022-03-02T15:12:58.000Z</time>
      </trkpt>
      <trkpt lat="43.62" lon="6.36616">
        <ele>631.6</ele>
        <time>2022-03-02T15:13:24.000Z</time>
      </trkpt>
      <trkpt lat="43.61996" lon="6.36619">
        <ele>631.7</ele>
        <time>2022-03-02T15:13:31.000Z</time>
      </trkpt>
      <trkpt lat="43.61993" lon="6.36623">
        <ele>631.9</ele>
        <time>2022-03-02T15:13:41.000Z</time>
      </trkpt>
      <trkpt lat="43.61988" lon="6.36623">
        <ele>632</ele>
        <time>2022-03-02T15:13:48.000Z</time>
      </trkpt>
      <trkpt lat="43.61983" lon="6.36624">
        <ele>632.3</ele>
        <time>2022-03-02T15:13:55.000Z</time>
      </trkpt>
      <trkpt lat="43.61979" lon="6.36625">
        <ele>632.4</ele>
        <time>2022-03-02T15:13:59.000Z</time>
      </trkpt>
      <trkpt lat="43.61975" lon="6.36629">
        <ele>632.6</ele>
        <time>2022-03-02T15:14:04.000Z</time>
      </trkpt>
      <trkpt lat="43.61972" lon="6.36633">
        <ele>632.7</ele>
        <time>2022-03-02T15:14:09.000Z</time>
      </trkpt>
      <trkpt lat="43.61967" lon="6.36636">
        <ele>632.8</ele>
        <time>2022-03-02T15:14:13.000Z</time>
      </trkpt>
      <trkpt lat="43.61962" lon="6.36638">
        <ele>632.9</ele>
        <time>2022-03-02T15:14:18.000Z</time>
      </trkpt>
      <trkpt lat="43.61958" lon="6.36641">
        <ele>633</ele>
        <time>2022-03-02T15:14:23.000Z</time>
      </trkpt>
      <trkpt lat="43.61953" lon="6.36644">
        <ele>633</ele>
        <time>2022-03-02T15:14:28.000Z</time>
      </trkpt>
      <trkpt lat="43.61948" lon="6.36646">
        <ele>633</ele>
        <time>2022-03-02T15:14:33.000Z</time>
      </trkpt>
      <trkpt lat="43.61944" lon="6.36649">
        <ele>633.1</ele>
        <time>2022-03-02T15:14:37.000Z</time>
      </trkpt>
      <trkpt lat="43.61939" lon="6.36651">
        <ele>633.1</ele>
        <time>2022-03-02T15:14:42.000Z</time>
      </trkpt>
      <trkpt lat="43.61934" lon="6.36653">
        <ele>633.1</ele>
        <time>2022-03-02T15:14:46.000Z</time>
      </trkpt>
      <trkpt lat="43.61929" lon="6.36655">
        <ele>633.2</ele>
        <time>2022-03-02T15:14:52.000Z</time>
      </trkpt>
      <trkpt lat="43.61925" lon="6.36655">
        <ele>633.3</ele>
        <time>2022-03-02T15:14:57.000Z</time>
      </trkpt>
      <trkpt lat="43.6192" lon="6.36658">
        <ele>633.4</ele>
        <time>2022-03-02T15:15:02.000Z</time>
      </trkpt>
      <trkpt lat="43.61916" lon="6.36661">
        <ele>633.7</ele>
        <time>2022-03-02T15:15:08.000Z</time>
      </trkpt>
      <trkpt lat="43.61911" lon="6.36663">
        <ele>633.8</ele>
        <time>2022-03-02T15:15:13.000Z</time>
      </trkpt>
      <trkpt lat="43.61907" lon="6.36666">
        <ele>634</ele>
        <time>2022-03-02T15:15:17.000Z</time>
      </trkpt>
      <trkpt lat="43.61903" lon="6.3667">
        <ele>634.1</ele>
        <time>2022-03-02T15:15:21.000Z</time>
      </trkpt>
      <trkpt lat="43.61898" lon="6.36672">
        <ele>634.2</ele>
        <time>2022-03-02T15:15:25.000Z</time>
      </trkpt>
      <trkpt lat="43.61893" lon="6.36676">
        <ele>634.3</ele>
        <time>2022-03-02T15:15:29.000Z</time>
      </trkpt>
      <trkpt lat="43.61889" lon="6.36679">
        <ele>634.6</ele>
        <time>2022-03-02T15:15:34.000Z</time>
      </trkpt>
      <trkpt lat="43.61884" lon="6.36682">
        <ele>634.9</ele>
        <time>2022-03-02T15:15:40.000Z</time>
      </trkpt>
      <trkpt lat="43.61879" lon="6.36685">
        <ele>635.1</ele>
        <time>2022-03-02T15:15:45.000Z</time>
      </trkpt>
      <trkpt lat="43.61875" lon="6.36688">
        <ele>635.2</ele>
        <time>2022-03-02T15:15:49.000Z</time>
      </trkpt>
      <trkpt lat="43.61871" lon="6.36691">
        <ele>635.4</ele>
        <time>2022-03-02T15:15:53.000Z</time>
      </trkpt>
      <trkpt lat="43.61866" lon="6.36696">
        <ele>635.5</ele>
        <time>2022-03-02T15:15:57.000Z</time>
      </trkpt>
      <trkpt lat="43.61862" lon="6.36701">
        <ele>635.5</ele>
        <time>2022-03-02T15:16:01.000Z</time>
      </trkpt>
      <trkpt lat="43.61858" lon="6.36705">
        <ele>635.6</ele>
        <time>2022-03-02T15:16:05.000Z</time>
      </trkpt>
      <trkpt lat="43.61854" lon="6.36708">
        <ele>635.7</ele>
        <time>2022-03-02T15:16:09.000Z</time>
      </trkpt>
      <trkpt lat="43.6185" lon="6.36712">
        <ele>635.9</ele>
        <time>2022-03-02T15:16:14.000Z</time>
      </trkpt>
      <trkpt lat="43.61845" lon="6.36715">
        <ele>636.1</ele>
        <time>2022-03-02T15:16:19.000Z</time>
      </trkpt>
      <trkpt lat="43.61841" lon="6.36718">
        <ele>636.2</ele>
        <time>2022-03-02T15:16:23.000Z</time>
      </trkpt>
      <trkpt lat="43.61836" lon="6.36721">
        <ele>636.3</ele>
        <time>2022-03-02T15:16:27.000Z</time>
      </trkpt>
      <trkpt lat="43.6183" lon="6.36723">
        <ele>636.4</ele>
        <time>2022-03-02T15:16:31.000Z</time>
      </trkpt>
      <trkpt lat="43.61825" lon="6.36725">
        <ele>636.5</ele>
        <time>2022-03-02T15:16:35.000Z</time>
      </trkpt>
      <trkpt lat="43.6182" lon="6.36727">
        <ele>636.8</ele>
        <time>2022-03-02T15:16:39.000Z</time>
      </trkpt>
      <trkpt lat="43.61815" lon="6.36729">
        <ele>637</ele>
        <time>2022-03-02T15:16:44.000Z</time>
      </trkpt>
      <trkpt lat="43.6181" lon="6.3673">
        <ele>637.3</ele>
        <time>2022-03-02T15:16:54.000Z</time>
      </trkpt>
      <trkpt lat="43.61806" lon="6.36727">
        <ele>637.5</ele>
        <time>2022-03-02T15:17:08.000Z</time>
      </trkpt>
      <trkpt lat="43.61801" lon="6.36731">
        <ele>637.6</ele>
        <time>2022-03-02T15:20:59.000Z</time>
      </trkpt>
      <trkpt lat="43.61797" lon="6.36734">
        <ele>637.6</ele>
        <time>2022-03-02T15:21:06.000Z</time>
      </trkpt>
      <trkpt lat="43.61793" lon="6.36738">
        <ele>637.6</ele>
        <time>2022-03-02T15:21:13.000Z</time>
      </trkpt>
      <trkpt lat="43.61788" lon="6.3674">
        <ele>637.5</ele>
        <time>2022-03-02T15:21:17.000Z</time>
      </trkpt>
      <trkpt lat="43.61783" lon="6.36741">
        <ele>637.5</ele>
        <time>2022-03-02T15:21:22.000Z</time>
      </trkpt>
      <trkpt lat="43.61778" lon="6.36745">
        <ele>637.5</ele>
        <time>2022-03-02T15:21:27.000Z</time>
      </trkpt>
      <trkpt lat="43.61773" lon="6.36746">
        <ele>637.5</ele>
        <time>2022-03-02T15:21:32.000Z</time>
      </trkpt>
      <trkpt lat="43.61768" lon="6.36748">
        <ele>637.5</ele>
        <time>2022-03-02T15:21:37.000Z</time>
      </trkpt>
      <trkpt lat="43.61763" lon="6.36749">
        <ele>637.5</ele>
        <time>2022-03-02T15:21:42.000Z</time>
      </trkpt>
      <trkpt lat="43.61758" lon="6.36749">
        <ele>637.5</ele>
        <time>2022-03-02T15:21:47.000Z</time>
      </trkpt>
      <trkpt lat="43.61753" lon="6.36749">
        <ele>637.5</ele>
        <time>2022-03-02T15:21:52.000Z</time>
      </trkpt>
      <trkpt lat="43.61747" lon="6.3675">
        <ele>637.5</ele>
        <time>2022-03-02T15:21:57.000Z</time>
      </trkpt>
      <trkpt lat="43.61742" lon="6.3675">
        <ele>637.5</ele>
        <time>2022-03-02T15:22:02.000Z</time>
      </trkpt>
      <trkpt lat="43.61737" lon="6.3675">
        <ele>637.5</ele>
        <time>2022-03-02T15:22:06.000Z</time>
      </trkpt>
      <trkpt lat="43.61733" lon="6.36751">
        <ele>637.5</ele>
        <time>2022-03-02T15:22:10.000Z</time>
      </trkpt>
      <trkpt lat="43.61728" lon="6.36751">
        <ele>637.5</ele>
        <time>2022-03-02T15:22:14.000Z</time>
      </trkpt>
      <trkpt lat="43.61723" lon="6.36751">
        <ele>637.5</ele>
        <time>2022-03-02T15:22:19.000Z</time>
      </trkpt>
      <trkpt lat="43.61718" lon="6.36752">
        <ele>637.5</ele>
        <time>2022-03-02T15:22:23.000Z</time>
      </trkpt>
      <trkpt lat="43.61714" lon="6.36752">
        <ele>637.5</ele>
        <time>2022-03-02T15:22:27.000Z</time>
      </trkpt>
      <trkpt lat="43.61709" lon="6.36753">
        <ele>637.5</ele>
        <time>2022-03-02T15:22:32.000Z</time>
      </trkpt>
      <trkpt lat="43.61704" lon="6.36753">
        <ele>637.4</ele>
        <time>2022-03-02T15:22:37.000Z</time>
      </trkpt>
      <trkpt lat="43.61699" lon="6.36753">
        <ele>637.3</ele>
        <time>2022-03-02T15:22:41.000Z</time>
      </trkpt>
      <trkpt lat="43.61693" lon="6.36754">
        <ele>637.2</ele>
        <time>2022-03-02T15:22:45.000Z</time>
      </trkpt>
      <trkpt lat="43.61688" lon="6.36754">
        <ele>637.2</ele>
        <time>2022-03-02T15:22:49.000Z</time>
      </trkpt>
      <trkpt lat="43.61683" lon="6.36754">
        <ele>637.2</ele>
        <time>2022-03-02T15:22:53.000Z</time>
      </trkpt>
      <trkpt lat="43.61677" lon="6.36754">
        <ele>637.1</ele>
        <time>2022-03-02T15:22:57.000Z</time>
      </trkpt>
      <trkpt lat="43.61672" lon="6.36753">
        <ele>637.2</ele>
        <time>2022-03-02T15:23:01.000Z</time>
      </trkpt>
      <trkpt lat="43.61667" lon="6.36753">
        <ele>637.2</ele>
        <time>2022-03-02T15:23:05.000Z</time>
      </trkpt>
      <trkpt lat="43.61662" lon="6.36753">
        <ele>637.2</ele>
        <time>2022-03-02T15:23:09.000Z</time>
      </trkpt>
      <trkpt lat="43.61657" lon="6.36753">
        <ele>637.2</ele>
        <time>2022-03-02T15:23:14.000Z</time>
      </trkpt>
      <trkpt lat="43.61652" lon="6.36752">
        <ele>637</ele>
        <time>2022-03-02T15:23:18.000Z</time>
      </trkpt>
      <trkpt lat="43.61647" lon="6.36752">
        <ele>636.7</ele>
        <time>2022-03-02T15:23:22.000Z</time>
      </trkpt>
      <trkpt lat="43.61642" lon="6.36752">
        <ele>636.5</ele>
        <time>2022-03-02T15:23:26.000Z</time>
      </trkpt>
      <trkpt lat="43.61637" lon="6.36753">
        <ele>636.4</ele>
        <time>2022-03-02T15:23:30.000Z</time>
      </trkpt>
      <trkpt lat="43.61633" lon="6.36754">
        <ele>636.3</ele>
        <time>2022-03-02T15:23:34.000Z</time>
      </trkpt>
      <trkpt lat="43.61627" lon="6.36754">
        <ele>636.3</ele>
        <time>2022-03-02T15:23:39.000Z</time>
      </trkpt>
      <trkpt lat="43.61622" lon="6.36756">
        <ele>636.3</ele>
        <time>2022-03-02T15:23:44.000Z</time>
      </trkpt>
      <trkpt lat="43.61618" lon="6.36757">
        <ele>636.3</ele>
        <time>2022-03-02T15:23:48.000Z</time>
      </trkpt>
      <trkpt lat="43.61613" lon="6.36758">
        <ele>636.3</ele>
        <time>2022-03-02T15:23:52.000Z</time>
      </trkpt>
      <trkpt lat="43.61608" lon="6.36758">
        <ele>636.3</ele>
        <time>2022-03-02T15:23:56.000Z</time>
      </trkpt>
      <trkpt lat="43.61603" lon="6.36758">
        <ele>636.3</ele>
        <time>2022-03-02T15:24:00.000Z</time>
      </trkpt>
      <trkpt lat="43.61598" lon="6.36757">
        <ele>636.2</ele>
        <time>2022-03-02T15:24:04.000Z</time>
      </trkpt>
      <trkpt lat="43.61593" lon="6.36757">
        <ele>636.1</ele>
        <time>2022-03-02T15:24:09.000Z</time>
      </trkpt>
      <trkpt lat="43.61587" lon="6.36757">
        <ele>636</ele>
        <time>2022-03-02T15:24:15.000Z</time>
      </trkpt>
      <trkpt lat="43.61582" lon="6.36756">
        <ele>635.9</ele>
        <time>2022-03-02T15:24:19.000Z</time>
      </trkpt>
      <trkpt lat="43.61577" lon="6.36756">
        <ele>635.8</ele>
        <time>2022-03-02T15:24:23.000Z</time>
      </trkpt>
      <trkpt lat="43.61572" lon="6.36756">
        <ele>635.6</ele>
        <time>2022-03-02T15:24:27.000Z</time>
      </trkpt>
      <trkpt lat="43.61568" lon="6.36756">
        <ele>635.4</ele>
        <time>2022-03-02T15:24:31.000Z</time>
      </trkpt>
      <trkpt lat="43.61564" lon="6.36754">
        <ele>635.3</ele>
        <time>2022-03-02T15:24:35.000Z</time>
      </trkpt>
      <trkpt lat="43.61559" lon="6.36751">
        <ele>635.1</ele>
        <time>2022-03-02T15:24:39.000Z</time>
      </trkpt>
      <trkpt lat="43.61555" lon="6.36748">
        <ele>634.9</ele>
        <time>2022-03-02T15:24:44.000Z</time>
      </trkpt>
      <trkpt lat="43.6155" lon="6.36746">
        <ele>634.8</ele>
        <time>2022-03-02T15:24:49.000Z</time>
      </trkpt>
      <trkpt lat="43.61545" lon="6.36743">
        <ele>634.7</ele>
        <time>2022-03-02T15:24:53.000Z</time>
      </trkpt>
      <trkpt lat="43.61541" lon="6.3674">
        <ele>634.6</ele>
        <time>2022-03-02T15:24:57.000Z</time>
      </trkpt>
      <trkpt lat="43.61537" lon="6.36737">
        <ele>634.5</ele>
        <time>2022-03-02T15:25:01.000Z</time>
      </trkpt>
      <trkpt lat="43.61532" lon="6.36734">
        <ele>634.4</ele>
        <time>2022-03-02T15:25:05.000Z</time>
      </trkpt>
      <trkpt lat="43.61526" lon="6.36733">
        <ele>634.1</ele>
        <time>2022-03-02T15:25:09.000Z</time>
      </trkpt>
      <trkpt lat="43.61521" lon="6.36731">
        <ele>633.9</ele>
        <time>2022-03-02T15:25:14.000Z</time>
      </trkpt>
      <trkpt lat="43.61516" lon="6.3673">
        <ele>633.7</ele>
        <time>2022-03-02T15:25:18.000Z</time>
      </trkpt>
      <trkpt lat="43.61511" lon="6.36728">
        <ele>633.5</ele>
        <time>2022-03-02T15:25:23.000Z</time>
      </trkpt>
      <trkpt lat="43.61506" lon="6.36727">
        <ele>633.3</ele>
        <time>2022-03-02T15:25:27.000Z</time>
      </trkpt>
      <trkpt lat="43.61501" lon="6.36726">
        <ele>633</ele>
        <time>2022-03-02T15:25:31.000Z</time>
      </trkpt>
      <trkpt lat="43.61496" lon="6.36725">
        <ele>632.8</ele>
        <time>2022-03-02T15:25:36.000Z</time>
      </trkpt>
      <trkpt lat="43.61491" lon="6.36723">
        <ele>632.4</ele>
        <time>2022-03-02T15:25:41.000Z</time>
      </trkpt>
      <trkpt lat="43.61486" lon="6.36721">
        <ele>632</ele>
        <time>2022-03-02T15:25:45.000Z</time>
      </trkpt>
      <trkpt lat="43.61482" lon="6.36718">
        <ele>631.6</ele>
        <time>2022-03-02T15:25:49.000Z</time>
      </trkpt>
      <trkpt lat="43.61477" lon="6.36716">
        <ele>631.3</ele>
        <time>2022-03-02T15:25:53.000Z</time>
      </trkpt>
      <trkpt lat="43.61473" lon="6.36713">
        <ele>630.7</ele>
        <time>2022-03-02T15:25:58.000Z</time>
      </trkpt>
      <trkpt lat="43.61469" lon="6.3671">
        <ele>630.2</ele>
        <time>2022-03-02T15:26:03.000Z</time>
      </trkpt>
      <trkpt lat="43.61465" lon="6.36706">
        <ele>629.8</ele>
        <time>2022-03-02T15:26:08.000Z</time>
      </trkpt>
      <trkpt lat="43.6146" lon="6.36704">
        <ele>628.9</ele>
        <time>2022-03-02T15:26:15.000Z</time>
      </trkpt>
      <trkpt lat="43.61455" lon="6.36701">
        <ele>628.2</ele>
        <time>2022-03-02T15:26:21.000Z</time>
      </trkpt>
      <trkpt lat="43.6145" lon="6.36701">
        <ele>627.7</ele>
        <time>2022-03-02T15:26:26.000Z</time>
      </trkpt>
      <trkpt lat="43.61445" lon="6.36703">
        <ele>627.3</ele>
        <time>2022-03-02T15:26:31.000Z</time>
      </trkpt>
      <trkpt lat="43.61441" lon="6.36705">
        <ele>626.8</ele>
        <time>2022-03-02T15:26:37.000Z</time>
      </trkpt>
      <trkpt lat="43.61436" lon="6.36709">
        <ele>625.9</ele>
        <time>2022-03-02T15:26:45.000Z</time>
      </trkpt>
      <trkpt lat="43.61432" lon="6.36712">
        <ele>625.3</ele>
        <time>2022-03-02T15:26:50.000Z</time>
      </trkpt>
      <trkpt lat="43.61427" lon="6.36712">
        <ele>624.7</ele>
        <time>2022-03-02T15:26:55.000Z</time>
      </trkpt>
      <trkpt lat="43.61423" lon="6.36708">
        <ele>623.7</ele>
        <time>2022-03-02T15:27:00.000Z</time>
      </trkpt>
      <trkpt lat="43.6142" lon="6.36703">
        <ele>623</ele>
        <time>2022-03-02T15:27:05.000Z</time>
      </trkpt>
      <trkpt lat="43.61417" lon="6.36697">
        <ele>622.4</ele>
        <time>2022-03-02T15:27:10.000Z</time>
      </trkpt>
      <trkpt lat="43.61413" lon="6.36694">
        <ele>621.7</ele>
        <time>2022-03-02T15:27:15.000Z</time>
      </trkpt>
      <trkpt lat="43.61408" lon="6.36691">
        <ele>620.9</ele>
        <time>2022-03-02T15:27:20.000Z</time>
      </trkpt>
      <trkpt lat="43.61402" lon="6.36691">
        <ele>620.4</ele>
        <time>2022-03-02T15:27:24.000Z</time>
      </trkpt>
      <trkpt lat="43.61397" lon="6.3669">
        <ele>620.1</ele>
        <time>2022-03-02T15:27:28.000Z</time>
      </trkpt>
      <trkpt lat="43.61392" lon="6.3669">
        <ele>619.8</ele>
        <time>2022-03-02T15:27:32.000Z</time>
      </trkpt>
      <trkpt lat="43.61388" lon="6.36691">
        <ele>619.6</ele>
        <time>2022-03-02T15:27:36.000Z</time>
      </trkpt>
      <trkpt lat="43.61383" lon="6.36688">
        <ele>619.5</ele>
        <time>2022-03-02T15:27:41.000Z</time>
      </trkpt>
      <trkpt lat="43.61379" lon="6.36684">
        <ele>619.5</ele>
        <time>2022-03-02T15:27:52.000Z</time>
      </trkpt>
      <trkpt lat="43.61378" lon="6.36678">
        <ele>619.5</ele>
        <time>2022-03-02T15:28:07.000Z</time>
      </trkpt>
      <trkpt lat="43.61374" lon="6.36678">
        <ele>619.1</ele>
        <time>2022-03-02T15:29:31.000Z</time>
      </trkpt>
      <trkpt lat="43.61369" lon="6.36679">
        <ele>618.9</ele>
        <time>2022-03-02T15:30:24.000Z</time>
      </trkpt>
      <trkpt lat="43.61365" lon="6.36677">
        <ele>618.4</ele>
        <time>2022-03-02T15:30:37.000Z</time>
      </trkpt>
      <trkpt lat="43.6136" lon="6.36674">
        <ele>617.9</ele>
        <time>2022-03-02T15:30:46.000Z</time>
      </trkpt>
      <trkpt lat="43.61356" lon="6.36669">
        <ele>617.5</ele>
        <time>2022-03-02T15:30:53.000Z</time>
      </trkpt>
      <trkpt lat="43.61353" lon="6.36665">
        <ele>617</ele>
        <time>2022-03-02T15:31:00.000Z</time>
      </trkpt>
      <trkpt lat="43.61349" lon="6.36661">
        <ele>616.6</ele>
        <time>2022-03-02T15:31:06.000Z</time>
      </trkpt>
      <trkpt lat="43.61345" lon="6.36658">
        <ele>615.9</ele>
        <time>2022-03-02T15:31:12.000Z</time>
      </trkpt>
      <trkpt lat="43.61341" lon="6.36654">
        <ele>615</ele>
        <time>2022-03-02T15:31:18.000Z</time>
      </trkpt>
      <trkpt lat="43.61337" lon="6.3665">
        <ele>614.1</ele>
        <time>2022-03-02T15:31:24.000Z</time>
      </trkpt>
      <trkpt lat="43.61333" lon="6.36646">
        <ele>612.8</ele>
        <time>2022-03-02T15:31:31.000Z</time>
      </trkpt>
      <trkpt lat="43.61329" lon="6.36642">
        <ele>611.9</ele>
        <time>2022-03-02T15:31:37.000Z</time>
      </trkpt>
      <trkpt lat="43.61325" lon="6.36639">
        <ele>611</ele>
        <time>2022-03-02T15:31:46.000Z</time>
      </trkpt>
      <trkpt lat="43.6132" lon="6.36637">
        <ele>610.4</ele>
        <time>2022-03-02T15:31:52.000Z</time>
      </trkpt>
      <trkpt lat="43.61315" lon="6.36638">
        <ele>609.6</ele>
        <time>2022-03-02T15:31:59.000Z</time>
      </trkpt>
      <trkpt lat="43.6131" lon="6.3664">
        <ele>609.1</ele>
        <time>2022-03-02T15:32:05.000Z</time>
      </trkpt>
      <trkpt lat="43.61305" lon="6.36643">
        <ele>608.3</ele>
        <time>2022-03-02T15:32:12.000Z</time>
      </trkpt>
      <trkpt lat="43.61303" lon="6.36648">
        <ele>607.3</ele>
        <time>2022-03-02T15:32:19.000Z</time>
      </trkpt>
      <trkpt lat="43.61302" lon="6.36655">
        <ele>606.2</ele>
        <time>2022-03-02T15:32:26.000Z</time>
      </trkpt>
      <trkpt lat="43.61302" lon="6.36661">
        <ele>605.2</ele>
        <time>2022-03-02T15:32:33.000Z</time>
      </trkpt>
      <trkpt lat="43.61302" lon="6.36669">
        <ele>604.6</ele>
        <time>2022-03-02T15:32:39.000Z</time>
      </trkpt>
      <trkpt lat="43.61301" lon="6.36676">
        <ele>604.3</ele>
        <time>2022-03-02T15:32:43.000Z</time>
      </trkpt>
      <trkpt lat="43.613" lon="6.36683">
        <ele>604</ele>
        <time>2022-03-02T15:32:48.000Z</time>
      </trkpt>
      <trkpt lat="43.61298" lon="6.36688">
        <ele>603.6</ele>
        <time>2022-03-02T15:32:54.000Z</time>
      </trkpt>
      <trkpt lat="43.61294" lon="6.36691">
        <ele>602.8</ele>
        <time>2022-03-02T15:33:01.000Z</time>
      </trkpt>
      <trkpt lat="43.61289" lon="6.36691">
        <ele>601.9</ele>
        <time>2022-03-02T15:33:09.000Z</time>
      </trkpt>
      <trkpt lat="43.61285" lon="6.36688">
        <ele>601.2</ele>
        <time>2022-03-02T15:33:16.000Z</time>
      </trkpt>
      <trkpt lat="43.61279" lon="6.36689">
        <ele>600.2</ele>
        <time>2022-03-02T15:33:22.000Z</time>
      </trkpt>
      <trkpt lat="43.61275" lon="6.36692">
        <ele>599.3</ele>
        <time>2022-03-02T15:33:27.000Z</time>
      </trkpt>
      <trkpt lat="43.61271" lon="6.36695">
        <ele>598.7</ele>
        <time>2022-03-02T15:33:32.000Z</time>
      </trkpt>
      <trkpt lat="43.61268" lon="6.36699">
        <ele>598.1</ele>
        <time>2022-03-02T15:33:38.000Z</time>
      </trkpt>
      <trkpt lat="43.61264" lon="6.36703">
        <ele>597.6</ele>
        <time>2022-03-02T15:33:44.000Z</time>
      </trkpt>
      <trkpt lat="43.61261" lon="6.36708">
        <ele>596.9</ele>
        <time>2022-03-02T15:33:51.000Z</time>
      </trkpt>
      <trkpt lat="43.61257" lon="6.36711">
        <ele>596.4</ele>
        <time>2022-03-02T15:33:58.000Z</time>
      </trkpt>
      <trkpt lat="43.61252" lon="6.36714">
        <ele>596.1</ele>
        <time>2022-03-02T15:34:04.000Z</time>
      </trkpt>
      <trkpt lat="43.61247" lon="6.36716">
        <ele>595.8</ele>
        <time>2022-03-02T15:34:11.000Z</time>
      </trkpt>
      <trkpt lat="43.61242" lon="6.36716">
        <ele>595</ele>
        <time>2022-03-02T15:34:26.000Z</time>
      </trkpt>
      <trkpt lat="43.61237" lon="6.36717">
        <ele>594.8</ele>
        <time>2022-03-02T15:34:31.000Z</time>
      </trkpt>
      <trkpt lat="43.61232" lon="6.3672">
        <ele>594.4</ele>
        <time>2022-03-02T15:34:36.000Z</time>
      </trkpt>
      <trkpt lat="43.61228" lon="6.36722">
        <ele>594.2</ele>
        <time>2022-03-02T15:34:40.000Z</time>
      </trkpt>
      <trkpt lat="43.61223" lon="6.36723">
        <ele>594</ele>
        <time>2022-03-02T15:34:44.000Z</time>
      </trkpt>
      <trkpt lat="43.61218" lon="6.36725">
        <ele>593.8</ele>
        <time>2022-03-02T15:34:49.000Z</time>
      </trkpt>
      <trkpt lat="43.61213" lon="6.36727">
        <ele>593.7</ele>
        <time>2022-03-02T15:34:53.000Z</time>
      </trkpt>
      <trkpt lat="43.61209" lon="6.3673">
        <ele>593.7</ele>
        <time>2022-03-02T15:34:57.000Z</time>
      </trkpt>
      <trkpt lat="43.61204" lon="6.36731">
        <ele>593.6</ele>
        <time>2022-03-02T15:35:03.000Z</time>
      </trkpt>
      <trkpt lat="43.612" lon="6.36734">
        <ele>593.5</ele>
        <time>2022-03-02T15:35:07.000Z</time>
      </trkpt>
      <trkpt lat="43.61196" lon="6.36739">
        <ele>593.3</ele>
        <time>2022-03-02T15:35:10.000Z</time>
      </trkpt>
      <trkpt lat="43.61192" lon="6.36743">
        <ele>593.2</ele>
        <time>2022-03-02T15:35:13.000Z</time>
      </trkpt>
      <trkpt lat="43.61188" lon="6.36747">
        <ele>593.1</ele>
        <time>2022-03-02T15:35:16.000Z</time>
      </trkpt>
      <trkpt lat="43.61184" lon="6.3675">
        <ele>592.9</ele>
        <time>2022-03-02T15:35:19.000Z</time>
      </trkpt>
      <trkpt lat="43.61179" lon="6.36754">
        <ele>592.6</ele>
        <time>2022-03-02T15:35:23.000Z</time>
      </trkpt>
      <trkpt lat="43.61176" lon="6.3676">
        <ele>592.2</ele>
        <time>2022-03-02T15:35:27.000Z</time>
      </trkpt>
      <trkpt lat="43.61173" lon="6.36766">
        <ele>591.9</ele>
        <time>2022-03-02T15:35:31.000Z</time>
      </trkpt>
      <trkpt lat="43.6117" lon="6.36771">
        <ele>591.5</ele>
        <time>2022-03-02T15:35:35.000Z</time>
      </trkpt>
      <trkpt lat="43.61168" lon="6.36777">
        <ele>591</ele>
        <time>2022-03-02T15:35:39.000Z</time>
      </trkpt>
      <trkpt lat="43.61166" lon="6.36784">
        <ele>590.6</ele>
        <time>2022-03-02T15:35:43.000Z</time>
      </trkpt>
      <trkpt lat="43.61163" lon="6.36791">
        <ele>590.1</ele>
        <time>2022-03-02T15:35:47.000Z</time>
      </trkpt>
      <trkpt lat="43.6116" lon="6.36798">
        <ele>589.7</ele>
        <time>2022-03-02T15:35:51.000Z</time>
      </trkpt>
      <trkpt lat="43.61158" lon="6.36805">
        <ele>589.4</ele>
        <time>2022-03-02T15:35:55.000Z</time>
      </trkpt>
      <trkpt lat="43.61156" lon="6.36813">
        <ele>589.2</ele>
        <time>2022-03-02T15:35:59.000Z</time>
      </trkpt>
      <trkpt lat="43.61155" lon="6.3682">
        <ele>588.9</ele>
        <time>2022-03-02T15:36:03.000Z</time>
      </trkpt>
      <trkpt lat="43.61155" lon="6.36827">
        <ele>588.6</ele>
        <time>2022-03-02T15:36:08.000Z</time>
      </trkpt>
      <trkpt lat="43.61155" lon="6.36833">
        <ele>588.2</ele>
        <time>2022-03-02T15:36:12.000Z</time>
      </trkpt>
      <trkpt lat="43.61155" lon="6.36839">
        <ele>587.8</ele>
        <time>2022-03-02T15:36:16.000Z</time>
      </trkpt>
      <trkpt lat="43.61155" lon="6.36846">
        <ele>587.3</ele>
        <time>2022-03-02T15:36:20.000Z</time>
      </trkpt>
      <trkpt lat="43.61153" lon="6.36854">
        <ele>586.7</ele>
        <time>2022-03-02T15:36:25.000Z</time>
      </trkpt>
      <trkpt lat="43.61153" lon="6.36861">
        <ele>586.3</ele>
        <time>2022-03-02T15:36:30.000Z</time>
      </trkpt>
      <trkpt lat="43.61153" lon="6.36868">
        <ele>586</ele>
        <time>2022-03-02T15:36:35.000Z</time>
      </trkpt>
      <trkpt lat="43.61152" lon="6.36876">
        <ele>585.7</ele>
        <time>2022-03-02T15:36:39.000Z</time>
      </trkpt>
      <trkpt lat="43.61151" lon="6.36884">
        <ele>585.4</ele>
        <time>2022-03-02T15:36:44.000Z</time>
      </trkpt>
      <trkpt lat="43.61151" lon="6.3689">
        <ele>585.2</ele>
        <time>2022-03-02T15:36:50.000Z</time>
      </trkpt>
      <trkpt lat="43.61152" lon="6.36897">
        <ele>585</ele>
        <time>2022-03-02T15:36:55.000Z</time>
      </trkpt>
      <trkpt lat="43.61152" lon="6.36904">
        <ele>584.8</ele>
        <time>2022-03-02T15:37:01.000Z</time>
      </trkpt>
      <trkpt lat="43.6115" lon="6.36911">
        <ele>584.7</ele>
        <time>2022-03-02T15:37:05.000Z</time>
      </trkpt>
      <trkpt lat="43.61147" lon="6.36917">
        <ele>584.6</ele>
        <time>2022-03-02T15:37:09.000Z</time>
      </trkpt>
      <trkpt lat="43.61144" lon="6.36922">
        <ele>584.5</ele>
        <time>2022-03-02T15:37:13.000Z</time>
      </trkpt>
      <trkpt lat="43.61141" lon="6.36927">
        <ele>584.3</ele>
        <time>2022-03-02T15:37:17.000Z</time>
      </trkpt>
      <trkpt lat="43.61138" lon="6.36933">
        <ele>584</ele>
        <time>2022-03-02T15:37:23.000Z</time>
      </trkpt>
      <trkpt lat="43.61135" lon="6.36938">
        <ele>583.8</ele>
        <time>2022-03-02T15:37:29.000Z</time>
      </trkpt>
      <trkpt lat="43.61132" lon="6.36943">
        <ele>583.5</ele>
        <time>2022-03-02T15:37:36.000Z</time>
      </trkpt>
      <trkpt lat="43.61129" lon="6.36947">
        <ele>583.2</ele>
        <time>2022-03-02T15:37:42.000Z</time>
      </trkpt>
      <trkpt lat="43.61125" lon="6.36952">
        <ele>582.6</ele>
        <time>2022-03-02T15:37:50.000Z</time>
      </trkpt>
      <trkpt lat="43.61123" lon="6.36957">
        <ele>582.1</ele>
        <time>2022-03-02T15:37:57.000Z</time>
      </trkpt>
      <trkpt lat="43.61119" lon="6.36962">
        <ele>581.8</ele>
        <time>2022-03-02T15:38:02.000Z</time>
      </trkpt>
      <trkpt lat="43.61115" lon="6.36965">
        <ele>581.6</ele>
        <time>2022-03-02T15:38:06.000Z</time>
      </trkpt>
      <trkpt lat="43.61112" lon="6.36971">
        <ele>581.2</ele>
        <time>2022-03-02T15:38:12.000Z</time>
      </trkpt>
      <trkpt lat="43.61108" lon="6.36975">
        <ele>580.7</ele>
        <time>2022-03-02T15:38:18.000Z</time>
      </trkpt>
      <trkpt lat="43.61104" lon="6.36979">
        <ele>580.4</ele>
        <time>2022-03-02T15:38:22.000Z</time>
      </trkpt>
      <trkpt lat="43.61099" lon="6.36984">
        <ele>580.2</ele>
        <time>2022-03-02T15:38:26.000Z</time>
      </trkpt>
      <trkpt lat="43.61096" lon="6.36988">
        <ele>580</ele>
        <time>2022-03-02T15:38:30.000Z</time>
      </trkpt>
      <trkpt lat="43.61091" lon="6.3699">
        <ele>579.8</ele>
        <time>2022-03-02T15:38:37.000Z</time>
      </trkpt>
      <trkpt lat="43.61087" lon="6.36994">
        <ele>579.8</ele>
        <time>2022-03-02T15:38:43.000Z</time>
      </trkpt>
      <trkpt lat="43.61084" lon="6.36999">
        <ele>580</ele>
        <time>2022-03-02T15:39:01.000Z</time>
      </trkpt>
      <trkpt lat="43.61082" lon="6.37004">
        <ele>579.9</ele>
        <time>2022-03-02T15:39:06.000Z</time>
      </trkpt>
      <trkpt lat="43.61076" lon="6.37006">
        <ele>579.8</ele>
        <time>2022-03-02T15:39:11.000Z</time>
      </trkpt>
      <trkpt lat="43.61072" lon="6.3701">
        <ele>579.8</ele>
        <time>2022-03-02T15:39:16.000Z</time>
      </trkpt>
      <trkpt lat="43.61068" lon="6.37015">
        <ele>579.8</ele>
        <time>2022-03-02T15:39:22.000Z</time>
      </trkpt>
      <trkpt lat="43.61064" lon="6.37019">
        <ele>580.3</ele>
        <time>2022-03-02T15:39:30.000Z</time>
      </trkpt>
      <trkpt lat="43.6106" lon="6.37022">
        <ele>581.1</ele>
        <time>2022-03-02T15:39:39.000Z</time>
      </trkpt>
      <trkpt lat="43.61055" lon="6.37023">
        <ele>581.9</ele>
        <time>2022-03-02T15:39:47.000Z</time>
      </trkpt>
      <trkpt lat="43.61051" lon="6.37027">
        <ele>583.2</ele>
        <time>2022-03-02T15:39:57.000Z</time>
      </trkpt>
      <trkpt lat="43.61047" lon="6.37032">
        <ele>584.1</ele>
        <time>2022-03-02T15:40:03.000Z</time>
      </trkpt>
      <trkpt lat="43.61043" lon="6.37036">
        <ele>585</ele>
        <time>2022-03-02T15:40:11.000Z</time>
      </trkpt>
      <trkpt lat="43.6104" lon="6.3704">
        <ele>586.3</ele>
        <time>2022-03-02T15:40:19.000Z</time>
      </trkpt>
      <trkpt lat="43.61036" lon="6.37044">
        <ele>587.5</ele>
        <time>2022-03-02T15:40:27.000Z</time>
      </trkpt>
      <trkpt lat="43.61031" lon="6.37045">
        <ele>589</ele>
        <time>2022-03-02T15:40:34.000Z</time>
      </trkpt>
      <trkpt lat="43.61026" lon="6.37045">
        <ele>590.9</ele>
        <time>2022-03-02T15:40:46.000Z</time>
      </trkpt>
      <trkpt lat="43.61021" lon="6.37046">
        <ele>592.7</ele>
        <time>2022-03-02T15:40:58.000Z</time>
      </trkpt>
      <trkpt lat="43.61016" lon="6.37046">
        <ele>594.8</ele>
        <time>2022-03-02T15:41:12.000Z</time>
      </trkpt>
      <trkpt lat="43.61011" lon="6.37045">
        <ele>596</ele>
        <time>2022-03-02T15:41:20.000Z</time>
      </trkpt>
      <trkpt lat="43.61007" lon="6.37042">
        <ele>597.4</ele>
        <time>2022-03-02T15:41:29.000Z</time>
      </trkpt>
      <trkpt lat="43.61002" lon="6.3704">
        <ele>598.4</ele>
        <time>2022-03-02T15:41:38.000Z</time>
      </trkpt>
      <trkpt lat="43.60997" lon="6.37039">
        <ele>600</ele>
        <time>2022-03-02T15:41:52.000Z</time>
      </trkpt>
      <trkpt lat="43.60993" lon="6.37042">
        <ele>601.3</ele>
        <time>2022-03-02T15:42:03.000Z</time>
      </trkpt>
      <trkpt lat="43.60989" lon="6.37044">
        <ele>602.5</ele>
        <time>2022-03-02T15:42:11.000Z</time>
      </trkpt>
      <trkpt lat="43.60986" lon="6.3705">
        <ele>604.7</ele>
        <time>2022-03-02T15:42:23.000Z</time>
      </trkpt>
      <trkpt lat="43.60982" lon="6.37053">
        <ele>605.9</ele>
        <time>2022-03-02T15:42:30.000Z</time>
      </trkpt>
      <trkpt lat="43.60977" lon="6.37056">
        <ele>607.3</ele>
        <time>2022-03-02T15:42:38.000Z</time>
      </trkpt>
      <trkpt lat="43.60974" lon="6.37061">
        <ele>608.8</ele>
        <time>2022-03-02T15:42:47.000Z</time>
      </trkpt>
      <trkpt lat="43.60971" lon="6.37067">
        <ele>610.2</ele>
        <time>2022-03-02T15:42:54.000Z</time>
      </trkpt>
      <trkpt lat="43.60967" lon="6.37071">
        <ele>611.5</ele>
        <time>2022-03-02T15:43:01.000Z</time>
      </trkpt>
      <trkpt lat="43.60964" lon="6.37076">
        <ele>612.6</ele>
        <time>2022-03-02T15:43:09.000Z</time>
      </trkpt>
      <trkpt lat="43.60961" lon="6.37081">
        <ele>613.7</ele>
        <time>2022-03-02T15:43:17.000Z</time>
      </trkpt>
      <trkpt lat="43.60956" lon="6.37083">
        <ele>614.9</ele>
        <time>2022-03-02T15:43:24.000Z</time>
      </trkpt>
      <trkpt lat="43.60953" lon="6.37088">
        <ele>616.3</ele>
        <time>2022-03-02T15:43:33.000Z</time>
      </trkpt>
      <trkpt lat="43.60949" lon="6.37092">
        <ele>617.2</ele>
        <time>2022-03-02T15:43:39.000Z</time>
      </trkpt>
      <trkpt lat="43.60946" lon="6.37097">
        <ele>618.5</ele>
        <time>2022-03-02T15:43:47.000Z</time>
      </trkpt>
      <trkpt lat="43.60941" lon="6.37101">
        <ele>619.8</ele>
        <time>2022-03-02T15:43:55.000Z</time>
      </trkpt>
      <trkpt lat="43.60937" lon="6.37106">
        <ele>620.9</ele>
        <time>2022-03-02T15:44:02.000Z</time>
      </trkpt>
      <trkpt lat="43.60933" lon="6.37107">
        <ele>622.2</ele>
        <time>2022-03-02T15:44:10.000Z</time>
      </trkpt>
      <trkpt lat="43.6093" lon="6.37112">
        <ele>623.1</ele>
        <time>2022-03-02T15:44:17.000Z</time>
      </trkpt>
      <trkpt lat="43.60927" lon="6.37117">
        <ele>624.1</ele>
        <time>2022-03-02T15:44:24.000Z</time>
      </trkpt>
      <trkpt lat="43.60924" lon="6.37123">
        <ele>625</ele>
        <time>2022-03-02T15:44:31.000Z</time>
      </trkpt>
      <trkpt lat="43.6092" lon="6.37127">
        <ele>625.6</ele>
        <time>2022-03-02T15:44:36.000Z</time>
      </trkpt>
      <trkpt lat="43.60916" lon="6.37132">
        <ele>626.6</ele>
        <time>2022-03-02T15:44:43.000Z</time>
      </trkpt>
      <trkpt lat="43.60913" lon="6.37138">
        <ele>627.3</ele>
        <time>2022-03-02T15:44:48.000Z</time>
      </trkpt>
      <trkpt lat="43.60909" lon="6.37142">
        <ele>628.3</ele>
        <time>2022-03-02T15:44:54.000Z</time>
      </trkpt>
      <trkpt lat="43.60904" lon="6.37145">
        <ele>629</ele>
        <time>2022-03-02T15:44:59.000Z</time>
      </trkpt>
      <trkpt lat="43.609" lon="6.37146">
        <ele>629.7</ele>
        <time>2022-03-02T15:45:04.000Z</time>
      </trkpt>
      <trkpt lat="43.60895" lon="6.37149">
        <ele>630.4</ele>
        <time>2022-03-02T15:45:09.000Z</time>
      </trkpt>
      <trkpt lat="43.60891" lon="6.37153">
        <ele>631</ele>
        <time>2022-03-02T15:45:15.000Z</time>
      </trkpt>
      <trkpt lat="43.60887" lon="6.37156">
        <ele>631.6</ele>
        <time>2022-03-02T15:45:20.000Z</time>
      </trkpt>
      <trkpt lat="43.60883" lon="6.37161">
        <ele>632.3</ele>
        <time>2022-03-02T15:45:25.000Z</time>
      </trkpt>
      <trkpt lat="43.60879" lon="6.37165">
        <ele>632.8</ele>
        <time>2022-03-02T15:45:30.000Z</time>
      </trkpt>
      <trkpt lat="43.60874" lon="6.37168">
        <ele>633.3</ele>
        <time>2022-03-02T15:45:35.000Z</time>
      </trkpt>
      <trkpt lat="43.6087" lon="6.37173">
        <ele>633.7</ele>
        <time>2022-03-02T15:45:40.000Z</time>
      </trkpt>
      <trkpt lat="43.60867" lon="6.37178">
        <ele>634</ele>
        <time>2022-03-02T15:45:44.000Z</time>
      </trkpt>
      <trkpt lat="43.60863" lon="6.37183">
        <ele>634.2</ele>
        <time>2022-03-02T15:45:48.000Z</time>
      </trkpt>
      <trkpt lat="43.60859" lon="6.37188">
        <ele>634.6</ele>
        <time>2022-03-02T15:45:52.000Z</time>
      </trkpt>
      <trkpt lat="43.60856" lon="6.37191">
        <ele>634.9</ele>
        <time>2022-03-02T15:45:56.000Z</time>
      </trkpt>
      <trkpt lat="43.60851" lon="6.37196">
        <ele>635.2</ele>
        <time>2022-03-02T15:46:01.000Z</time>
      </trkpt>
      <trkpt lat="43.60847" lon="6.37201">
        <ele>635.8</ele>
        <time>2022-03-02T15:46:06.000Z</time>
      </trkpt>
      <trkpt lat="43.60844" lon="6.37206">
        <ele>636.1</ele>
        <time>2022-03-02T15:46:10.000Z</time>
      </trkpt>
      <trkpt lat="43.60841" lon="6.37211">
        <ele>636.4</ele>
        <time>2022-03-02T15:46:14.000Z</time>
      </trkpt>
      <trkpt lat="43.60838" lon="6.37217">
        <ele>636.6</ele>
        <time>2022-03-02T15:46:19.000Z</time>
      </trkpt>
      <trkpt lat="43.60835" lon="6.37222">
        <ele>636.8</ele>
        <time>2022-03-02T15:46:24.000Z</time>
      </trkpt>
      <trkpt lat="43.60831" lon="6.37227">
        <ele>637</ele>
        <time>2022-03-02T15:46:28.000Z</time>
      </trkpt>
      <trkpt lat="43.60827" lon="6.37232">
        <ele>637.1</ele>
        <time>2022-03-02T15:46:33.000Z</time>
      </trkpt>
      <trkpt lat="43.60824" lon="6.37237">
        <ele>637.3</ele>
        <time>2022-03-02T15:46:37.000Z</time>
      </trkpt>
      <trkpt lat="43.60821" lon="6.37241">
        <ele>637.5</ele>
        <time>2022-03-02T15:46:41.000Z</time>
      </trkpt>
      <trkpt lat="43.60817" lon="6.37246">
        <ele>637.7</ele>
        <time>2022-03-02T15:46:46.000Z</time>
      </trkpt>
      <trkpt lat="43.60813" lon="6.37251">
        <ele>638</ele>
        <time>2022-03-02T15:46:52.000Z</time>
      </trkpt>
      <trkpt lat="43.60811" lon="6.37257">
        <ele>638.5</ele>
        <time>2022-03-02T15:47:14.000Z</time>
      </trkpt>
      <trkpt lat="43.60807" lon="6.37262">
        <ele>638.5</ele>
        <time>2022-03-02T15:47:20.000Z</time>
      </trkpt>
      <trkpt lat="43.60806" lon="6.37268">
        <ele>638.5</ele>
        <time>2022-03-02T15:47:27.000Z</time>
      </trkpt>
      <trkpt lat="43.60803" lon="6.37273">
        <ele>638.5</ele>
        <time>2022-03-02T15:47:41.000Z</time>
      </trkpt>
      <trkpt lat="43.60799" lon="6.37277">
        <ele>638.6</ele>
        <time>2022-03-02T15:48:47.000Z</time>
      </trkpt>
      <trkpt lat="43.60796" lon="6.37282">
        <ele>638.7</ele>
        <time>2022-03-02T15:50:34.000Z</time>
      </trkpt>
      <trkpt lat="43.60793" lon="6.37288">
        <ele>638.7</ele>
        <time>2022-03-02T15:50:41.000Z</time>
      </trkpt>
      <trkpt lat="43.6079" lon="6.37293">
        <ele>638.7</ele>
        <time>2022-03-02T15:50:46.000Z</time>
      </trkpt>
      <trkpt lat="43.60787" lon="6.37299">
        <ele>638.7</ele>
        <time>2022-03-02T15:50:54.000Z</time>
      </trkpt>
      <trkpt lat="43.60783" lon="6.37302">
        <ele>638.5</ele>
        <time>2022-03-02T15:51:24.000Z</time>
      </trkpt>
      <trkpt lat="43.60782" lon="6.37308">
        <ele>638.7</ele>
        <time>2022-03-02T15:52:40.000Z</time>
      </trkpt>
      <trkpt lat="43.60779" lon="6.37313">
        <ele>638.7</ele>
        <time>2022-03-02T15:52:45.000Z</time>
      </trkpt>
      <trkpt lat="43.60776" lon="6.37318">
        <ele>638.7</ele>
        <time>2022-03-02T15:52:49.000Z</time>
      </trkpt>
      <trkpt lat="43.60773" lon="6.37323">
        <ele>638.7</ele>
        <time>2022-03-02T15:52:54.000Z</time>
      </trkpt>
      <trkpt lat="43.60769" lon="6.37328">
        <ele>638.7</ele>
        <time>2022-03-02T15:52:58.000Z</time>
      </trkpt>
      <trkpt lat="43.60766" lon="6.37332">
        <ele>638.7</ele>
        <time>2022-03-02T15:53:02.000Z</time>
      </trkpt>
      <trkpt lat="43.60762" lon="6.37338">
        <ele>638.6</ele>
        <time>2022-03-02T15:53:07.000Z</time>
      </trkpt>
      <trkpt lat="43.60758" lon="6.37342">
        <ele>638.5</ele>
        <time>2022-03-02T15:53:12.000Z</time>
      </trkpt>
      <trkpt lat="43.60754" lon="6.37347">
        <ele>638.4</ele>
        <time>2022-03-02T15:53:17.000Z</time>
      </trkpt>
      <trkpt lat="43.60751" lon="6.37352">
        <ele>638.3</ele>
        <time>2022-03-02T15:53:22.000Z</time>
      </trkpt>
      <trkpt lat="43.60746" lon="6.37356">
        <ele>638.2</ele>
        <time>2022-03-02T15:53:27.000Z</time>
      </trkpt>
      <trkpt lat="43.60741" lon="6.37359">
        <ele>638.2</ele>
        <time>2022-03-02T15:53:32.000Z</time>
      </trkpt>
      <trkpt lat="43.60738" lon="6.37364">
        <ele>638.1</ele>
        <time>2022-03-02T15:53:36.000Z</time>
      </trkpt>
      <trkpt lat="43.60734" lon="6.37369">
        <ele>638.1</ele>
        <time>2022-03-02T15:53:40.000Z</time>
      </trkpt>
      <trkpt lat="43.6073" lon="6.37373">
        <ele>638.1</ele>
        <time>2022-03-02T15:53:44.000Z</time>
      </trkpt>
      <trkpt lat="43.60727" lon="6.37379">
        <ele>638</ele>
        <time>2022-03-02T15:53:48.000Z</time>
      </trkpt>
      <trkpt lat="43.60724" lon="6.37384">
        <ele>637.9</ele>
        <time>2022-03-02T15:53:52.000Z</time>
      </trkpt>
      <trkpt lat="43.60721" lon="6.3739">
        <ele>637.7</ele>
        <time>2022-03-02T15:53:56.000Z</time>
      </trkpt>
      <trkpt lat="43.60719" lon="6.37396">
        <ele>637.5</ele>
        <time>2022-03-02T15:54:00.000Z</time>
      </trkpt>
      <trkpt lat="43.60716" lon="6.37403">
        <ele>637.1</ele>
        <time>2022-03-02T15:54:05.000Z</time>
      </trkpt>
      <trkpt lat="43.60714" lon="6.3741">
        <ele>636.9</ele>
        <time>2022-03-02T15:54:09.000Z</time>
      </trkpt>
      <trkpt lat="43.60711" lon="6.37416">
        <ele>636.7</ele>
        <time>2022-03-02T15:54:13.000Z</time>
      </trkpt>
      <trkpt lat="43.60709" lon="6.37422">
        <ele>636.5</ele>
        <time>2022-03-02T15:54:17.000Z</time>
      </trkpt>
      <trkpt lat="43.60708" lon="6.37428">
        <ele>636.3</ele>
        <time>2022-03-02T15:54:21.000Z</time>
      </trkpt>
      <trkpt lat="43.60707" lon="6.37435">
        <ele>636.1</ele>
        <time>2022-03-02T15:54:26.000Z</time>
      </trkpt>
      <trkpt lat="43.60707" lon="6.37442">
        <ele>636</ele>
        <time>2022-03-02T15:54:30.000Z</time>
      </trkpt>
      <trkpt lat="43.60706" lon="6.37448">
        <ele>636</ele>
        <time>2022-03-02T15:54:34.000Z</time>
      </trkpt>
      <trkpt lat="43.60705" lon="6.37455">
        <ele>635.9</ele>
        <time>2022-03-02T15:54:39.000Z</time>
      </trkpt>
      <trkpt lat="43.60704" lon="6.37462">
        <ele>635.9</ele>
        <time>2022-03-02T15:54:44.000Z</time>
      </trkpt>
      <trkpt lat="43.60702" lon="6.37469">
        <ele>636.1</ele>
        <time>2022-03-02T15:54:49.000Z</time>
      </trkpt>
      <trkpt lat="43.607" lon="6.37475">
        <ele>636.3</ele>
        <time>2022-03-02T15:54:53.000Z</time>
      </trkpt>
      <trkpt lat="43.60699" lon="6.37481">
        <ele>636.4</ele>
        <time>2022-03-02T15:54:58.000Z</time>
      </trkpt>
      <trkpt lat="43.60697" lon="6.37487">
        <ele>636.5</ele>
        <time>2022-03-02T15:55:03.000Z</time>
      </trkpt>
      <trkpt lat="43.60696" lon="6.37495">
        <ele>636.6</ele>
        <time>2022-03-02T15:55:08.000Z</time>
      </trkpt>
      <trkpt lat="43.60694" lon="6.37502">
        <ele>636.9</ele>
        <time>2022-03-02T15:55:12.000Z</time>
      </trkpt>
      <trkpt lat="43.60694" lon="6.37509">
        <ele>637.1</ele>
        <time>2022-03-02T15:55:17.000Z</time>
      </trkpt>
      <trkpt lat="43.60695" lon="6.37516">
        <ele>637.2</ele>
        <time>2022-03-02T15:55:22.000Z</time>
      </trkpt>
      <trkpt lat="43.60695" lon="6.37522">
        <ele>637.4</ele>
        <time>2022-03-02T15:55:29.000Z</time>
      </trkpt>
      <trkpt lat="43.60693" lon="6.37528">
        <ele>637.4</ele>
        <time>2022-03-02T15:55:34.000Z</time>
      </trkpt>
      <trkpt lat="43.60694" lon="6.37535">
        <ele>637.5</ele>
        <time>2022-03-02T15:55:38.000Z</time>
      </trkpt>
      <trkpt lat="43.60696" lon="6.37541">
        <ele>637.5</ele>
        <time>2022-03-02T15:55:41.000Z</time>
      </trkpt>
      <trkpt lat="43.60697" lon="6.37548">
        <ele>637.4</ele>
        <time>2022-03-02T15:55:46.000Z</time>
      </trkpt>
      <trkpt lat="43.60697" lon="6.37555">
        <ele>637.3</ele>
        <time>2022-03-02T15:55:50.000Z</time>
      </trkpt>
      <trkpt lat="43.60696" lon="6.37563">
        <ele>637.2</ele>
        <time>2022-03-02T15:55:54.000Z</time>
      </trkpt>
      <trkpt lat="43.60695" lon="6.37571">
        <ele>637.1</ele>
        <time>2022-03-02T15:55:58.000Z</time>
      </trkpt>
      <trkpt lat="43.60696" lon="6.37579">
        <ele>637.1</ele>
        <time>2022-03-02T15:56:02.000Z</time>
      </trkpt>
      <trkpt lat="43.60696" lon="6.37585">
        <ele>636.9</ele>
        <time>2022-03-02T15:56:05.000Z</time>
      </trkpt>
      <trkpt lat="43.60696" lon="6.37592">
        <ele>636.8</ele>
        <time>2022-03-02T15:56:09.000Z</time>
      </trkpt>
      <trkpt lat="43.60698" lon="6.37599">
        <ele>636.7</ele>
        <time>2022-03-02T15:56:13.000Z</time>
      </trkpt>
      <trkpt lat="43.60698" lon="6.37606">
        <ele>636.4</ele>
        <time>2022-03-02T15:56:17.000Z</time>
      </trkpt>
      <trkpt lat="43.60699" lon="6.37614">
        <ele>636.2</ele>
        <time>2022-03-02T15:56:21.000Z</time>
      </trkpt>
      <trkpt lat="43.607" lon="6.37621">
        <ele>635.9</ele>
        <time>2022-03-02T15:56:25.000Z</time>
      </trkpt>
      <trkpt lat="43.607" lon="6.37629">
        <ele>635.6</ele>
        <time>2022-03-02T15:56:29.000Z</time>
      </trkpt>
      <trkpt lat="43.60701" lon="6.37636">
        <ele>635.4</ele>
        <time>2022-03-02T15:56:32.000Z</time>
      </trkpt>
      <trkpt lat="43.60702" lon="6.37643">
        <ele>635.2</ele>
        <time>2022-03-02T15:56:36.000Z</time>
      </trkpt>
      <trkpt lat="43.60703" lon="6.3765">
        <ele>635</ele>
        <time>2022-03-02T15:56:40.000Z</time>
      </trkpt>
      <trkpt lat="43.60704" lon="6.37658">
        <ele>634.7</ele>
        <time>2022-03-02T15:56:44.000Z</time>
      </trkpt>
      <trkpt lat="43.60705" lon="6.37665">
        <ele>634.4</ele>
        <time>2022-03-02T15:56:48.000Z</time>
      </trkpt>
      <trkpt lat="43.60707" lon="6.37672">
        <ele>634.1</ele>
        <time>2022-03-02T15:56:52.000Z</time>
      </trkpt>
      <trkpt lat="43.60708" lon="6.37679">
        <ele>633.7</ele>
        <time>2022-03-02T15:56:57.000Z</time>
      </trkpt>
      <trkpt lat="43.60709" lon="6.37686">
        <ele>633.5</ele>
        <time>2022-03-02T15:57:01.000Z</time>
      </trkpt>
      <trkpt lat="43.6071" lon="6.37693">
        <ele>633.3</ele>
        <time>2022-03-02T15:57:05.000Z</time>
      </trkpt>
      <trkpt lat="43.60711" lon="6.37699">
        <ele>633.1</ele>
        <time>2022-03-02T15:57:09.000Z</time>
      </trkpt>
      <trkpt lat="43.60712" lon="6.37706">
        <ele>633</ele>
        <time>2022-03-02T15:57:13.000Z</time>
      </trkpt>
      <trkpt lat="43.60712" lon="6.37714">
        <ele>632.8</ele>
        <time>2022-03-02T15:57:17.000Z</time>
      </trkpt>
      <trkpt lat="43.60713" lon="6.37722">
        <ele>632.7</ele>
        <time>2022-03-02T15:57:21.000Z</time>
      </trkpt>
      <trkpt lat="43.60714" lon="6.37728">
        <ele>632.6</ele>
        <time>2022-03-02T15:57:24.000Z</time>
      </trkpt>
      <trkpt lat="43.60715" lon="6.37736">
        <ele>632.4</ele>
        <time>2022-03-02T15:57:28.000Z</time>
      </trkpt>
      <trkpt lat="43.60716" lon="6.37743">
        <ele>632.3</ele>
        <time>2022-03-02T15:57:33.000Z</time>
      </trkpt>
      <trkpt lat="43.60716" lon="6.3775">
        <ele>632.3</ele>
        <time>2022-03-02T15:57:38.000Z</time>
      </trkpt>
      <trkpt lat="43.60717" lon="6.37756">
        <ele>632.3</ele>
        <time>2022-03-02T15:57:42.000Z</time>
      </trkpt>
      <trkpt lat="43.60718" lon="6.37763">
        <ele>632.3</ele>
        <time>2022-03-02T15:57:47.000Z</time>
      </trkpt>
      <trkpt lat="43.60718" lon="6.3777">
        <ele>632.3</ele>
        <time>2022-03-02T15:57:51.000Z</time>
      </trkpt>
      <trkpt lat="43.60719" lon="6.37777">
        <ele>632.3</ele>
        <time>2022-03-02T15:57:55.000Z</time>
      </trkpt>
      <trkpt lat="43.6072" lon="6.37783">
        <ele>632.4</ele>
        <time>2022-03-02T15:57:59.000Z</time>
      </trkpt>
      <trkpt lat="43.60721" lon="6.37789">
        <ele>632.5</ele>
        <time>2022-03-02T15:58:03.000Z</time>
      </trkpt>
      <trkpt lat="43.60722" lon="6.37796">
        <ele>632.7</ele>
        <time>2022-03-02T15:58:07.000Z</time>
      </trkpt>
      <trkpt lat="43.60723" lon="6.37802">
        <ele>632.9</ele>
        <time>2022-03-02T15:58:11.000Z</time>
      </trkpt>
      <trkpt lat="43.60724" lon="6.37809">
        <ele>633.1</ele>
        <time>2022-03-02T15:58:14.000Z</time>
      </trkpt>
      <trkpt lat="43.60725" lon="6.37817">
        <ele>633.3</ele>
        <time>2022-03-02T15:58:18.000Z</time>
      </trkpt>
      <trkpt lat="43.60726" lon="6.37824">
        <ele>633.5</ele>
        <time>2022-03-02T15:58:22.000Z</time>
      </trkpt>
      <trkpt lat="43.60727" lon="6.3783">
        <ele>633.6</ele>
        <time>2022-03-02T15:58:25.000Z</time>
      </trkpt>
      <trkpt lat="43.60728" lon="6.37838">
        <ele>633.8</ele>
        <time>2022-03-02T15:58:29.000Z</time>
      </trkpt>
      <trkpt lat="43.60729" lon="6.37845">
        <ele>634.1</ele>
        <time>2022-03-02T15:58:33.000Z</time>
      </trkpt>
      <trkpt lat="43.6073" lon="6.37852">
        <ele>634.2</ele>
        <time>2022-03-02T15:58:38.000Z</time>
      </trkpt>
      <trkpt lat="43.60732" lon="6.3786">
        <ele>634.2</ele>
        <time>2022-03-02T15:58:43.000Z</time>
      </trkpt>
      <trkpt lat="43.60731" lon="6.37866">
        <ele>634.4</ele>
        <time>2022-03-02T15:58:47.000Z</time>
      </trkpt>
      <trkpt lat="43.60731" lon="6.37873">
        <ele>634.5</ele>
        <time>2022-03-02T15:58:50.000Z</time>
      </trkpt>
      <trkpt lat="43.60729" lon="6.3788">
        <ele>634.5</ele>
        <time>2022-03-02T15:58:54.000Z</time>
      </trkpt>
      <trkpt lat="43.60728" lon="6.37886">
        <ele>634.7</ele>
        <time>2022-03-02T15:58:59.000Z</time>
      </trkpt>
      <trkpt lat="43.60728" lon="6.37893">
        <ele>635</ele>
        <time>2022-03-02T15:59:04.000Z</time>
      </trkpt>
      <trkpt lat="43.60728" lon="6.379">
        <ele>635.2</ele>
        <time>2022-03-02T15:59:09.000Z</time>
      </trkpt>
      <trkpt lat="43.60728" lon="6.37907">
        <ele>635.3</ele>
        <time>2022-03-02T15:59:14.000Z</time>
      </trkpt>
      <trkpt lat="43.60728" lon="6.37914">
        <ele>635.4</ele>
        <time>2022-03-02T15:59:19.000Z</time>
      </trkpt>
      <trkpt lat="43.60728" lon="6.37921">
        <ele>635.4</ele>
        <time>2022-03-02T15:59:23.000Z</time>
      </trkpt>
      <trkpt lat="43.60729" lon="6.37928">
        <ele>635.3</ele>
        <time>2022-03-02T15:59:28.000Z</time>
      </trkpt>
      <trkpt lat="43.60728" lon="6.37921">
        <ele>635.2</ele>
        <time>2022-03-02T15:59:40.000Z</time>
      </trkpt>
      <trkpt lat="43.60726" lon="6.37915">
        <ele>635.1</ele>
        <time>2022-03-02T15:59:45.000Z</time>
      </trkpt>
      <trkpt lat="43.60725" lon="6.37908">
        <ele>635.1</ele>
        <time>2022-03-02T15:59:50.000Z</time>
      </trkpt>
      <trkpt lat="43.60723" lon="6.37902">
        <ele>635</ele>
        <time>2022-03-02T15:59:54.000Z</time>
      </trkpt>
      <trkpt lat="43.60722" lon="6.37895">
        <ele>635</ele>
        <time>2022-03-02T15:59:59.000Z</time>
      </trkpt>
      <trkpt lat="43.60718" lon="6.3789">
        <ele>634.9</ele>
        <time>2022-03-02T16:00:04.000Z</time>
      </trkpt>
      <trkpt lat="43.60714" lon="6.37889">
        <ele>634.8</ele>
        <time>2022-03-02T16:00:08.000Z</time>
      </trkpt>
      <trkpt lat="43.60709" lon="6.37887">
        <ele>634.7</ele>
        <time>2022-03-02T16:00:12.000Z</time>
      </trkpt>
      <trkpt lat="43.60704" lon="6.37886">
        <ele>634.5</ele>
        <time>2022-03-02T16:00:16.000Z</time>
      </trkpt>
      <trkpt lat="43.60699" lon="6.37884">
        <ele>634.2</ele>
        <time>2022-03-02T16:00:21.000Z</time>
      </trkpt>
      <trkpt lat="43.60693" lon="6.37883">
        <ele>633.9</ele>
        <time>2022-03-02T16:00:26.000Z</time>
      </trkpt>
      <trkpt lat="43.60688" lon="6.37881">
        <ele>633.7</ele>
        <time>2022-03-02T16:00:30.000Z</time>
      </trkpt>
      <trkpt lat="43.60683" lon="6.3788">
        <ele>633.5</ele>
        <time>2022-03-02T16:00:34.000Z</time>
      </trkpt>
      <trkpt lat="43.60678" lon="6.37878">
        <ele>633.3</ele>
        <time>2022-03-02T16:00:38.000Z</time>
      </trkpt>
      <trkpt lat="43.60673" lon="6.37877">
        <ele>633</ele>
        <time>2022-03-02T16:00:44.000Z</time>
      </trkpt>
      <trkpt lat="43.60668" lon="6.37875">
        <ele>632.6</ele>
        <time>2022-03-02T16:00:48.000Z</time>
      </trkpt>
      <trkpt lat="43.60663" lon="6.37875">
        <ele>632.3</ele>
        <time>2022-03-02T16:00:52.000Z</time>
      </trkpt>
      <trkpt lat="43.60659" lon="6.37874">
        <ele>632</ele>
        <time>2022-03-02T16:00:56.000Z</time>
      </trkpt>
      <trkpt lat="43.60654" lon="6.37872">
        <ele>631.8</ele>
        <time>2022-03-02T16:01:01.000Z</time>
      </trkpt>
      <trkpt lat="43.60649" lon="6.37871">
        <ele>631.6</ele>
        <time>2022-03-02T16:01:05.000Z</time>
      </trkpt>
      <trkpt lat="43.60644" lon="6.37868">
        <ele>631.1</ele>
        <time>2022-03-02T16:01:09.000Z</time>
      </trkpt>
      <trkpt lat="43.60639" lon="6.37866">
        <ele>630.5</ele>
        <time>2022-03-02T16:01:14.000Z</time>
      </trkpt>
      <trkpt lat="43.60635" lon="6.37864">
        <ele>630.1</ele>
        <time>2022-03-02T16:01:18.000Z</time>
      </trkpt>
      <trkpt lat="43.6063" lon="6.37863">
        <ele>629.8</ele>
        <time>2022-03-02T16:01:22.000Z</time>
      </trkpt>
      <trkpt lat="43.60626" lon="6.3786">
        <ele>629.3</ele>
        <time>2022-03-02T16:01:26.000Z</time>
      </trkpt>
      <trkpt lat="43.60621" lon="6.37858">
        <ele>628.7</ele>
        <time>2022-03-02T16:01:32.000Z</time>
      </trkpt>
      <trkpt lat="43.60616" lon="6.37857">
        <ele>628.3</ele>
        <time>2022-03-02T16:01:37.000Z</time>
      </trkpt>
      <trkpt lat="43.60611" lon="6.3786">
        <ele>628</ele>
        <time>2022-03-02T16:01:42.000Z</time>
      </trkpt>
      <trkpt lat="43.60608" lon="6.37865">
        <ele>627.7</ele>
        <time>2022-03-02T16:01:47.000Z</time>
      </trkpt>
      <trkpt lat="43.60606" lon="6.37871">
        <ele>627.5</ele>
        <time>2022-03-02T16:01:52.000Z</time>
      </trkpt>
      <trkpt lat="43.60604" lon="6.37877">
        <ele>627.3</ele>
        <time>2022-03-02T16:01:57.000Z</time>
      </trkpt>
      <trkpt lat="43.606" lon="6.3788">
        <ele>626.9</ele>
        <time>2022-03-02T16:02:06.000Z</time>
      </trkpt>
      <trkpt lat="43.60594" lon="6.37881">
        <ele>626.4</ele>
        <time>2022-03-02T16:02:17.000Z</time>
      </trkpt>
      <trkpt lat="43.60591" lon="6.37885">
        <ele>626</ele>
        <time>2022-03-02T16:02:22.000Z</time>
      </trkpt>
      <trkpt lat="43.6059" lon="6.37892">
        <ele>625.5</ele>
        <time>2022-03-02T16:02:27.000Z</time>
      </trkpt>
      <trkpt lat="43.6059" lon="6.37899">
        <ele>625.1</ele>
        <time>2022-03-02T16:02:32.000Z</time>
      </trkpt>
      <trkpt lat="43.6059" lon="6.37905">
        <ele>624.8</ele>
        <time>2022-03-02T16:02:37.000Z</time>
      </trkpt>
      <trkpt lat="43.60589" lon="6.37911">
        <ele>624.7</ele>
        <time>2022-03-02T16:02:42.000Z</time>
      </trkpt>
      <trkpt lat="43.60586" lon="6.37917">
        <ele>624.6</ele>
        <time>2022-03-02T16:02:46.000Z</time>
      </trkpt>
      <trkpt lat="43.60585" lon="6.37923">
        <ele>624.5</ele>
        <time>2022-03-02T16:02:51.000Z</time>
      </trkpt>
      <trkpt lat="43.60585" lon="6.3793">
        <ele>624.3</ele>
        <time>2022-03-02T16:02:57.000Z</time>
      </trkpt>
      <trkpt lat="43.60585" lon="6.37937">
        <ele>624.1</ele>
        <time>2022-03-02T16:03:03.000Z</time>
      </trkpt>
      <trkpt lat="43.60588" lon="6.37942">
        <ele>623.8</ele>
        <time>2022-03-02T16:03:11.000Z</time>
      </trkpt>
      <trkpt lat="43.6059" lon="6.37948">
        <ele>623.7</ele>
        <time>2022-03-02T16:03:18.000Z</time>
      </trkpt>
      <trkpt lat="43.60592" lon="6.37953">
        <ele>623.6</ele>
        <time>2022-03-02T16:03:22.000Z</time>
      </trkpt>
      <trkpt lat="43.60596" lon="6.37959">
        <ele>623.5</ele>
        <time>2022-03-02T16:03:27.000Z</time>
      </trkpt>
      <trkpt lat="43.60598" lon="6.37966">
        <ele>623.3</ele>
        <time>2022-03-02T16:03:33.000Z</time>
      </trkpt>
      <trkpt lat="43.60599" lon="6.37972">
        <ele>623.2</ele>
        <time>2022-03-02T16:03:37.000Z</time>
      </trkpt>
      <trkpt lat="43.60599" lon="6.37979">
        <ele>623.1</ele>
        <time>2022-03-02T16:03:42.000Z</time>
      </trkpt>
      <trkpt lat="43.606" lon="6.37985">
        <ele>623.1</ele>
        <time>2022-03-02T16:03:49.000Z</time>
      </trkpt>
      <trkpt lat="43.606" lon="6.37992">
        <ele>623</ele>
        <time>2022-03-02T16:03:55.000Z</time>
      </trkpt>
      <trkpt lat="43.60602" lon="6.37999">
        <ele>622.7</ele>
        <time>2022-03-02T16:04:01.000Z</time>
      </trkpt>
      <trkpt lat="43.60605" lon="6.38005">
        <ele>622.5</ele>
        <time>2022-03-02T16:04:06.000Z</time>
      </trkpt>
      <trkpt lat="43.60607" lon="6.3801">
        <ele>622.3</ele>
        <time>2022-03-02T16:04:10.000Z</time>
      </trkpt>
      <trkpt lat="43.6061" lon="6.38015">
        <ele>622.2</ele>
        <time>2022-03-02T16:04:15.000Z</time>
      </trkpt>
      <trkpt lat="43.60613" lon="6.38022">
        <ele>622.1</ele>
        <time>2022-03-02T16:04:20.000Z</time>
      </trkpt>
      <trkpt lat="43.60616" lon="6.38028">
        <ele>622.1</ele>
        <time>2022-03-02T16:04:25.000Z</time>
      </trkpt>
      <trkpt lat="43.6062" lon="6.38032">
        <ele>622</ele>
        <time>2022-03-02T16:04:29.000Z</time>
      </trkpt>
      <trkpt lat="43.60623" lon="6.38038">
        <ele>622</ele>
        <time>2022-03-02T16:04:35.000Z</time>
      </trkpt>
      <trkpt lat="43.60626" lon="6.38044">
        <ele>622</ele>
        <time>2022-03-02T16:04:40.000Z</time>
      </trkpt>
      <trkpt lat="43.6063" lon="6.38047">
        <ele>622</ele>
        <time>2022-03-02T16:04:44.000Z</time>
      </trkpt>
      <trkpt lat="43.60634" lon="6.38052">
        <ele>622</ele>
        <time>2022-03-02T16:04:48.000Z</time>
      </trkpt>
      <trkpt lat="43.60637" lon="6.38057">
        <ele>622</ele>
        <time>2022-03-02T16:04:52.000Z</time>
      </trkpt>
      <trkpt lat="43.6064" lon="6.38062">
        <ele>622</ele>
        <time>2022-03-02T16:04:56.000Z</time>
      </trkpt>
      <trkpt lat="43.60643" lon="6.38067">
        <ele>622</ele>
        <time>2022-03-02T16:05:00.000Z</time>
      </trkpt>
      <trkpt lat="43.60646" lon="6.38072">
        <ele>622</ele>
        <time>2022-03-02T16:05:04.000Z</time>
      </trkpt>
      <trkpt lat="43.6065" lon="6.38076">
        <ele>622</ele>
        <time>2022-03-02T16:05:08.000Z</time>
      </trkpt>
      <trkpt lat="43.60654" lon="6.38081">
        <ele>621.9</ele>
        <time>2022-03-02T16:05:12.000Z</time>
      </trkpt>
      <trkpt lat="43.60657" lon="6.38085">
        <ele>621.9</ele>
        <time>2022-03-02T16:05:16.000Z</time>
      </trkpt>
      <trkpt lat="43.60661" lon="6.38089">
        <ele>621.9</ele>
        <time>2022-03-02T16:05:20.000Z</time>
      </trkpt>
      <trkpt lat="43.60665" lon="6.38092">
        <ele>621.8</ele>
        <time>2022-03-02T16:05:24.000Z</time>
      </trkpt>
      <trkpt lat="43.6067" lon="6.38096">
        <ele>621.7</ele>
        <time>2022-03-02T16:05:28.000Z</time>
      </trkpt>
      <trkpt lat="43.60674" lon="6.38099">
        <ele>621.7</ele>
        <time>2022-03-02T16:05:32.000Z</time>
      </trkpt>
      <trkpt lat="43.60678" lon="6.38102">
        <ele>621.6</ele>
        <time>2022-03-02T16:05:36.000Z</time>
      </trkpt>
      <trkpt lat="43.60683" lon="6.38106">
        <ele>621.6</ele>
        <time>2022-03-02T16:05:41.000Z</time>
      </trkpt>
      <trkpt lat="43.60687" lon="6.3811">
        <ele>621.6</ele>
        <time>2022-03-02T16:05:47.000Z</time>
      </trkpt>
      <trkpt lat="43.60688" lon="6.38117">
        <ele>621.5</ele>
        <time>2022-03-02T16:05:52.000Z</time>
      </trkpt>
      <trkpt lat="43.60687" lon="6.38123">
        <ele>621.3</ele>
        <time>2022-03-02T16:05:56.000Z</time>
      </trkpt>
      <trkpt lat="43.60685" lon="6.38129">
        <ele>621.1</ele>
        <time>2022-03-02T16:06:00.000Z</time>
      </trkpt>
      <trkpt lat="43.60684" lon="6.38136">
        <ele>620.8</ele>
        <time>2022-03-02T16:06:05.000Z</time>
      </trkpt>
      <trkpt lat="43.6068" lon="6.38141">
        <ele>620.5</ele>
        <time>2022-03-02T16:06:12.000Z</time>
      </trkpt>
      <trkpt lat="43.60676" lon="6.38139">
        <ele>620.4</ele>
        <time>2022-03-02T16:06:17.000Z</time>
      </trkpt>
      <trkpt lat="43.60672" lon="6.38141">
        <ele>620</ele>
        <time>2022-03-02T16:06:24.000Z</time>
      </trkpt>
      <trkpt lat="43.60668" lon="6.38146">
        <ele>619.6</ele>
        <time>2022-03-02T16:06:32.000Z</time>
      </trkpt>
      <trkpt lat="43.60666" lon="6.38151">
        <ele>618.9</ele>
        <time>2022-03-02T16:06:40.000Z</time>
      </trkpt>
      <trkpt lat="43.60661" lon="6.38152">
        <ele>618.1</ele>
        <time>2022-03-02T16:06:47.000Z</time>
      </trkpt>
      <trkpt lat="43.60656" lon="6.38154">
        <ele>617.1</ele>
        <time>2022-03-02T16:06:56.000Z</time>
      </trkpt>
      <trkpt lat="43.60657" lon="6.3816">
        <ele>615.7</ele>
        <time>2022-03-02T16:07:07.000Z</time>
      </trkpt>
      <trkpt lat="43.60657" lon="6.38167">
        <ele>614.4</ele>
        <time>2022-03-02T16:07:18.000Z</time>
      </trkpt>
      <trkpt lat="43.60658" lon="6.38174">
        <ele>613.4</ele>
        <time>2022-03-02T16:07:27.000Z</time>
      </trkpt>
      <trkpt lat="43.6066" lon="6.38179">
        <ele>612.4</ele>
        <time>2022-03-02T16:07:35.000Z</time>
      </trkpt>
      <trkpt lat="43.60661" lon="6.38186">
        <ele>610.9</ele>
        <time>2022-03-02T16:07:44.000Z</time>
      </trkpt>
      <trkpt lat="43.60664" lon="6.38191">
        <ele>609.5</ele>
        <time>2022-03-02T16:07:52.000Z</time>
      </trkpt>
      <trkpt lat="43.60667" lon="6.38196">
        <ele>608.3</ele>
        <time>2022-03-02T16:07:59.000Z</time>
      </trkpt>
      <trkpt lat="43.60671" lon="6.38201">
        <ele>607.2</ele>
        <time>2022-03-02T16:08:07.000Z</time>
      </trkpt>
      <trkpt lat="43.60675" lon="6.38204">
        <ele>606.4</ele>
        <time>2022-03-02T16:08:12.000Z</time>
      </trkpt>
      <trkpt lat="43.60678" lon="6.38212">
        <ele>605.9</ele>
        <time>2022-03-02T16:08:16.000Z</time>
      </trkpt>
      <trkpt lat="43.60681" lon="6.38217">
        <ele>605.4</ele>
        <time>2022-03-02T16:08:21.000Z</time>
      </trkpt>
      <trkpt lat="43.60686" lon="6.38218">
        <ele>604.8</ele>
        <time>2022-03-02T16:08:28.000Z</time>
      </trkpt>
      <trkpt lat="43.60689" lon="6.38224">
        <ele>604.4</ele>
        <time>2022-03-02T16:08:33.000Z</time>
      </trkpt>
      <trkpt lat="43.60692" lon="6.38229">
        <ele>604</ele>
        <time>2022-03-02T16:08:38.000Z</time>
      </trkpt>
      <trkpt lat="43.60695" lon="6.38235">
        <ele>603.7</ele>
        <time>2022-03-02T16:08:42.000Z</time>
      </trkpt>
      <trkpt lat="43.60697" lon="6.3824">
        <ele>603.2</ele>
        <time>2022-03-02T16:08:47.000Z</time>
      </trkpt>
      <trkpt lat="43.60701" lon="6.38244">
        <ele>602.3</ele>
        <time>2022-03-02T16:08:59.000Z</time>
      </trkpt>
      <trkpt lat="43.60703" lon="6.38251">
        <ele>602</ele>
        <time>2022-03-02T16:09:04.000Z</time>
      </trkpt>
      <trkpt lat="43.60704" lon="6.38257">
        <ele>601.7</ele>
        <time>2022-03-02T16:09:09.000Z</time>
      </trkpt>
      <trkpt lat="43.60707" lon="6.38262">
        <ele>601.4</ele>
        <time>2022-03-02T16:09:14.000Z</time>
      </trkpt>
      <trkpt lat="43.60709" lon="6.38268">
        <ele>601</ele>
        <time>2022-03-02T16:09:22.000Z</time>
      </trkpt>
      <trkpt lat="43.60709" lon="6.38276">
        <ele>600.7</ele>
        <time>2022-03-02T16:09:27.000Z</time>
      </trkpt>
      <trkpt lat="43.60708" lon="6.38282">
        <ele>599.9</ele>
        <time>2022-03-02T16:09:37.000Z</time>
      </trkpt>
      <trkpt lat="43.60709" lon="6.38288">
        <ele>599.5</ele>
        <time>2022-03-02T16:09:41.000Z</time>
      </trkpt>
      <trkpt lat="43.60707" lon="6.38293">
        <ele>598.9</ele>
        <time>2022-03-02T16:09:46.000Z</time>
      </trkpt>
      <trkpt lat="43.60703" lon="6.38297">
        <ele>598.2</ele>
        <time>2022-03-02T16:09:52.000Z</time>
      </trkpt>
      <trkpt lat="43.607" lon="6.38303">
        <ele>597.7</ele>
        <time>2022-03-02T16:09:59.000Z</time>
      </trkpt>
      <trkpt lat="43.60696" lon="6.38301">
        <ele>596.4</ele>
        <time>2022-03-02T16:10:15.000Z</time>
      </trkpt>
      <trkpt lat="43.60692" lon="6.38297">
        <ele>595.7</ele>
        <time>2022-03-02T16:10:22.000Z</time>
      </trkpt>
      <trkpt lat="43.60687" lon="6.38298">
        <ele>595.4</ele>
        <time>2022-03-02T16:10:25.000Z</time>
      </trkpt>
      <trkpt lat="43.60682" lon="6.38298">
        <ele>595</ele>
        <time>2022-03-02T16:10:29.000Z</time>
      </trkpt>
      <trkpt lat="43.60677" lon="6.38298">
        <ele>594.8</ele>
        <time>2022-03-02T16:10:32.000Z</time>
      </trkpt>
      <trkpt lat="43.60673" lon="6.38293">
        <ele>594.4</ele>
        <time>2022-03-02T16:10:37.000Z</time>
      </trkpt>
      <trkpt lat="43.60668" lon="6.38291">
        <ele>594</ele>
        <time>2022-03-02T16:10:40.000Z</time>
      </trkpt>
      <trkpt lat="43.60664" lon="6.38288">
        <ele>593.4</ele>
        <time>2022-03-02T16:10:46.000Z</time>
      </trkpt>
      <trkpt lat="43.60668" lon="6.38284">
        <ele>592.9</ele>
        <time>2022-03-02T16:10:51.000Z</time>
      </trkpt>
      <trkpt lat="43.60672" lon="6.3828">
        <ele>592.5</ele>
        <time>2022-03-02T16:10:56.000Z</time>
      </trkpt>
      <trkpt lat="43.60667" lon="6.38276">
        <ele>592.2</ele>
        <time>2022-03-02T16:11:03.000Z</time>
      </trkpt>
      <trkpt lat="43.60662" lon="6.38272">
        <ele>592</ele>
        <time>2022-03-02T16:11:06.000Z</time>
      </trkpt>
      <trkpt lat="43.6066" lon="6.38267">
        <ele>591.6</ele>
        <time>2022-03-02T16:11:09.000Z</time>
      </trkpt>
      <trkpt lat="43.60655" lon="6.38264">
        <ele>591.3</ele>
        <time>2022-03-02T16:11:12.000Z</time>
      </trkpt>
      <trkpt lat="43.60652" lon="6.38259">
        <ele>590.9</ele>
        <time>2022-03-02T16:11:16.000Z</time>
      </trkpt>
      <trkpt lat="43.60648" lon="6.38255">
        <ele>590.5</ele>
        <time>2022-03-02T16:11:21.000Z</time>
      </trkpt>
      <trkpt lat="43.60645" lon="6.3825">
        <ele>589.9</ele>
        <time>2022-03-02T16:11:30.000Z</time>
      </trkpt>
      <trkpt lat="43.60641" lon="6.38246">
        <ele>589.7</ele>
        <time>2022-03-02T16:11:33.000Z</time>
      </trkpt>
      <trkpt lat="43.60637" lon="6.38241">
        <ele>589.2</ele>
        <time>2022-03-02T16:11:37.000Z</time>
      </trkpt>
      <trkpt lat="43.60633" lon="6.38238">
        <ele>588.8</ele>
        <time>2022-03-02T16:11:41.000Z</time>
      </trkpt>
      <trkpt lat="43.60627" lon="6.38239">
        <ele>588.4</ele>
        <time>2022-03-02T16:11:45.000Z</time>
      </trkpt>
      <trkpt lat="43.60622" lon="6.38236">
        <ele>588</ele>
        <time>2022-03-02T16:11:50.000Z</time>
      </trkpt>
      <trkpt lat="43.60617" lon="6.38237">
        <ele>587.5</ele>
        <time>2022-03-02T16:11:55.000Z</time>
      </trkpt>
      <trkpt lat="43.60614" lon="6.38243">
        <ele>586.3</ele>
        <time>2022-03-02T16:12:07.000Z</time>
      </trkpt>
      <trkpt lat="43.60609" lon="6.38244">
        <ele>585.8</ele>
        <time>2022-03-02T16:12:13.000Z</time>
      </trkpt>
      <trkpt lat="43.60605" lon="6.38247">
        <ele>585.4</ele>
        <time>2022-03-02T16:12:17.000Z</time>
      </trkpt>
      <trkpt lat="43.606" lon="6.38249">
        <ele>584.5</ele>
        <time>2022-03-02T16:12:22.000Z</time>
      </trkpt>
      <trkpt lat="43.60594" lon="6.38249">
        <ele>583.6</ele>
        <time>2022-03-02T16:12:28.000Z</time>
      </trkpt>
      <trkpt lat="43.60589" lon="6.3825">
        <ele>583.2</ele>
        <time>2022-03-02T16:12:31.000Z</time>
      </trkpt>
      <trkpt lat="43.60584" lon="6.3825">
        <ele>582.7</ele>
        <time>2022-03-02T16:12:36.000Z</time>
      </trkpt>
      <trkpt lat="43.6058" lon="6.3825">
        <ele>581.7</ele>
        <time>2022-03-02T16:12:51.000Z</time>
      </trkpt>
      <trkpt lat="43.60576" lon="6.38246">
        <ele>581.3</ele>
        <time>2022-03-02T16:13:06.000Z</time>
      </trkpt>
      <trkpt lat="43.60576" lon="6.38246">
        <ele>581.2</ele>
        <time>2022-03-02T16:13:17.000Z</time>
      </trkpt>
    </trkseg>
  </trk>
</gpx>